[[{"header":{"parameterUnit":"m.s-1","parameterCategory":1,"la1":30.6,"la2":29.2853,"lo1":-89.7004,"lo2":-87.6739,"dy":0.0162,"dx":0.0183,"nx":112,"ny":82,"refTime":"2023-06-11T12:00:00:Z","depth":0,"parameterNumber":2,"parameterNumberName":"U-component_of_WINDS"},"data":[0.0,0.0,0.0,0.0,0.0,0.0,0.0,0.0,0.0,0.0,0.0,0.0,0.0,0.0,0.0,0.0,0.0,0.0,0.0,0.0,0.0,0.0,0.0,0.0,0.0,0.0,0.0,0.0,0.0,0.0,0.0,0.0,0.0,0.0,0.0,0.0,0.0,0.0,0.0,0.0,0.0,0.0,0.0,0.0,0.0,0.0,0.0,0.0,0.0,0.0,0.0,0.0,0.0,0.0,0.0,0.0,0.0,0.0,0.0,0.0,0.0,0.0,0.0,0.0,0.0,0.0,0.0,0.0,0.0,0.0,0.0,0.0,0.0,0.0,0.0,0.0,0.0,0.0,0.0,0.0,0.0,0.0,0.0,0.0,0.0,0.0,0.0,0.0,0.0,0.0,0.0,-4.6789,-4.6756,-4.6722,-4.6722,-4.6104,-4.5681,-4.5507,0.0,0.0,0.0,0.0,0.0,0.0,0.0,0.0,0.0,0.0,0.0,0.0,0.0,0.0,0.0,0.0,0.0,0.0,0.0,0.0,0.0,0.0,0.0,0.0,0.0,0.0,0.0,0.0,0.0,0.0,0.0,0.0,0.0,0.0,0.0,0.0,0.0,0.0,0.0,0.0,0.0,0.0,0.0,0.0,0.0,0.0,0.0,0.0,0.0,0.0,0.0,0.0,0.0,0.0,0.0,0.0,0.0,0.0,0.0,0.0,0.0,0.0,0.0,0.0,0.0,0.0,0.0,0.0,0.0,0.0,0.0,0.0,0.0,0.0,0.0,0.0,0.0,0.0,0.0,0.0,0.0,0.0,0.0,0.0,0.0,0.0,0.0,0.0,0.0,0.0,0.0,0.0,0.0,0.0,0.0,0.0,0.0,0.0,0.0,0.0,0.0,0.0,0.0,0.0,-4.6017,-4.6124,-4.6159,-4.6056,-4.5877,-4.5638,-4.5394,-4.5175,0.0,0.0,0.0,0.0,0.0,0.0,0.0,0.0,0.0,0.0,0.0,0.0,0.0,0.0,0.0,0.0,0.0,0.0,0.0,0.0,0.0,0.0,0.0,0.0,0.0,0.0,0.0,0.0,0.0,0.0,0.0,0.0,0.0,0.0,0.0,0.0,0.0,0.0,0.0,0.0,0.0,0.0,0.0,0.0,0.0,0.0,0.0,0.0,0.0,0.0,0.0,0.0,0.0,0.0,0.0,0.0,0.0,0.0,0.0,0.0,0.0,0.0,0.0,0.0,0.0,0.0,0.0,0.0,0.0,0.0,0.0,0.0,0.0,0.0,0.0,0.0,0.0,0.0,0.0,0.0,0.0,0.0,0.0,0.0,0.0,0.0,0.0,0.0,0.0,0.0,0.0,0.0,0.0,0.0,0.0,0.0,0.0,0.0,0.0,0.0,0.0,0.0,0.0,-4.6102,-4.5477,-4.5408,-4.5067,-4.4812,-4.4737,-4.4624,-4.4548,-4.4434,-4.4106,0.0,0.0,0.0,0.0,0.0,0.0,0.0,0.0,0.0,0.0,0.0,0.0,0.0,0.0,0.0,0.0,0.0,0.0,0.0,0.0,0.0,0.0,0.0,0.0,0.0,0.0,0.0,0.0,0.0,0.0,0.0,0.0,0.0,0.0,0.0,0.0,0.0,0.0,0.0,0.0,0.0,0.0,0.0,0.0,0.0,0.0,0.0,0.0,0.0,0.0,0.0,0.0,0.0,0.0,0.0,0.0,0.0,0.0,0.0,0.0,0.0,0.0,0.0,0.0,0.0,0.0,0.0,0.0,0.0,0.0,0.0,0.0,0.0,0.0,0.0,0.0,0.0,0.0,0.0,0.0,0.0,0.0,0.0,0.0,0.0,0.0,0.0,0.0,0.0,0.0,0.0,0.0,0.0,0.0,0.0,0.0,0.0,0.0,0.0,0.0,0.0,0.0,-4.5595,-4.5141,-4.5011,-4.4327,-4.3935,-4.3935,-4.3744,-4.3615,-4.3615,-4.3457,0.0,0.0,0.0,0.0,0.0,0.0,0.0,0.0,0.0,0.0,0.0,0.0,0.0,0.0,0.0,0.0,0.0,0.0,0.0,0.0,0.0,0.0,0.0,0.0,0.0,0.0,0.0,0.0,0.0,0.0,0.0,0.0,0.0,0.0,0.0,0.0,0.0,0.0,0.0,0.0,0.0,0.0,0.0,0.0,0.0,0.0,0.0,0.0,0.0,0.0,0.0,0.0,0.0,0.0,0.0,0.0,0.0,0.0,0.0,0.0,0.0,0.0,0.0,0.0,0.0,0.0,0.0,0.0,0.0,0.0,0.0,0.0,0.0,0.0,0.0,0.0,0.0,0.0,0.0,0.0,0.0,0.0,0.0,0.0,0.0,0.0,0.0,0.0,0.0,0.0,0.0,0.0,0.0,0.0,0.0,0.0,0.0,0.0,0.0,0.0,0.0,0.0,-4.5244,-4.5214,-4.5173,-4.4482,-4.3972,-4.3972,-4.3245,-4.2769,-4.2769,-4.2769,0.0,0.0,0.0,0.0,0.0,0.0,0.0,0.0,0.0,0.0,0.0,0.0,0.0,0.0,0.0,0.0,0.0,0.0,0.0,0.0,0.0,0.0,0.0,0.0,0.0,0.0,0.0,0.0,0.0,0.0,0.0,0.0,0.0,0.0,0.0,0.0,0.0,0.0,0.0,0.0,0.0,0.0,0.0,0.0,0.0,0.0,0.0,0.0,0.0,0.0,0.0,0.0,0.0,0.0,0.0,0.0,0.0,0.0,0.0,0.0,0.0,0.0,0.0,0.0,0.0,0.0,0.0,0.0,0.0,0.0,0.0,0.0,0.0,0.0,0.0,0.0,0.0,0.0,0.0,0.0,0.0,0.0,0.0,0.0,0.0,0.0,0.0,0.0,0.0,0.0,0.0,0.0,0.0,0.0,0.0,0.0,0.0,0.0,0.0,0.0,0.0,0.0,-4.5489,-4.5181,0.0,-4.4408,-4.4014,-4.4014,-4.3696,-4.3332,-4.2894,0.0,0.0,0.0,0.0,0.0,0.0,0.0,0.0,0.0,0.0,0.0,0.0,0.0,0.0,0.0,0.0,0.0,0.0,0.0,0.0,0.0,0.0,0.0,0.0,0.0,0.0,0.0,0.0,0.0,0.0,0.0,0.0,0.0,0.0,0.0,0.0,0.0,0.0,0.0,0.0,0.0,0.0,0.0,0.0,0.0,0.0,0.0,0.0,0.0,0.0,0.0,0.0,0.0,0.0,0.0,0.0,0.0,0.0,0.0,0.0,0.0,0.0,0.0,0.0,0.0,0.0,0.0,0.0,0.0,0.0,0.0,0.0,0.0,0.0,0.0,0.0,0.0,0.0,0.0,0.0,0.0,0.0,0.0,0.0,0.0,0.0,0.0,0.0,0.0,0.0,0.0,0.0,0.0,0.0,0.0,0.0,0.0,0.0,0.0,0.0,0.0,0.0,-4.6135,-4.5756,-4.5449,0.0,-4.4647,-4.4269,-4.4269,-4.4095,-4.3805,-4.334,0.0,0.0,0.0,0.0,0.0,0.0,0.0,0.0,0.0,0.0,0.0,0.0,0.0,0.0,0.0,0.0,0.0,0.0,0.0,0.0,0.0,0.0,0.0,0.0,0.0,0.0,0.0,0.0,0.0,0.0,0.0,0.0,0.0,0.0,0.0,0.0,0.0,0.0,0.0,0.0,0.0,0.0,0.0,0.0,0.0,0.0,0.0,0.0,0.0,0.0,0.0,0.0,0.0,0.0,0.0,0.0,0.0,0.0,0.0,0.0,0.0,0.0,0.0,0.0,0.0,0.0,0.0,0.0,0.0,0.0,0.0,0.0,0.0,0.0,0.0,0.0,0.0,0.0,0.0,0.0,0.0,0.0,0.0,0.0,0.0,0.0,0.0,0.0,0.0,0.0,0.0,0.0,0.0,0.0,0.0,0.0,0.0,0.0,0.0,0.0,0.0,0.0,-4.594,-4.5895,-4.5895,-4.5895,-4.5285,-4.4908,-4.4908,-4.4356,-4.4008,0.0,0.0,0.0,0.0,0.0,0.0,0.0,0.0,0.0,0.0,0.0,0.0,0.0,0.0,0.0,0.0,0.0,0.0,0.0,0.0,0.0,0.0,0.0,0.0,0.0,0.0,0.0,0.0,0.0,0.0,0.0,0.0,0.0,0.0,0.0,0.0,0.0,0.0,0.0,0.0,0.0,0.0,0.0,0.0,0.0,0.0,0.0,0.0,0.0,0.0,0.0,0.0,0.0,0.0,0.0,0.0,0.0,0.0,0.0,0.0,0.0,0.0,0.0,0.0,0.0,0.0,0.0,0.0,0.0,0.0,0.0,0.0,0.0,0.0,0.0,0.0,0.0,0.0,0.0,0.0,0.0,0.0,0.0,0.0,0.0,0.0,0.0,0.0,0.0,0.0,0.0,0.0,0.0,0.0,0.0,0.0,0.0,0.0,0.0,0.0,0.0,0.0,0.0,-4.594,-4.5895,-4.5895,-4.5895,-4.5721,-4.5605,-4.5605,-4.543,-4.514,-4.4647,0.0,0.0,0.0,0.0,0.0,0.0,0.0,0.0,0.0,0.0,0.0,0.0,0.0,0.0,0.0,0.0,0.0,0.0,0.0,0.0,0.0,0.0,0.0,0.0,0.0,0.0,0.0,0.0,0.0,0.0,0.0,0.0,0.0,0.0,0.0,0.0,0.0,0.0,0.0,0.0,0.0,0.0,0.0,0.0,0.0,0.0,0.0,0.0,0.0,0.0,0.0,0.0,0.0,0.0,0.0,0.0,0.0,0.0,0.0,0.0,0.0,0.0,0.0,0.0,0.0,0.0,0.0,0.0,0.0,0.0,0.0,0.0,0.0,0.0,0.0,0.0,0.0,0.0,0.0,0.0,0.0,0.0,0.0,0.0,0.0,0.0,0.0,0.0,0.0,0.0,0.0,0.0,0.0,0.0,0.0,0.0,0.0,0.0,0.0,0.0,0.0,0.0,-4.6328,-4.642,-4.6512,-4.6512,-4.6372,-4.6272,-4.6272,-4.604,-4.5721,-4.5314,0.0,0.0,0.0,0.0,0.0,0.0,0.0,0.0,0.0,0.0,0.0,0.0,0.0,0.0,0.0,0.0,0.0,0.0,0.0,0.0,0.0,0.0,0.0,0.0,0.0,0.0,0.0,0.0,0.0,0.0,0.0,0.0,0.0,0.0,0.0,0.0,0.0,0.0,0.0,0.0,0.0,0.0,0.0,0.0,0.0,0.0,0.0,0.0,0.0,0.0,0.0,0.0,0.0,0.0,0.0,0.0,0.0,0.0,0.0,0.0,0.0,0.0,0.0,0.0,0.0,0.0,0.0,0.0,0.0,0.0,0.0,0.0,0.0,0.0,0.0,0.0,0.0,0.0,0.0,0.0,0.0,0.0,0.0,0.0,0.0,0.0,0.0,0.0,0.0,0.0,0.0,0.0,0.0,0.0,0.0,0.0,0.0,0.0,0.0,0.0,0.0,0.0,-4.6928,-4.7148,-4.7338,-4.7338,-4.7026,-4.6819,-4.6819,-4.6297,-4.5995,-4.5937,0.0,0.0,0.0,0.0,0.0,0.0,0.0,0.0,0.0,0.0,0.0,0.0,0.0,0.0,0.0,0.0,0.0,0.0,0.0,0.0,0.0,0.0,0.0,0.0,0.0,0.0,0.0,0.0,0.0,0.0,0.0,0.0,0.0,0.0,0.0,0.0,0.0,0.0,0.0,0.0,0.0,0.0,0.0,0.0,0.0,0.0,0.0,0.0,0.0,0.0,0.0,0.0,0.0,0.0,0.0,0.0,0.0,0.0,0.0,0.0,-5.4591,0.0,0.0,0.0,0.0,0.0,0.0,0.0,0.0,0.0,0.0,0.0,0.0,0.0,0.0,0.0,0.0,0.0,0.0,0.0,0.0,0.0,0.0,0.0,0.0,0.0,0.0,0.0,0.0,0.0,0.0,0.0,0.0,0.0,0.0,0.0,0.0,0.0,0.0,0.0,0.0,0.0,-4.6397,-4.6591,-4.6784,-4.6784,-4.6862,-4.6966,-4.6966,-4.6852,-4.6659,-4.6328,-4.6299,0.0,0.0,0.0,0.0,0.0,0.0,0.0,0.0,0.0,0.0,0.0,0.0,0.0,0.0,0.0,0.0,0.0,0.0,0.0,0.0,0.0,0.0,0.0,0.0,0.0,0.0,0.0,0.0,0.0,0.0,0.0,0.0,0.0,0.0,0.0,0.0,0.0,0.0,0.0,0.0,0.0,0.0,0.0,0.0,0.0,0.0,0.0,0.0,0.0,0.0,0.0,0.0,0.0,0.0,0.0,0.0,0.0,0.0,0.0,0.0,-5.4586,0.0,0.0,0.0,0.0,0.0,0.0,0.0,0.0,0.0,0.0,0.0,0.0,0.0,0.0,0.0,0.0,0.0,0.0,0.0,0.0,0.0,0.0,0.0,0.0,0.0,0.0,0.0,0.0,0.0,0.0,0.0,0.0,0.0,0.0,0.0,0.0,0.0,0.0,0.0,0.0,-4.6169,-4.6344,-4.6545,-4.6673,-4.6671,-4.6722,-4.682,-4.6538,-4.6421,-4.6491,-4.6252,0.0,0.0,0.0,0.0,0.0,0.0,0.0,0.0,0.0,0.0,0.0,0.0,0.0,0.0,0.0,0.0,0.0,0.0,0.0,0.0,0.0,0.0,0.0,0.0,0.0,0.0,0.0,0.0,0.0,0.0,0.0,0.0,0.0,0.0,0.0,0.0,0.0,0.0,0.0,0.0,0.0,0.0,0.0,0.0,0.0,0.0,0.0,0.0,0.0,0.0,0.0,0.0,0.0,0.0,0.0,-5.1727,-5.2257,-5.2418,-5.2312,-5.3078,-5.3615,-5.3977,0.0,0.0,0.0,0.0,0.0,0.0,0.0,0.0,0.0,0.0,0.0,0.0,0.0,0.0,0.0,0.0,0.0,0.0,0.0,0.0,0.0,0.0,0.0,0.0,0.0,-4.9717,-4.9717,0.0,0.0,0.0,0.0,0.0,0.0,0.0,0.0,0.0,0.0,0.0,0.0,-4.6089,-4.6276,-4.6541,-4.6779,-4.6578,-4.6507,-4.6652,-4.6183,-4.6045,-4.6469,-4.6059,-4.5987,0.0,0.0,0.0,0.0,0.0,0.0,0.0,0.0,0.0,0.0,0.0,0.0,0.0,0.0,0.0,0.0,0.0,0.0,0.0,0.0,0.0,0.0,0.0,0.0,0.0,0.0,0.0,0.0,0.0,0.0,0.0,0.0,-4.7538,-4.8275,0.0,0.0,0.0,0.0,0.0,0.0,0.0,0.0,0.0,0.0,0.0,0.0,0.0,0.0,-5.3214,-5.2711,-5.2567,-5.2842,-5.2287,-5.1927,-5.1674,-5.1443,-5.1327,-5.129,-5.1438,0.0,-5.3009,-5.3382,0.0,0.0,0.0,0.0,0.0,0.0,0.0,0.0,0.0,0.0,0.0,0.0,0.0,0.0,0.0,0.0,0.0,0.0,0.0,0.0,0.0,0.0,-5.0086,-4.9766,-4.9717,-4.9717,0.0,-4.9717,-4.9717,-4.9717,0.0,0.0,0.0,0.0,0.0,0.0,0.0,0.0,-4.6435,-4.6576,-4.6742,-4.6798,-4.6939,-4.6918,-4.6491,-4.6598,-4.6482,-4.604,-4.6155,-4.6327,-4.6574,-4.6026,0.0,0.0,0.0,0.0,0.0,0.0,0.0,0.0,0.0,0.0,0.0,0.0,0.0,0.0,0.0,0.0,0.0,0.0,0.0,0.0,0.0,0.0,0.0,0.0,0.0,0.0,0.0,0.0,0.0,-4.7854,-4.8345,-4.9082,-4.9153,-4.9504,0.0,0.0,0.0,0.0,0.0,0.0,0.0,0.0,0.0,-5.3102,-5.3063,-5.3187,-5.3532,-5.2775,-5.2294,-5.2134,-5.1619,-5.128,-5.1092,-5.0902,-5.0788,-5.0672,-5.0788,-5.1059,-5.1475,-5.231,-5.2732,-5.2872,0.0,0.0,0.0,0.0,0.0,0.0,-5.198,0.0,0.0,0.0,0.0,0.0,0.0,0.0,0.0,0.0,0.0,0.0,0.0,0.0,0.0,-4.9717,-4.9717,-4.9834,-5.0211,-5.0249,-5.0133,0.0,-4.9643,-4.961,-4.9,0.0,0.0,0.0,0.0,-4.6165,-4.5711,-4.5768,-4.5912,-4.6026,-4.6195,-4.6204,-4.6111,-4.6251,-4.6213,-4.5982,-4.5897,-4.5983,-4.619,-4.5776,-4.5661,0.0,0.0,0.0,0.0,0.0,0.0,0.0,0.0,0.0,0.0,0.0,0.0,0.0,0.0,0.0,0.0,0.0,0.0,0.0,0.0,0.0,0.0,0.0,0.0,0.0,0.0,0.0,0.0,-4.8872,-4.9153,-4.9916,-5.0022,-5.0241,0.0,0.0,0.0,0.0,0.0,0.0,-5.2312,-5.305,-5.3631,-5.4022,-5.3714,-5.3526,-5.355,-5.2626,-5.1911,-5.1327,-5.094,-5.0666,-5.0512,-5.0473,-5.0324,-5.0239,-5.0586,-5.0611,-5.054,-5.1387,-5.1802,-5.1948,-5.2238,-5.231,0.0,-5.202,-5.1871,-5.1688,-5.154,-5.1825,-5.2443,-5.3323,0.0,-5.497,-5.5166,0.0,0.0,0.0,0.0,-5.1075,-5.0519,0.0,-4.9727,-4.995,-4.9979,-5.0104,-5.0772,-5.0917,-5.0722,0.0,-5.0019,-4.9905,-4.8955,0.0,0.0,-4.6782,-4.6122,-4.5744,-4.5479,-4.5421,-4.5454,-4.5686,-4.5686,-4.5725,-4.5802,-4.5859,-4.5887,-4.5875,-4.5731,-4.5715,-4.5917,-4.5629,-4.5531,-4.5753,0.0,0.0,0.0,0.0,0.0,0.0,0.0,0.0,0.0,0.0,0.0,0.0,0.0,0.0,0.0,0.0,0.0,0.0,0.0,0.0,0.0,0.0,0.0,0.0,0.0,0.0,0.0,0.0,0.0,-5.0733,-5.0838,0.0,0.0,0.0,0.0,-5.1934,-5.2699,-5.3148,-5.3148,-5.3822,-5.4133,-5.3843,-5.4043,-5.3813,-5.3145,-5.2203,-5.1545,-5.1205,-5.0596,-5.0285,-5.0317,-5.005,-4.9931,-4.9963,-5.0667,-5.0951,-5.096,-5.0961,-5.0972,-5.0972,-5.1135,-5.1177,-5.1172,-5.1016,-5.0972,-5.0934,-5.0743,-5.0666,-5.0955,-5.2333,-5.367,-5.4665,-5.4028,-5.3465,0.0,0.0,-5.1105,-5.0394,-5.0183,-4.9941,-4.9892,-5.0531,-5.0676,-5.0801,-5.1439,-5.1556,-5.1454,0.0,-5.068,-5.0097,-4.9556,0.0,-4.8012,-4.7262,-4.6917,-4.6585,-4.6285,-4.6225,-4.6225,-4.6285,-4.6285,-4.6084,-4.5531,-4.5775,-4.5813,-4.5514,-4.5722,-4.5887,-4.6,-4.5634,-4.5605,-4.586,-4.5863,0.0,0.0,0.0,0.0,0.0,0.0,0.0,0.0,0.0,0.0,0.0,0.0,0.0,0.0,0.0,0.0,0.0,0.0,0.0,0.0,0.0,0.0,0.0,0.0,0.0,0.0,0.0,0.0,-5.0873,-5.1329,0.0,0.0,-5.2312,-5.2769,-5.2769,-5.3471,-5.3892,-5.3892,-5.4665,-5.4939,-5.4574,-5.4193,-5.3649,-5.2905,-5.1842,-5.1361,-5.1456,-5.0985,-5.0968,-5.138,-5.1299,-5.1259,-5.129,-5.1543,-5.1638,-5.1606,-5.1628,-5.1694,-5.1814,-5.2019,-5.2066,-5.2066,-5.2019,-5.198,-5.198,-5.1901,-5.1901,-5.2061,-5.3021,-5.3806,-5.4274,-5.3813,-5.3069,-5.217,-5.1496,-5.0775,-5.0271,-5.0417,-5.0435,-5.0481,-5.112,-5.1294,-5.1468,-5.2078,-5.2069,-5.1926,-5.1856,-5.1176,-5.023,-4.9088,-4.8486,-4.7853,-4.7027,-4.6661,-4.6446,-4.6326,-4.6301,-4.6301,-4.6301,-4.6301,-4.6225,-4.6024,-4.6059,-4.5952,-4.5514,-4.573,-4.5822,-4.5684,-4.5418,-4.5281,-4.5341,-4.5144,-4.5111,0.0,0.0,0.0,0.0,0.0,0.0,0.0,0.0,0.0,0.0,0.0,0.0,0.0,0.0,0.0,0.0,0.0,0.0,0.0,0.0,0.0,0.0,0.0,0.0,0.0,0.0,-5.0924,-5.1224,-5.1716,-5.2137,-5.2383,-5.312,-5.3576,-5.3576,-5.4279,-5.47,-5.47,-5.5227,-5.5329,-5.493,-5.451,-5.3889,-5.31,-5.2249,-5.1875,-5.1957,-5.1525,-5.1575,-5.2017,-5.2017,-5.2017,-5.2017,-5.227,-5.2365,-5.2396,-5.2618,-5.2796,-5.2889,-5.2545,-5.2394,-5.2394,-5.2394,-5.2394,-5.2394,-5.2394,-5.2554,-5.284,-5.3204,-5.3587,-5.3801,-5.3246,-5.2595,-5.1827,-5.1292,-5.0894,-5.065,-5.0938,-5.1004,-5.1149,-5.1788,-5.1933,-5.2107,-5.2671,-5.2578,-5.2325,-5.1974,-5.1313,-5.038,-4.8881,-4.8232,-4.7619,-4.678,-4.6446,-4.6301,-4.6301,-4.6301,-4.6301,-4.6301,-4.6301,-4.6301,-4.6301,-4.6301,-4.615,-4.5799,-4.5926,-4.5851,-4.5501,-4.5431,-4.5339,-4.5161,-4.5022,-4.4964,-4.506,0.0,0.0,0.0,0.0,0.0,0.0,0.0,0.0,0.0,0.0,0.0,0.0,0.0,0.0,0.0,0.0,0.0,0.0,0.0,0.0,0.0,0.0,0.0,-5.0509,-5.062,-5.099,-5.1934,-5.2039,-5.2383,-5.3183,-5.3892,-5.4349,-5.4349,-5.5086,-5.5507,-5.5543,-5.5543,-5.5304,-5.478,-5.4928,-5.4601,-5.3656,-5.3422,-5.3108,-5.2733,-5.2286,-5.208,-5.2112,-5.2112,-5.2144,-5.2175,-5.2902,-5.3218,-5.325,-5.3913,-5.4166,-5.404,-5.2618,-5.208,-5.208,-5.208,-5.208,-5.208,-5.208,-5.2554,-5.3081,-5.2827,-5.3052,-5.3233,-5.2246,-5.2008,-5.1947,-5.1248,-5.132,-5.1614,-5.1643,-5.1643,-5.1817,-5.2455,-5.2652,-5.2723,-5.3045,-5.3054,-5.2734,-5.1512,-5.1045,-5.0376,-4.8873,-4.8088,-4.7349,-4.6421,-4.6301,0.0,-4.6301,-4.6301,-4.6326,-4.6326,-4.6326,-4.6326,-4.6326,-4.6326,-4.6301,-4.6301,-4.6301,-4.6075,-4.5547,-4.5767,-4.5781,-4.5482,-4.5488,-4.5421,-4.5378,0.0,0.0,0.0,0.0,0.0,0.0,0.0,0.0,0.0,0.0,0.0,0.0,0.0,0.0,0.0,0.0,0.0,0.0,0.0,0.0,0.0,0.0,-5.0875,-5.1274,-5.1318,-5.171,-5.2741,-5.3331,-5.3752,-5.3998,-5.47,-5.5191,-5.5191,-5.5367,-5.5753,-5.628,-5.6315,-5.6379,-5.6564,-5.6091,-5.5484,-5.4603,-5.3907,-5.3563,-5.364,-5.371,-5.4041,-5.455,-5.4885,-5.5051,-5.5051,-5.5241,-5.5335,-5.5367,-5.5525,-5.562,-5.5462,-5.4071,-5.3534,-5.3534,-5.3534,-5.3534,-5.3534,-5.3534,-5.3533,-5.3644,-5.3853,-5.3644,-5.327,-5.3105,-5.2707,-5.2221,-5.1824,-5.167,-5.173,-5.2194,-5.231,-5.2455,-5.3094,-5.3239,-5.3192,-5.3131,-5.2734,-5.2113,-5.0851,-5.0096,-4.9301,-4.8353,-4.7586,-4.69,-4.6361,0.0,0.0,-4.6301,-4.6301,-4.6476,-4.6853,-4.6552,-4.6476,-4.6878,-4.6552,-4.6301,-4.6301,-4.6301,-4.625,-4.61,-4.5757,-4.5514,-4.5221,-4.4991,-4.4872,0.0,0.0,0.0,0.0,0.0,0.0,0.0,0.0,0.0,0.0,0.0,0.0,0.0,0.0,0.0,0.0,0.0,0.0,0.0,0.0,0.0,0.0,-5.0556,-5.128,-5.2015,-5.2003,-5.2341,-5.3462,-5.4004,-5.4454,-5.477,-5.5507,-5.5964,-5.5964,-5.628,-5.6666,-5.7087,-5.7087,-5.7083,-5.703,-5.7054,-5.6635,-5.5655,-5.5515,-5.5361,-5.5329,-5.5293,-5.5493,-5.5939,-5.6132,-5.6189,0.0,-5.6189,-5.6189,-5.6189,-5.6189,-5.6189,0.0,0.0,0.0,0.0,0.0,-5.4988,-5.4956,-5.4762,-5.4574,-5.4402,-5.4111,-5.3714,-5.3364,-5.3103,-5.2842,-5.2578,-5.2325,-5.2297,-5.2484,-5.2862,-5.2978,-5.3065,-5.3442,-5.3424,-5.3213,-5.2787,-5.2221,-5.1514,-5.0395,0.0,0.0,-4.835,-4.7624,-4.7091,-4.7015,-4.6979,-4.6979,0.0,-4.6979,-4.7104,-4.7431,-4.7179,-4.7104,-4.7431,-4.6954,0.0,0.0,0.0,-4.6301,-4.6301,-4.5999,0.0,0.0,0.0,-4.5047,0.0,0.0,0.0,0.0,-4.4837,-4.5107,0.0,0.0,0.0,0.0,0.0,0.0,0.0,0.0,0.0,0.0,0.0,0.0,0.0,0.0,0.0,0.0,-5.076,-5.1395,-5.2692,-5.2819,-5.3103,-5.4091,-5.4437,-5.484,-5.5578,-5.6315,-5.6736,-5.6736,-5.7403,-5.7895,-5.8035,0.0,0.0,0.0,0.0,-5.8014,-5.6951,-5.7601,-5.7716,-5.7291,-5.6881,-5.6726,-5.6726,-5.6556,-5.6499,-5.6455,-5.6455,-5.6455,-5.641,-5.641,-5.641,-5.641,-5.6252,-5.6189,-5.6189,-5.6189,-5.6144,0.0,0.0,0.0,0.0,-5.3908,-5.3507,-5.3391,-5.2743,-5.2784,-5.2997,-5.2791,-5.3094,-5.35,-5.35,-5.35,-5.35,-5.3477,-5.3266,-5.2894,-5.2221,-5.1651,-5.0988,-5.0019,-4.9357,-4.8902,-4.8553,-4.7988,-4.7724,-4.7894,-4.7908,0.0,-4.7908,-4.7908,-4.7933,-4.7983,0.0,0.0,-4.8008,-4.7531,-4.7143,-4.7068,-4.6627,-4.6301,-4.6301,-4.6301,-4.6075,-4.5598,-4.5733,-4.5631,-4.5124,-4.482,-4.4515,-4.4229,-4.4463,-4.5021,0.0,0.0,0.0,0.0,0.0,0.0,0.0,0.0,0.0,0.0,0.0,0.0,0.0,0.0,0.0,-5.1118,-5.1894,-5.2639,-5.3179,-5.4246,-5.4956,-5.4964,-5.5699,-5.621,-5.6385,-5.7087,-5.7579,-5.7579,-5.7719,-5.8351,-5.958,-5.9491,0.0,-6.0601,-6.0204,-5.9641,-5.8948,-5.8419,-5.8008,-5.7758,0.0,0.0,-5.7976,-5.8288,-5.8364,-5.8151,-5.8151,-5.8015,-5.7909,-5.7909,-5.7909,-5.7814,-5.6631,-5.6189,-5.6189,-5.6189,-5.5934,-5.5527,-5.5451,-5.49,-5.4196,-5.4298,-5.3843,-5.3343,-5.3547,-5.3523,0.0,-5.3326,-5.3413,-5.35,0.0,-5.35,-5.3477,-5.3213,-5.3107,-5.2787,-5.1704,-5.1349,-5.083,-4.9455,-4.904,-4.8887,-4.8762,-4.8259,-4.7844,-4.7883,-4.7908,-4.7908,-4.7908,-4.7908,-4.8083,-4.856,-4.8184,-4.8109,-4.856,-4.8083,-4.7581,-4.7093,-4.6627,-4.6301,-4.6301,-4.6301,-4.625,-4.615,-4.5757,-4.554,-4.5439,-4.486,-4.4535,-4.4291,-4.4572,-4.487,0.0,0.0,0.0,0.0,0.0,0.0,0.0,0.0,0.0,0.0,0.0,-5.075,0.0,0.0,-5.1879,-5.1879,-5.2426,-5.3176,-5.3889,-5.4899,-5.5617,-5.5711,-5.6584,-5.7193,-5.7193,-5.8246,-5.8948,-5.8948,-5.965,-6.0423,-6.1195,-6.0967,-6.0946,-6.1289,-6.0941,-6.0464,-5.9718,-5.9515,-5.9296,-5.8991,-5.9004,-5.8903,-5.8771,-5.8934,-5.8837,-5.861,-5.861,-5.8473,-5.8274,-5.8182,-5.8136,-5.7995,-5.7025,-5.6789,-5.7018,-5.6881,-5.6745,-5.6513,-5.5779,-5.5206,-5.4715,-5.4142,-5.3786,-5.3635,-5.3675,-5.3605,-5.35,-5.35,-5.35,-5.35,-5.35,-5.3424,-5.3266,-5.3107,-5.2855,-5.2401,-5.146,-5.0993,-5.0457,-4.9516,-4.9215,-4.9075,-4.9152,-4.8937,-4.8761,-4.8761,-4.8761,-4.8761,-4.8761,-4.8761,-4.8862,-4.9163,-4.8912,-4.8862,-4.9163,-4.8661,-4.7983,-4.7118,-4.6878,-4.6602,-4.6326,-4.6301,-4.6301,-4.6301,-4.605,-4.5899,-4.5899,-4.5321,-4.4978,-4.4908,-4.5197,-4.5395,0.0,0.0,0.0,0.0,0.0,0.0,0.0,0.0,-4.9525,-5.0253,-5.0982,-5.1514,-5.1514,-5.2011,-5.2409,-5.2409,-5.2792,-5.3478,-5.4464,-5.5447,-5.6208,-5.6561,-5.7464,-5.8105,-5.8246,-5.951,-6.0388,-6.0528,-6.1687,-6.2459,-6.2566,-6.2194,-6.1778,-6.1378,-6.1359,-6.1004,-6.0199,-6.0547,-6.0548,-6.0239,-5.9979,-5.9684,-5.9464,-5.9286,-5.9017,-5.8746,-5.8578,-5.8381,-5.8136,-5.7871,-5.7731,-5.7637,-5.7132,-5.718,-5.7495,-5.7353,-5.7366,-5.7342,-5.6047,-5.5521,-5.5179,-5.3987,-5.3685,-5.3762,-5.3553,-5.35,-5.35,-5.35,-5.35,-5.3477,-5.3424,-5.3353,-5.3255,-5.2959,-5.2598,-5.2069,-5.1186,-5.0623,-5.0185,-4.9666,-4.9406,-4.9381,-4.9579,-4.959,-4.959,-4.959,-4.959,-4.959,-4.959,-4.959,-4.959,-4.959,-4.959,-4.959,-4.959,-4.9088,-4.8385,-4.7506,-4.7193,-4.6928,-4.6502,-4.6376,-4.6301,-4.6301,-4.6301,-4.6301,-4.6301,-4.5874,-4.5598,-4.5531,-4.5866,-4.6058,-4.6742,-4.7305,-4.7901,-4.7968,-4.8001,-4.8199,0.0,0.0,-5.0286,-5.1015,-5.1779,-5.231,-5.231,-5.2343,-5.2409,-5.2409,-5.3228,-5.4048,-5.4532,-5.6371,-5.7765,-5.8094,-5.8587,-5.9124,-5.9791,-6.0633,-6.1441,-6.2073,-6.2283,-6.2638,-6.3169,-6.2822,-6.2636,-6.2696,-6.2183,-6.1696,-6.1209,-6.0894,-6.0675,-6.0633,-6.042,-6.0206,-6.0022,-5.9979,-5.9684,-5.9197,-5.8532,-5.798,-5.759,-5.7275,-5.7036,-5.6796,-5.6506,-5.6262,-5.6164,-5.636,-5.6396,-5.6232,-5.5461,-5.4773,-5.4266,-5.3942,-5.3733,-5.3553,-5.35,-5.35,-5.35,-5.35,-5.35,-5.3477,-5.3213,-5.351,-5.3643,-5.2546,-5.2433,-5.216,-5.0724,-5.0272,-5.0038,-4.9367,-4.9418,-4.9579,-4.959,-4.959,-4.959,-4.959,-4.959,-4.959,-4.959,-4.959,-4.959,-4.959,-4.959,-4.959,-4.959,-4.9088,-4.8711,-4.8611,-4.7682,-4.7043,-4.6993,-4.6577,-4.6301,-4.6301,-4.6301,-4.6301,-4.6301,-4.625,-4.5974,-4.5472,-4.6127,-4.6351,-4.7404,-4.7769,-4.8001,0.0,-4.8332,-4.8829,-4.9591,-5.032,-5.1048,-5.1812,-5.221,-5.2409,-5.2409,-5.2409,-5.2506,0.0,-5.3525,-5.4418,-5.5681,-5.7467,-5.8871,-5.9657,-6.0473,-6.0914,-6.0809,-6.1897,-6.2775,-6.3056,-6.3512,-6.383,-6.3939,-6.348,-6.3073,-6.2745,-6.2156,-6.1628,-6.121,-6.1044,-6.0877,-6.0717,-6.0633,-6.0463,-6.0282,-6.0152,-5.976,-5.9062,-5.8381,-5.7731,-5.7227,-5.6651,-5.6262,-5.5967,-5.5521,-5.527,-5.522,-5.5521,-5.5481,-5.5218,-5.459,-5.4119,-5.3727,-5.3681,-5.3605,-5.35,-5.35,-5.35,-5.35,-5.35,-5.3372,-5.3299,-5.3539,-5.3286,-5.2881,-5.2488,-5.212,-5.1516,-5.049,-5.0219,-5.0002,-4.9558,-4.9504,-4.959,-4.959,-4.959,-4.959,-4.959,-4.959,-4.959,-4.959,-4.959,-4.959,-4.959,-4.959,-4.959,-4.959,-4.9389,-4.9113,-4.8786,-4.8335,-4.7807,-4.7093,-4.6903,-4.6652,-4.6326,-4.6301,-4.6301,-4.6301,-4.6301,-4.62,-4.5974,-4.6577,-4.6959,-4.7868,0.0,0.0,-4.8266,-4.8696,-4.9359,-5.0286,-5.0916,-5.1514,-5.2277,-5.2409,-5.2409,-5.2409,-5.2539,-5.2837,-5.3334,-5.4092,-5.5123,-5.6596,-5.8288,-5.9736,-6.0596,-6.1908,-6.2494,-6.2003,-6.2951,-6.3688,-6.3898,-6.4321,-6.4533,-6.4252,-6.3749,-6.3083,-6.2436,-6.1877,-6.1458,-6.1119,-6.1119,-6.1002,-6.0802,-6.0802,-6.0675,-6.0463,-6.0239,-5.9716,-5.8959,-5.815,-5.737,-5.67,-5.5918,-5.5421,-5.5119,-5.4662,-5.4487,-5.4487,-5.4611,-5.459,-5.4436,-5.3971,-5.3675,-5.3512,-5.3471,-5.35,-5.35,-5.35,-5.35,-5.3448,-5.3424,-5.3266,-5.3144,-5.3423,-5.2909,-5.229,-5.2264,-5.1677,-5.0995,-5.0286,-5.0079,-4.9847,-4.9654,-4.959,-4.959,-4.959,-4.959,-4.959,-4.959,-4.959,-4.959,-4.959,-4.9525,-4.9461,-4.9461,-4.9396,-4.9332,-4.9461,-4.9461,-4.935,-4.9012,-4.8862,-4.841,-4.7606,-4.7305,-4.6954,-4.6552,-4.6376,-4.6301,-4.6301,-4.6301,-4.6301,-4.6301,-4.6815,-4.7412,0.0,0.0,-4.8166,-4.8895,-4.9094,-4.9491,-5.0951,-5.1282,-5.1514,-5.2277,-5.2409,-5.2409,-5.2409,-5.2937,-5.34,-5.34,-5.4959,-5.6298,-5.6765,-5.8734,-6.029,-6.0666,-6.2398,-6.3547,0.0,-6.3547,-6.3898,-6.4636,-6.4498,-6.4252,-6.393,-6.3271,-6.2629,-6.2037,-6.1628,-6.1334,-6.1119,-6.1119,-6.1119,-6.1077,-6.1077,-6.0961,-6.0675,-6.0282,-5.9716,-5.8927,-5.7855,-5.6862,-5.5869,-5.5099,-5.456,-5.4304,-5.3993,-5.389,-5.3919,-5.3658,-5.385,-5.4199,-5.3716,-5.35,-5.35,-5.35,-5.35,-5.35,-5.35,-5.35,-5.3477,-5.316,-5.3054,-5.2902,-5.2351,-5.2432,-5.238,-5.1429,-5.1152,-5.0942,-5.027,-4.9847,-4.959,-4.959,-4.959,-4.959,-4.959,-4.959,-4.959,-4.959,-4.959,-4.959,-4.959,-4.9332,-4.9137,-4.9137,-4.8837,-4.8772,-4.9072,-4.9137,-4.9267,-4.9565,-4.9063,-4.8761,-4.8711,-4.7707,-4.7068,-4.7043,-4.6577,-4.6301,-4.6301,-4.6301,-4.6301,-4.6301,-4.6686,-4.7468,-4.8001,0.0,-4.8796,-4.9061,-4.9823,-5.0684,-5.1183,-5.168,-5.2111,-5.2376,-5.2409,-5.2409,-5.2409,-5.2937,-5.3566,-5.4063,-5.5292,-5.6701,-5.8048,-5.9795,-6.1258,-6.2127,-6.3449,0.0,0.0,0.0,0.0,-6.4498,-6.4323,-6.3967,-6.3457,-6.2973,-6.2397,-6.183,-6.1547,-6.1334,-6.1119,-6.1119,-6.1119,-6.1119,-6.1583,-6.191,-6.195,-6.1153,-6.0186,-5.9139,-5.7604,-5.6329,-5.532,-5.4509,-5.4023,-5.3762,-5.3658,-5.3605,-5.3605,-5.35,-5.3582,-5.3716,-5.3582,-5.35,-5.35,-5.35,-5.35,-5.35,-5.35,-5.35,-5.3477,-5.316,-5.3074,-5.2958,-5.2545,-5.2233,-5.185,-5.1276,-5.0776,-5.0295,-4.9847,-4.9654,-4.959,-4.959,-4.959,-4.959,-4.959,-4.959,-4.959,-4.959,-4.959,-4.959,-4.959,-4.9047,-4.8722,-4.8722,-4.842,-4.8355,-4.8657,-4.8918,-4.9267,-4.959,-4.9414,-4.9163,-4.8786,-4.841,-4.7883,-4.7093,-4.6892,-4.6677,-4.6301,-4.6301,-4.6301,-4.6301,-4.6626,-4.7375,-4.8332,-4.8763,-4.9226,-4.9756,-5.0585,-5.1382,-5.1647,-5.2078,-5.2409,-5.2409,-5.2409,-5.244,-5.2705,-5.3334,-5.4063,-5.4754,-5.6017,-5.736,-5.8714,-6.0437,-6.1912,-6.2787,-6.3939,0.0,0.0,0.0,0.0,-6.4288,-6.4039,-6.3606,-6.3011,-6.2513,-6.2076,-6.1588,-6.1417,-6.121,-6.1119,-6.1351,-6.1616,-6.1881,-6.2259,-6.255,-6.2672,-6.165,-6.0656,-5.9523,-5.7837,-5.6445,-5.5224,-5.4479,-5.3891,-5.35,-5.35,-5.35,-5.35,-5.35,-5.35,-5.35,-5.35,-5.35,-5.35,-5.35,-5.35,-5.35,-5.35,-5.3395,-5.3237,-5.2894,-5.2701,-5.2547,-5.2048,-5.1675,-5.1259,-5.0839,-5.0359,-4.9847,-4.9654,-4.959,-4.959,-4.959,-4.959,-4.959,-4.959,-4.959,-4.959,-4.959,-4.959,-4.959,-4.959,-4.9007,-4.8551,-4.8551,-4.8092,-4.8026,-4.8461,-4.8747,-4.9137,-4.959,-4.959,-4.9439,-4.9088,-4.8887,-4.8435,-4.7732,-4.733,-4.6954,-4.6602,-4.6401,-4.6301,-4.6301,-4.6626,-4.7316,-4.8928,-4.916,-4.9558,-5.0951,-5.1348,-5.1547,-5.2243,-5.2409,-5.2409,-5.2409,-5.2409,-5.2572,0.0,0.0,-5.4721,-5.545,-5.7,-5.8274,-5.869,-6.0697,-6.2247,0.0,0.0,0.0,0.0,0.0,0.0,-6.4039,0.0,-6.3199,-6.2591,-6.1997,-6.1588,-6.1383,-6.1244,-6.1152,-6.1152,-6.1881,-6.2652,-6.3338,-6.3045,-6.2947,-6.2892,-6.1886,-6.0944,-6.0074,-5.8469,-5.7015,-5.5649,-5.4919,-5.4197,-5.3617,-5.3617,-5.3617,-5.3617,-5.3588,-5.3559,-5.3477,-5.353,-5.35,-5.35,-5.35,-5.35,-5.35,-5.3448,-5.3237,-5.2865,-5.2358,-5.2015,-5.1648,-5.096,-5.0733,-5.0571,-5.0168,-4.9847,-4.959,-4.959,-4.959,-4.9615,-4.964,-4.9665,-4.9665,-4.964,-4.9665,-4.9665,-4.9615,-4.9615,-4.9615,-4.959,-4.9032,-4.8576,-4.8576,-4.7984,-4.7852,-4.851,-4.8576,-4.8902,-4.9525,-4.959,-4.959,-4.959,-4.9088,-4.8812,-4.8761,-4.7757,-4.7143,-4.7068,-4.6602,-4.6326,-4.6301,-4.6626,-4.7316,-4.9061,-4.9991,-5.099,-5.1356,-5.1959,-5.2495,-5.252,-5.2553,-5.2551,-5.2409,-5.2409,-5.2572,0.0,0.0,0.0,-5.545,-5.7,0.0,-5.9401,-6.0891,0.0,-6.3475,0.0,-6.4463,-6.4463,-6.4288,0.0,0.0,-6.3087,-6.2783,-6.2195,-6.1716,-6.1383,-6.1169,-6.1658,-6.1914,-6.1914,-6.2685,-6.3285,-6.3837,-6.3715,-6.3576,-6.3297,-6.2171,-6.1007,-5.9842,-5.8257,-5.7027,-5.6149,-5.5723,-5.5313,-5.4923,-5.4923,-5.4923,-5.4865,-5.4429,-5.3921,-5.3501,-5.3482,-5.35,-5.35,-5.35,-5.35,-5.3477,-5.3266,-5.316,-5.2927,-5.2349,-5.2125,-5.1844,-5.0948,-5.0721,-5.0472,-4.9886,-4.9654,-4.959,-4.959,-4.959,-4.9715,-5.0117,-5.0569,-5.072,-5.0268,-5.0569,-5.0569,-4.9715,-4.9941,-5.0067,-4.964,-4.8983,-4.8526,-4.8526,-4.8158,-4.8026,-4.8461,-4.8812,-4.9137,-4.959,-4.959,-4.959,-4.959,-4.9464,-4.9188,-4.8786,-4.8485,-4.7958,-4.7068,-4.6943,-4.6702,-4.6301,-4.6626,-4.7409,-4.9592,-5.0557,-5.1591,-5.2028,-5.2533,-5.2868,-5.2764,-5.2659,-5.2553,-5.2516,-5.2445,0.0,-5.3699,0.0,0.0,0.0,0.0,0.0,-5.9432,-6.0955,-6.2377,0.0,-6.375,0.0,-6.4074,-6.375,-6.3348,0.0,-6.2702,-6.2391,-6.1756,-6.1424,-6.1343,-6.1583,-6.1989,-6.252,-6.3183,-6.345,-6.3914,-6.4506,-6.4021,-6.3631,-6.3292,-6.2038,-6.0989,-5.9942,0.0,-5.7706,-5.6852,-5.6451,-5.6005,-5.5579,-5.5471,-5.5416,-5.5358,-5.5039,-5.467,-5.436,-5.4347,-5.4342,-5.4255,-5.3704,-5.3598,-5.3724,-5.3564,-5.3334,-5.3018,-5.2629,-5.2123,-5.1463,-5.0532,-5.0304,-5.0283,-5.0021,-4.9967,-5.0017,-5.0268,-5.0343,-5.0419,-5.0745,-5.1046,-5.1172,-5.0845,-5.1071,-5.1071,-5.0419,-5.0594,-5.0594,-5.0017,-4.9262,-4.8787,-4.8787,-4.8486,-4.842,-4.8722,-4.9007,-4.9267,-4.959,-4.959,-4.959,-4.959,-4.959,-4.9439,-4.9138,-4.8887,-4.8335,-4.7481,-4.7193,-4.6792,-4.6301,-4.69,-4.7703,-5.0291,-5.1092,-5.1894,-5.2736,-5.2938,-5.2972,-5.2938,-5.2799,-5.2659,-5.2589,0.0,-5.284,-5.4262,-5.449,-5.499,-5.6448,0.0,-5.898,-5.9179,-6.097,-6.2313,-6.2513,-6.3083,-6.3454,-6.3454,-6.3083,-6.274,-6.2474,-6.2313,-6.1957,-6.1424,-6.131,-6.1616,-6.2453,-6.252,-6.314,-6.4454,-6.4266,-6.4383,-6.4872,-6.3926,-6.3228,-6.281,-6.1602,-6.0763,-6.0158,0.0,0.0,-5.7803,-5.7206,-5.6694,-5.6113,-5.5787,-5.5649,-5.5649,-5.5562,-5.5533,-5.5533,-5.5445,-5.5362,-5.5159,-5.4086,-5.3926,-5.409,-5.3927,-5.3443,-5.2986,-5.2798,-5.1916,-5.0847,-4.9996,-4.9926,-5.0164,-5.0383,-5.0469,-5.067,-5.1172,-5.1348,-5.1398,-5.1398,-5.1448,-5.1473,-5.1398,-5.1448,-5.1448,-5.1297,-5.1348,-5.1147,-5.0494,-4.9731,-4.9212,-4.9137,-4.8902,-4.8837,-4.9137,-4.9137,-4.9267,-4.959,-4.959,-4.959,-4.959,-4.959,-4.959,-4.959,-4.9113,-4.856,-4.7908,-4.7456,-4.6928,-4.6386,-4.729,-4.8088,-5.1057,-5.1961,-5.2736,-5.3076,-5.328,-5.3348,-5.3179,-5.311,0.0,0.0,-5.2553,-5.2983,-5.4262,-5.449,-5.499,-5.6448,-5.7939,-5.898,0.0,0.0,-6.1951,0.0,0.0,0.0,0.0,0.0,0.0,0.0,0.0,0.0,-6.1383,-6.1775,-6.2577,-6.3902,-6.3968,-6.4311,-6.4947,-6.4934,-6.4525,-6.3785,-6.3372,-6.2565,-6.15,-6.0784,-6.0189,-5.9636,0.0,0.0,-5.8515,-5.8103,-5.7768,-5.7459,-5.7096,-5.6984,-5.6926,-5.6432,-5.6229,-5.6142,-5.5591,-5.5253,-5.5005,-5.4803,-5.4803,-5.4641,-5.3585,-5.2991,-5.2553,-5.171,-5.0953,-5.0281,-5.0104,-5.019,-5.0358,-5.0393,-5.077,-5.1147,-5.1247,-5.1649,-5.1975,-5.1975,-5.2327,-5.2503,-5.2051,-5.2352,-5.2327,-5.1423,-5.1674,-5.1574,-5.0544,-5.0278,-5.0027,-4.9576,-4.9461,-4.9461,-4.9525,-4.9525,-4.9525,-4.959,-4.959,-4.959,-4.959,-4.959,-4.959,-4.959,-4.9515,-4.8937,-4.7908,-4.7807,-4.7403,-4.6746,-4.7409,-4.8262,-5.1563,-5.2437,-5.311,-5.3314,-5.3416,-5.345,-5.3382,0.0,0.0,0.0,-5.2659,-5.3019,-5.4262,-5.449,0.0,-5.6448,-5.7939,0.0,0.0,0.0,0.0,0.0,0.0,0.0,0.0,0.0,0.0,0.0,0.0,0.0,0.0,-6.223,-6.3282,-6.4299,-6.4597,-6.486,-6.5099,-6.4564,-6.3926,-6.3276,-6.2499,-6.1652,-6.068,-6.0136,-5.966,-5.9261,0.0,0.0,0.0,-5.8555,-5.828,-5.8003,-5.7669,-5.7416,-5.7274,-5.6984,-5.6868,-5.6783,-5.6353,-5.607,-5.5846,-5.5225,-5.4771,-5.4318,-5.3548,-5.2838,-5.2239,-5.1575,-5.082,-5.0205,-5.0394,-5.0373,-5.0569,-5.1147,-5.1724,-5.2126,-5.2126,-5.2352,-5.2528,-5.2528,-5.2754,-5.2854,-5.2578,-5.2754,-5.2754,-5.2226,-5.2126,-5.18,-5.0971,-5.0594,-5.0193,-4.9665,-4.959,-4.959,-4.959,-4.959,-4.959,-4.959,-4.959,-4.959,-4.959,-4.959,-4.959,-4.959,-4.959,-4.9038,-4.7908,-4.7908,-4.754,-4.6806,-4.7736,-4.8758,-5.2135,-5.2775,-5.3247,-5.3484,-5.3551,-5.3551,-5.3584,-5.345,0.0,0.0,-5.2834,-5.3021,-5.4336,-5.4527,-5.499,0.0,-5.7939,-5.8899,0.0,0.0,0.0,0.0,0.0,0.0,0.0,0.0,0.0,0.0,0.0,0.0,0.0,-6.2808,-6.3835,-6.4553,-6.4893,-6.5008,-6.4781,-6.3879,-6.318,-6.2663,-6.1551,-6.068,-6.0106,-5.9606,-5.9315,-5.9099,0.0,0.0,0.0,-5.8773,-5.85,-5.814,-5.7892,-5.7613,-5.7303,-5.7247,-5.7191,-5.7134,-5.6823,-5.6595,-5.6279,-5.5147,-5.4488,-5.3954,-5.3398,-5.2554,-5.181,-5.1413,-5.0691,-5.0063,-5.0539,-5.0635,-5.0896,-5.2026,-5.2603,-5.2929,-5.2929,-5.2929,-5.2929,-5.2929,-5.2929,-5.2929,-5.2929,-5.2929,-5.2879,-5.2779,-5.2377,-5.1875,-5.1172,-5.0695,-5.0193,-4.9665,-4.959,-4.959,-4.959,-4.959,-4.959,-4.959,-4.959,-4.959,-4.959,-4.959,-4.959,-4.959,-4.959,-4.9038,-4.7908,-4.7908,-4.7601,-4.7019,-4.8088,-4.916,-5.3078,-5.3247,-5.3281,-5.3617,-5.3684,-5.3717,-5.3915,0.0,0.0,-5.3416,-5.311,-5.3233,-5.4556,-5.4638,-5.499,-5.6448,-5.7939,-5.8899,0.0,0.0,0.0,0.0,0.0,0.0,0.0,0.0,0.0,0.0,0.0,0.0,0.0,-6.3835,-6.4542,-6.5045,-6.5066,-6.461,-6.369,-6.3324,-6.2516,-6.1379,-6.068,-6.0084,-5.9583,-5.9261,-5.9099,-5.9099,0.0,0.0,0.0,-5.8773,-5.85,-5.814,-5.7892,-5.7613,-5.7247,-5.705,-5.6936,-5.688,-5.625,-5.5643,-5.5029,-5.4318,-5.4291,-5.4176,-5.2692,-5.1731,-5.1094,-5.0449,-4.9937,-4.978,-5.0293,-5.082,-5.1473,-5.2578,-5.2879,-5.2929,-5.2929,-5.2929,-5.2929,-5.2929,-5.2929,-5.2929,-5.2929,-5.2929,-5.2754,-5.2251,-5.2126,-5.1724,-5.0645,-5.0444,-5.0193,-4.9665,-4.959,-4.959,-4.959,-4.959,-4.959,-4.959,-4.959,-4.959,-4.959,-4.959,-4.959,-4.959,-4.959,-4.9038,-4.7908,-4.7908,-4.7759,-4.7645,-4.8294,-4.9388,-5.3741,-5.3848,-5.3848,-5.3979,-5.3913,-5.3915,-5.4076,0.0,-5.3651,-5.3416,-5.3247,-5.3408,-5.4592,-5.4825,-5.5288,-5.6678,-5.8135,0.0,0.0,0.0,0.0,0.0,0.0,0.0,0.0,0.0,0.0,0.0,0.0,0.0,0.0,0.0,-6.4431,-6.5099,-6.4472,-6.3879,-6.3276,-6.2369,-6.1551,-6.0628,-6.0084,-5.9606,-5.9261,-5.9153,-5.9099,0.0,0.0,0.0,0.0,-5.8991,-5.8664,-5.814,-5.7892,-5.7472,-5.6879,-5.6509,-5.6251,-5.5993,-5.5323,-5.4793,-5.4199,-5.32,-5.2685,-5.2289,-5.1695,-5.1031,-5.0423,-4.9912,-4.9719,-4.9816,-5.0695,-5.1599,-5.2377,-5.2829,-5.2929,-5.2929,-5.2929,-5.2929,-5.2929,-5.2929,-5.2653,-5.2427,-5.2427,-5.2151,-5.1875,-5.1649,-5.1322,-5.0921,-5.0469,-5.0117,-4.9841,-4.9615,-4.959,-4.959,-4.959,-4.959,-4.959,-4.959,-4.959,-4.959,-4.959,-4.959,-4.959,-4.959,-4.959,-4.9038,-4.7908,-4.8094,-4.8029,-4.7703,-4.87,-4.9843,-5.4413,-5.4457,-5.4425,-5.4457,-5.4428,-5.4365,0.0,0.0,-5.3913,-5.3683,-5.345,-5.3582,-5.4773,-5.5041,-5.5545,-5.6867,-5.8291,-5.9218,-5.9218,0.0,0.0,0.0,0.0,0.0,0.0,0.0,0.0,0.0,0.0,0.0,0.0,0.0,-6.389,-6.461,-6.3738,-6.3036,-6.2516,-6.145,-6.0659,-6.0084,-5.9606,-5.9261,-5.9099,-5.9099,-5.9099,0.0,0.0,0.0,0.0,-5.8991,-5.8609,-5.8059,-5.7669,-5.7134,-5.6423,-5.5759,-5.5353,-5.4976,-5.4171,-5.3658,-5.3113,-5.2032,-5.1283,-5.0778,-5.0715,-5.0334,-4.9912,-4.9654,-4.9841,-5.0268,-5.1071,-5.2101,-5.2929,-5.2929,-5.2929,-5.2879,-5.2729,-5.2678,-5.2628,-5.2477,-5.2126,-5.185,-5.185,-5.1548,-5.1222,-5.1046,-5.067,-5.0368,-5.0193,-4.9841,-4.959,-4.959,-4.959,-4.959,-4.959,-4.959,-4.959,-4.959,-4.959,-4.959,-4.959,-4.959,-4.959,-4.959,-4.959,-4.9038,-4.7908,-4.8218,-4.8247,-4.7971,-4.9103,-5.0405,-5.5194,-5.5044,-5.4953,-5.5169,-5.5199,-5.5199,0.0,-5.4926,-5.4586,-5.4269,-5.3782,-5.3788,-5.5164,-5.5221,-5.5582,-5.7055,-5.8369,0.0,0.0,0.0,0.0,0.0,0.0,0.0,0.0,0.0,0.0,0.0,0.0,0.0,0.0,0.0,0.0,-6.3516,-6.2987,-6.2252,-6.1226,-6.0628,-6.0031,-5.9529,-5.9207,-5.9099,-5.9099,-5.9099,0.0,0.0,0.0,0.0,0.0,-5.8773,-5.8335,-5.7725,-5.7163,-5.6537,-5.5903,-5.488,-5.4318,-5.3899,-5.2956,-5.2156,-5.1534,-5.0842,-5.0423,-5.0065,-4.9719,-4.959,-4.959,-4.959,-5.0393,-5.1272,-5.1272,-5.2101,-5.2929,-5.2929,-5.2929,-5.2779,-5.2226,-5.2126,-5.195,-5.1398,-5.1297,-5.1297,-5.1297,-5.1272,-5.1096,-5.0519,-5.0419,-5.0218,-4.9665,-4.959,-4.959,-4.959,-4.959,-4.959,-4.959,-4.959,-4.959,-4.959,-4.959,-4.959,-4.959,-4.959,-4.959,-4.959,-4.959,-4.9038,-4.7908,-4.8218,-4.8489,-4.8642,-4.9559,-5.11,-5.5729,-5.5555,-5.5467,-5.5642,-5.5525,-5.5413,-5.5383,-5.5053,-5.4617,-5.4269,-5.3881,-5.3957,-5.52,-5.5469,-5.5977,-5.7278,-5.8681,0.0,0.0,0.0,0.0,0.0,0.0,0.0,0.0,0.0,0.0,0.0,0.0,0.0,0.0,0.0,0.0,-6.2875,-6.2103,-6.1297,-6.0576,-6.0031,-5.9553,-5.9207,-5.9153,-5.9099,-5.9099,0.0,0.0,0.0,0.0,0.0,0.0,-5.85,-5.7892,-5.7107,-5.6193,-5.5498,-5.4821,-5.3625,-5.3139,-5.2895,-5.1908,-5.1283,-5.0842,-5.0423,-5.004,-4.9719,-4.9654,-4.959,-4.959,-4.959,-5.0419,-5.1272,-5.1272,-5.2101,-5.2829,-5.2452,-5.2377,-5.2226,-5.1649,-5.1548,-5.1498,-5.1322,-5.0971,-5.0695,-5.0695,-5.0368,-5.0067,-4.9891,-4.9866,-4.9791,-4.9615,-4.959,-4.959,-4.959,-4.959,-4.959,-4.959,-4.959,-4.959,-4.959,-4.959,-4.959,-4.959,-4.959,-4.959,-4.959,-4.959,-4.9038,-4.7908,-4.8491,-4.915,-4.9843,-5.0989,-5.2059,0.0,-5.6106,-5.6077,-5.6209,-5.607,0.0,-5.5799,-5.5383,-5.4865,-5.4397,-5.4251,-5.4465,-5.5339,-5.5813,-5.6493,-5.7533,-5.8904,0.0,0.0,0.0,0.0,0.0,0.0,0.0,0.0,0.0,0.0,0.0,0.0,0.0,0.0,0.0,0.0,0.0,-6.0546,-6.0258,-6.0031,-5.9583,-5.9261,-5.9099,-5.9099,-5.9099,0.0,0.0,0.0,0.0,0.0,0.0,0.0,-5.7696,-5.7021,-5.6106,-5.5493,-5.4639,-5.3658,-5.2588,-5.2032,-5.1721,-5.0994,-5.0487,-5.0232,-4.9976,-4.9783,-4.959,-4.959,-4.959,-4.959,-4.959,-5.0243,-5.0946,-5.0946,-5.1624,-5.2226,-5.1875,-5.18,-5.1649,-5.1071,-5.0946,-5.0896,-5.0695,-5.0368,-5.0117,-5.0117,-4.9816,-4.959,-4.959,-4.959,-4.959,-4.959,-4.959,-4.959,-4.959,-4.959,-4.959,-4.959,-4.959,-4.959,-4.959,-4.959,-4.959,-4.959,-4.959,-4.959,-4.959,-4.9389,-4.8837,-4.7908,-4.8643,-4.9531,-5.06,-5.1841,-5.268,0.0,-5.66,-5.6653,-5.6786,0.0,0.0,-5.6281,-5.5822,0.0,-5.4689,-5.4859,-5.5247,-5.5684,-5.6359,-5.707,-5.7848,-5.9014,0.0,0.0,0.0,0.0,0.0,0.0,0.0,0.0,0.0,0.0,0.0,0.0,0.0,0.0,0.0,0.0,0.0,0.0,-5.9009,-5.9386,-5.9147,-5.9069,-5.9099,-5.9099,-5.9045,0.0,0.0,0.0,0.0,0.0,0.0,0.0,-5.6566,-5.5731,-5.4884,-5.4745,-5.3761,-5.2359,-5.1652,-5.1027,-5.0422,-5.0041,-4.9746,-4.9464,-4.9464,-4.9464,-4.9464,-4.9464,-4.954,-4.959,-4.959,-4.9992,-5.0419,-5.0419,-5.0845,-5.1272,-5.1222,-5.1222,-5.1071,-5.0469,-5.0368,-5.0218,-4.969,-4.959,-4.959,-4.959,-4.959,-4.959,-4.959,-4.959,-4.959,-4.959,-4.959,-4.959,-4.959,-4.959,-4.959,-4.959,-4.959,-4.959,-4.959,-4.959,-4.959,-4.959,-4.959,-4.959,-4.959,-4.9012,-4.8498,-4.7982,-4.8728,-4.9756,-5.0962,-5.2167,-5.3001,-5.6653,0.0,-5.6653,-5.6881,-5.6786,-5.6519,0.0,-5.5822,-5.5469,-5.5346,-5.5202,-5.5383,-5.6362,-5.6697,-5.7239,-5.8524,-5.9468,0.0,0.0,0.0,0.0,0.0,0.0,0.0,0.0,0.0,0.0,0.0,0.0,0.0,0.0,0.0,0.0,0.0,0.0,0.0,-5.8404,-5.8351,-5.859,-5.9099,-5.8882,0.0,0.0,0.0,0.0,0.0,0.0,0.0,0.0,-5.5673,-5.4633,-5.3539,-5.2761,-5.183,-5.0801,-4.9861,-4.943,-4.9183,-4.8623,-4.8372,-4.8309,-4.8309,-4.8309,-4.8309,-4.8309,-4.8912,-4.959,-4.959,-4.9992,-5.0419,-5.0419,-5.0845,-5.1172,-5.072,-5.0619,-5.0469,-4.9916,-4.9791,-4.9741,-4.9615,-4.959,-4.959,-4.959,-4.959,-4.959,-4.959,-4.959,-4.959,-4.959,-4.959,-4.959,-4.959,-4.959,-4.959,-4.959,-4.959,-4.959,-4.959,-4.959,-4.959,-4.959,-4.959,-4.959,-4.959,-4.8611,-4.8204,-4.8377,-4.8837,-4.987,-5.1238,-5.2221,-5.3001,-5.6626,-5.6707,-5.676,-5.6933,-5.6829,-5.66,-5.6162,0.0,0.0,0.0,0.0,0.0,0.0,0.0,0.0,0.0,-5.9945,0.0,0.0,0.0,0.0,0.0,0.0,0.0,0.0,0.0,0.0,0.0,0.0,0.0,0.0,0.0,0.0,0.0,0.0,0.0,0.0,-5.7504,-5.7577,-5.7827,-5.7557,0.0,0.0,0.0,0.0,0.0,0.0,0.0,-5.4424,-5.3668,-5.277,-5.1847,-5.1196,-5.0435,-4.9594,-4.8794,-4.8451,-4.8404,-4.8032,-4.7908,-4.7908,-4.7908,-4.7908,-4.7908,-4.7908,-4.8335,-4.8887,-4.9138,-4.9615,-5.0042,-5.0042,-5.0268,-5.0419,-5.0117,-5.0042,-4.9967,-4.9665,-4.959,-4.959,-4.959,-4.959,-4.959,-4.959,-4.959,-4.959,-4.959,-4.959,-4.959,-4.959,-4.959,-4.959,-4.959,-4.959,-4.959,-4.959,-4.959,-4.959,-4.959,-4.959,-4.959,-4.959,-4.959,-4.9339,-4.8837,-4.8359,-4.8121,-4.8143,-4.8943,-4.9956,-5.1293,-5.2275,-5.3001,-5.6573,-5.6752,-5.693,-5.6917,-5.6937,-5.6743,-5.6163,0.0,0.0,0.0,0.0,0.0,0.0,0.0,0.0,0.0,0.0,0.0,0.0,0.0,0.0,0.0,0.0,0.0,0.0,0.0,0.0,0.0,0.0,0.0,0.0,0.0,0.0,0.0,0.0,0.0,0.0,0.0,-5.6373,-5.6172,-5.585,-5.5623,0.0,0.0,0.0,0.0,0.0,0.0,-5.2123,-5.148,-5.0863,-5.0247,-4.9962,-4.9395,-4.8702,-4.8166,-4.7911,-4.778,-4.7657,-4.7657,-4.7657,-4.7657,-4.7657,-4.7657,-4.7657,-4.7732,-4.7908,-4.8485,-4.9038,-4.949,-4.9565,-4.959,-4.959,-4.959,-4.959,-4.959,-4.959,-4.959,-4.959,-4.959,-4.959,-4.959,-4.959,-4.959,-4.959,-4.959,-4.959,-4.959,-4.959,-4.959,-4.959,-4.959,-4.959,-4.959,-4.959,-4.959,-4.959,-4.959,-4.959,-4.959,-4.959,-4.9515,-4.8962,-4.7933,-4.8143,-4.8135,-4.7854,-4.9014,-5.0237,-5.1457,-5.2329,-5.3054,-5.6573,-5.6984,-5.7287,-5.677,-5.7047,-5.7262,-5.6776,-5.6895,0.0,0.0,0.0,0.0,0.0,0.0,0.0,0.0,0.0,0.0,0.0,0.0,0.0,0.0,0.0,0.0,0.0,0.0,0.0,0.0,0.0,0.0,0.0,0.0,0.0,0.0,0.0,0.0,0.0,0.0,0.0,-5.5521,-5.5034,-5.451,-5.4008,-5.3499,0.0,0.0,0.0,0.0,-5.148,-5.0797,-5.0208,-4.964,-4.9344,-4.8878,-4.8257,-4.7851,-4.7555,-4.7223,-4.6708,-4.6552,-4.6552,-4.6552,-4.6552,-4.6552,-4.6552,-4.6878,-4.7355,-4.7883,-4.846,-4.9012,-4.9464,-4.959,-4.959,-4.959,-4.959,-4.959,-4.959,-4.959,-4.959,-4.959,-4.959,-4.959,-4.959,-4.959,-4.959,-4.959,-4.959,-4.959,-4.959,-4.959,-4.959,-4.959,-4.959,-4.959,-4.959,-4.959,-4.959,-4.959,-4.959,-4.959,-4.959,-4.9138,-4.8586,-4.7933,-4.7763,-4.7992,-4.8469,-4.9445,-5.0656,-5.2059,-5.2734,-5.3213,-5.6882,-5.7071,-5.7213,-5.7111,-5.7423,-5.7582,-5.7044,-5.7129,0.0,0.0,0.0,0.0,0.0,0.0,0.0,0.0,0.0,0.0,0.0,0.0,0.0,0.0,0.0,0.0,0.0,0.0,0.0,0.0,0.0,0.0,0.0,0.0,0.0,0.0,0.0,0.0,0.0,0.0,0.0,-5.3179,-5.2768,-5.2323,-5.1948,-5.1604,-5.1343,0.0,0.0,-5.0191,-4.9924,-4.9396,-4.9062,-4.8799,-4.8649,-4.8316,-4.788,-4.756,-4.7324,-4.7146,-4.6721,-4.6566,-4.6566,-4.6361,-4.6301,-4.6301,-4.6301,-4.6502,-4.6803,-4.733,-4.8109,-4.8887,-4.9464,-4.959,-4.959,-4.959,-4.959,-4.959,-4.959,-4.959,-4.959,-4.959,-4.959,-4.959,-4.959,-4.959,-4.959,-4.959,-4.959,-4.959,-4.959,-4.959,-4.959,-4.959,-4.959,-4.959,-4.959,-4.959,-4.959,-4.959,-4.959,-4.959,-4.959,-4.9063,-4.851,-4.7908,-4.7871,-4.8128,-4.8584,-4.9673,-5.0934,-5.2221,-5.2841,-5.3213,-5.7121,-5.7181,-5.7203,-5.7545,-5.7814,-5.781,-5.724,-5.7464,0.0,0.0,0.0,0.0,0.0,0.0,0.0,0.0,0.0,0.0,0.0,0.0,0.0,0.0,0.0,0.0,0.0,0.0,0.0,0.0,0.0,0.0,0.0,0.0,0.0,0.0,0.0,0.0,0.0,0.0,0.0,-5.1072,-5.0767,-5.0397,-4.997,-4.997,-4.9881,-4.9558,-4.9297,-4.8942,-4.8548,-4.8315,-4.8172,-4.8172,-4.8172,-4.8055,-4.7762,-4.7442,-4.7265,-4.7146,-4.69,-4.6746,-4.6626,-4.6361,-4.6301,-4.6301,-4.6301,-4.6301,-4.6426,-4.6979,-4.7732,-4.8535,-4.9238,-4.949,-4.959,-4.959,-4.959,-4.959,-4.959,-4.959,-4.959,-4.959,-4.959,-4.959,-4.959,-4.959,-4.959,-4.959,-4.959,-4.959,-4.959,-4.959,-4.959,-4.959,-4.959,-4.959,-4.959,-4.959,-4.959,-4.959,-4.959,-4.954,-4.9414,-4.8862,-4.8309,-4.7732,-4.7911,-4.8236,-4.87,-5.0012,-5.121,-5.2358,-5.2947,-5.3319,-5.6956,-5.7309,-5.7548,-5.7962,-5.807,-5.8004,-5.7637,-5.8015,0.0,-5.9057,0.0,0.0,0.0,0.0,0.0,0.0,0.0,0.0,0.0,0.0,0.0,0.0,0.0,0.0,0.0,0.0,0.0,0.0,0.0,0.0,0.0,0.0,0.0,0.0,0.0,0.0,0.0,0.0,0.0,-5.0461,-4.9953,-4.9381,-4.8859,-4.8859,-4.8658,-4.8309,-4.8309,-4.8283,-4.823,-4.8172,-4.8172,-4.8172,-4.8172,-4.8172,-4.8114,-4.7821,-4.7442,-4.7146,-4.69,-4.6626,-4.6301,-4.6301,-4.6301,-4.6301,-4.6301,-4.6301,-4.6426,-4.6979,-4.7143,-4.7481,-4.856,-4.9213,-4.959,-4.959,-4.959,-4.959,-4.959,-4.959,-4.959,-4.959,-4.959,-4.959,-4.959,-4.959,-4.959,-4.959,-4.959,-4.959,-4.959,-4.959,-4.959,-4.959,-4.959,-4.959,-4.959,-4.959,-4.959,-4.959,-4.959,-4.9364,-4.8862,-4.8284,-4.7732,-4.7143,-4.7504,-4.8198,-4.9072,-5.0517,-5.1704,-5.268,-5.3213,-5.3448,-5.7026,-5.7422,-5.7798,-5.8221,-5.8152,-5.8113,0.0,-5.8717,-5.8979,-5.9651,-6.0118,0.0,0.0,0.0,0.0,0.0,0.0,0.0,0.0,0.0,0.0,0.0,0.0,0.0,0.0,0.0,0.0,0.0,0.0,0.0,0.0,0.0,0.0,0.0,0.0,0.0,0.0,0.0,-4.9125,-4.9328,-4.9125,-4.8837,-4.8373,-4.8373,-4.8315,-4.8172,-4.8172,-4.8172,-4.8172,-4.8172,-4.8172,-4.8172,-4.8172,-4.8172,-4.8172,-4.8055,-4.7821,-4.7442,-4.7172,-4.684,-4.6566,-4.6386,-4.6301,-4.6301,-4.6301,-4.6301,-4.6351,-4.6577,-4.6878,-4.738,-4.8485,-4.8937,-4.9163,-4.9515,-4.959,-4.959,-4.959,-4.959,-4.959,-4.959,-4.959,-4.959,-4.959,-4.959,-4.959,-4.959,-4.959,-4.959,-4.959,-4.959,-4.959,-4.959,-4.959,-4.959,-4.959,-4.959,-4.959,-4.959,-4.959,-4.9339,-4.8786,-4.8209,-4.7657,-4.7093,-4.7513,-4.8146,-4.9072,-5.0573,-5.1759,-5.2734,-5.3266,-5.35,-5.6947,-5.732,-5.7741,-5.8214,-5.823,0.0,-5.9163,-5.9167,-5.9302,-6.0283,-6.1057,0.0,0.0,0.0,0.0,0.0,0.0,0.0,0.0,0.0,0.0,0.0,0.0,0.0,0.0,0.0,0.0,0.0,0.0,0.0,0.0,0.0,0.0,0.0,0.0,0.0,0.0,0.0,-4.8548,-4.8548,-4.8548,-4.8431,-4.8172,-4.8172,-4.8172,-4.8172,-4.8172,-4.8172,-4.8172,-4.8172,-4.8172,-4.8172,-4.8172,-4.8172,-4.8172,-4.8172,-4.7938,-4.7501,-4.7265,-4.6934,-4.6626,-4.6361,-4.6301,-4.6301,-4.6301,-4.6301,-4.6301,-4.6301,-4.6577,-4.7079,-4.8008,-4.851,-4.8912,-4.9464,-4.959,-4.959,-4.959,-4.959,-4.959,-4.959,-4.959,-4.959,-4.959,-4.959,-4.959,-4.959,-4.959,-4.959,-4.959,-4.959,-4.959,-4.959,-4.959,-4.959,-4.959,-4.959,-4.9515,-4.9339,-4.9339,-4.9088,-4.851,-4.7958,-4.7405,-4.7,-4.7555,-4.8321,-4.9244,-5.074,-5.1868,-5.2734,-5.3266,-5.35,-5.6595,-5.6986,-5.7395,0.0,0.0,0.0,-5.9365,-5.9232,-5.9434,-6.0994,0.0,0.0,0.0,0.0,0.0,0.0,0.0,0.0,0.0,0.0,0.0,0.0,0.0,0.0,0.0,0.0,0.0,0.0,0.0,0.0,0.0,0.0,0.0,0.0,0.0,0.0,0.0,0.0,-4.8172,-4.8172,-4.8172,-4.8172,-4.8172,-4.8172,-4.8172,-4.8172,-4.8172,-4.8172,-4.8172,-4.8172,-4.8172,-4.8172,-4.8172,-4.8172,-4.8172,-4.8172,-4.7762,-4.7205,-4.7205,-4.6815,-4.6301,-4.6301,-4.6301,-4.6301,-4.6301,-4.6301,-4.6301,-4.6301,-4.6301,-4.6426,-4.6943,-4.7933,-4.8912,-4.9464,-4.959,-4.959,-4.959,-4.959,-4.959,-4.959,-4.959,-4.959,-4.959,-4.959,-4.959,-4.959,-4.959,-4.959,-4.959,-4.959,-4.959,-4.959,-4.959,-4.959,-4.959,-4.959,-4.9364,-4.8812,-4.8761,-4.851,-4.7933,-4.7405,-4.7,-4.6806,-4.7729,-4.8637,-4.9529,-5.1045,-5.2113,-5.2734,-5.3266,-5.35,-5.603,-5.6632,0.0,0.0,0.0,0.0,0.0,-5.9498,0.0,0.0,0.0,0.0,0.0,0.0,0.0,0.0,0.0,0.0,0.0,0.0,0.0,0.0,0.0,0.0,0.0,0.0,0.0,0.0,0.0,0.0,0.0,0.0,0.0,0.0,0.0,0.0,0.0,0.0,0.0,-4.8172,-4.8172,-4.8172,-4.8172,-4.8172,-4.8172,-4.8172,-4.8172,-4.8172,-4.8172,-4.8172,-4.8172,-4.8172,-4.8172,-4.8172,-4.8172,-4.8172,-4.7938,-4.7501,-4.7265,-4.6934,-4.6626,-4.6386,-4.6301,-4.6301,-4.6301,-4.6301,-4.6301,-4.6301,-4.6301,-4.6426,-4.6943,-4.7657,-4.8309,-4.8887,-4.9314,-4.959,-4.959,-4.959,-4.959,-4.959,-4.959,-4.9525,-4.9267,-4.9267,-4.9137,-4.8902,-4.9072,-4.9332,-4.959,-4.959,-4.959,-4.959,-4.959,-4.959,-4.959,-4.9238,-4.8937,-4.8786,-4.8058,-4.7531,-4.738,-4.7143,-4.7,-4.6806,-4.7729,-4.8637,-4.9529,-5.1045,-5.2113,-5.2734,-5.3266,-5.35,-5.5329,0.0,0.0,0.0,0.0,0.0,0.0,0.0,0.0,0.0,0.0,0.0,0.0,0.0,0.0,0.0,0.0,0.0,0.0,0.0,0.0,0.0,0.0,0.0,0.0,0.0,0.0,0.0,0.0,0.0,0.0,0.0,0.0,0.0,0.0,0.0,0.0,0.0,0.0,0.0,-4.8172,-4.8172,-4.8172,-4.8172,-4.8172,-4.8172,-4.8172,-4.8172,-4.8172,-4.8172,-4.8172,-4.8172,-4.8172,-4.8172,-4.8172,-4.8172,-4.7997,-4.7677,-4.7442,-4.7112,-4.6746,-4.6566,-4.6421,-4.6301,-4.6301,-4.6301,-4.6301,-4.6301,-4.6301,-4.6376,-4.6728,-4.7205,-4.7807,-4.8586,-4.9188,-4.959,-4.959,-4.959,-4.9525,-4.9396,-4.9396,-4.9267,-4.8747,-4.8682,-4.8486,-4.8026,-4.8223,-4.8682,-4.9332,-4.9396,-4.9461,-4.959,-4.959,-4.9515,-4.9289,-4.8962,-4.8586,-4.8159,-4.7506,-4.6968,-4.6803,-4.6803,-4.6834,-4.6959,-4.788,-4.8842,-4.9843,-5.1265,-5.2275,-5.2841,-5.3319,-5.35,-5.4531,0.0,0.0,0.0,0.0,0.0,0.0,0.0,0.0,0.0,0.0,0.0,0.0,0.0,0.0,0.0,0.0,0.0,0.0,0.0,0.0,0.0,0.0,0.0,0.0,0.0,0.0,0.0,0.0,0.0,0.0,0.0,0.0,0.0,0.0,0.0,0.0,0.0,0.0,0.0,0.0,-4.8172,-4.8172,-4.8172,-4.8172,-4.8172,-4.8172,-4.8172,-4.8172,-4.8172,-4.8172,-4.8172,-4.8172,-4.8172,-4.8172,-4.8172,-4.7997,-4.7762,-4.7703,-4.7349,-4.6866,-4.6806,-4.6601,-4.6301,-4.6301,-4.6301,-4.6301,-4.6301,-4.6301,-4.6301,-4.6301,-4.6728,-4.7319,-4.8385,-4.9088,-4.954,-4.9525,-4.9525,-4.9396,-4.9072,-4.8942,-4.8682,-4.796,-4.7828,-4.7563,-4.6941,-4.7165,-4.7762,-4.8812,-4.9007,-4.9202,-4.9525,-4.959,-4.9364,-4.8812,-4.8711,-4.8259,-4.7143,-4.7018,-4.6828,-4.6326,-4.6301,-4.6601,-4.7205,-4.812,-4.9217,-5.0405,-5.1595,-5.2519,-5.3136,-5.3372,-5.35,0.0,-5.4356,0.0,0.0,0.0,0.0,0.0,0.0,0.0,0.0,0.0,0.0,0.0,0.0,0.0,0.0,0.0,0.0,0.0,0.0,0.0,0.0,0.0,0.0,0.0,0.0,0.0,0.0,0.0,0.0,0.0,0.0,0.0,0.0,0.0,0.0,0.0,0.0,0.0,0.0,-4.8172,-4.8172,-4.8172,-4.8172,-4.8172,-4.8172,-4.8172,-4.8172,-4.8172,-4.8172,-4.8172,-4.8172,-4.8172,-4.8172,-4.8172,-4.8172,-4.8114,-4.8055,-4.7821,-4.7645,-4.7409,-4.6959,-4.6746,-4.6626,-4.6386,-4.6301,-4.6301,-4.6301,-4.6301,-4.6301,-4.6301,-4.6728,-4.7082,-4.706,-4.8046,-4.8999,-4.9167,-4.8983,-4.8657,-4.8289,-4.7738,-4.7274,-4.6808,-4.6563,-4.6294,-4.616,-4.6405,-4.6965,-4.7762,-4.833,-4.8787,-4.9202,-4.9461,-4.9364,-4.8812,-4.836,-4.7832,-4.7118,-4.6728,-4.6426,-4.6326,-4.6301,-4.6601,-4.7205,-4.812,-4.9217,-5.0405,-5.1595,-5.2519,-5.3136,-5.3372,-5.35,0.0,0.0,0.0,0.0,0.0,0.0,0.0,0.0,0.0,0.0,0.0,0.0,0.0,0.0,0.0,0.0,0.0,0.0,0.0,0.0,0.0,0.0,0.0,0.0,0.0,0.0,0.0,0.0,0.0,0.0,0.0,0.0,0.0,0.0,0.0,0.0,-4.8172,-4.8172,-4.8172,-4.8172,-4.8172,-4.8172,-4.8172,-4.8172,-4.8172,-4.8172,-4.8172,-4.8172,-4.8172,-4.8172,-4.8172,-4.8172,-4.8172,-4.8172,-4.8172,-4.8172,-4.8172,-4.8198,-4.7997,-4.7821,-4.7645,-4.729,-4.7019,-4.6746,-4.6626,-4.6446,-4.6301,-4.6301,-4.6301,-4.624,-4.612,-4.6138,-4.6228,-4.6106,-4.7206,-4.8263,-4.8238,-4.7962,-4.7648,-4.7274,-4.665,-4.5978,-4.546,-4.4778,-4.4503,-4.4983,-4.5119,-4.5595,-4.6808,-4.7407,-4.7977,-4.8722,-4.8913,-4.8796,-4.841,-4.7857,-4.7305,-4.6778,-4.6476,-4.6301,-4.6301,-4.6446,-4.684,-4.7442,-4.8353,-4.9502,-5.0851,-5.1922,-5.2734,-5.3266,-5.3424,-5.35,0.0,0.0,0.0,0.0,0.0,0.0,0.0,0.0,0.0,0.0,0.0,0.0,0.0,0.0,0.0,0.0,0.0,0.0,0.0,0.0,0.0,0.0,0.0,0.0,0.0,0.0,0.0,0.0,0.0,0.0,0.0,0.0,0.0,0.0,0.0,0.0,-4.8172,-4.8172,-4.8172,-4.8172,-4.8172,-4.8172,-4.8172,-4.8172,-4.8172,-4.8172,-4.8172,-4.8172,-4.8172,-4.8172,-4.8172,-4.8172,-4.8172,-4.8172,-4.8172,-4.8172,-4.8172,-4.8172,-4.8172,-4.7997,-4.7762,-4.7703,-4.729,-4.684,-4.6806,-4.6566,-4.6301,-4.624,-4.618,-4.6059,-4.5696,-4.5367,-4.5073,-4.5164,-4.6012,-4.6851,-4.6916,-4.6693,-4.6473,-4.6069,-4.5369,-4.4618,-4.3952,-4.3049,-4.277,-4.3675,-4.3675,-4.4068,-4.5731,-4.6338,-4.7027,-4.8052,-4.8204,-4.8092,-4.777,-4.738,-4.6903,-4.6351,-4.6301,-4.6301,-4.6301,-4.6626,-4.7138,-4.7854,-4.8726,-4.9843,-5.1293,-5.2221,-5.3001,-5.35,-5.35,-5.35,0.0,0.0,0.0,0.0,0.0,0.0,0.0,0.0,0.0,0.0,0.0,0.0,0.0,0.0,0.0,0.0,0.0,0.0,0.0,0.0,0.0,0.0,0.0,0.0,0.0,0.0,0.0,0.0,0.0,0.0,0.0,0.0,0.0,0.0,0.0,0.0,-4.8172,-4.8172,-4.8172,-4.8172,-4.8172,-4.8172,-4.8172,-4.8172,-4.8172,-4.8172,-4.8172,-4.8172,-4.8172,-4.8172,-4.8172,-4.8172,-4.8172,-4.8172,-4.8172,-4.8172,-4.8172,-4.8172,-4.8172,-4.8172,-4.8055,-4.7821,-4.7442,-4.7087,-4.684,-4.6566,-4.624,-4.5939,-4.5671,-4.5342,-4.5037,-4.4484,-4.395,-4.3647,-4.3398,-4.3659,-4.5395,-4.5404,-4.496,-4.4572,-4.3675,-4.284,-4.237,-4.2159,-4.2159,-4.2278,-4.2559,-4.3049,-4.393,-4.4914,-4.5882,-4.6758,-4.7377,-4.7601,-4.7269,-4.7118,-4.6903,-4.6351,-4.6301,-4.6301,-4.6301,-4.6626,-4.729,-4.8469,-4.9103,-5.0068,-5.1293,-5.2221,-5.3001,-5.35,-5.35,-5.35,-5.0912,0.0,0.0,0.0,0.0,0.0,0.0,0.0,0.0,0.0,0.0,0.0,0.0,0.0,0.0,0.0,0.0,0.0,0.0,0.0,0.0,0.0,0.0,0.0,0.0,0.0,0.0,0.0,0.0,0.0,0.0,-4.9727,-4.9469,-4.9125,-4.8837,0.0,-4.8172,-4.8172,-4.8172,-4.8172,-4.8172,-4.8172,-4.8172,-4.8172,-4.8172,-4.8172,-4.8172,-4.8172,-4.8172,-4.8172,-4.8172,-4.8172,-4.8172,-4.8172,-4.8172,-4.8172,-4.8172,-4.8172,-4.8172,-4.8172,-4.8198,-4.7997,-4.7645,-4.7146,-4.6874,-4.6276,-4.5671,-4.5306,-4.4853,-4.436,-4.4051,-4.3302,-4.261,-4.2252,-4.1781,-4.1595,-4.2548,-4.2995,-4.3068,-4.2726,-4.23,-4.1877,-4.1452,-4.1381,-4.1452,-4.1686,-4.1877,-4.23,-4.3258,-4.3913,-4.4728,-4.5917,-4.6368,-4.6595,-4.681,-4.6731,-4.6577,-4.6326,-4.6301,-4.6301,-4.6301,-4.678,-4.7501,-4.8584,-4.9388,-5.0461,-5.1813,-5.2573,-5.3107,-5.35,-5.35,-5.35,0.0,0.0,0.0,0.0,0.0,0.0,0.0,0.0,0.0,0.0,0.0,0.0,0.0,0.0,0.0,0.0,0.0,0.0,0.0,0.0,0.0,0.0,0.0,0.0,0.0,0.0,0.0,0.0,0.0,0.0,0.0,-4.967,-4.9354,-4.9125,-4.8779,-4.8431,-4.8172,-4.8172,-4.8172,-4.8172,-4.8172,-4.8172,-4.8172,-4.8172,-4.8172,-4.8172,-4.8172,-4.8172,-4.8172,-4.8172,-4.8172,-4.8172,-4.8172,-4.8172,-4.8172,-4.8172,-4.8172,-4.8172,-4.8172,-4.8172,-4.8172,-4.8114,-4.7645,-4.7027,-4.6695,-4.5828,-4.4976,-4.4546,-4.3864,-4.3177,-4.2886,-4.2038,-4.1206,-4.0971,-4.0476,-4.0139,-4.0329,-4.1015,-4.1561,-4.1221,-4.1247,-4.1259,-4.0954,-4.0882,-4.1025,-4.1331,-4.1226,-4.1517,-4.2548,-4.2872,-4.3578,-4.4925,-4.5342,-4.5695,-4.6316,-4.637,-4.6301,-4.6301,-4.6301,-4.6301,-4.6301,-4.6934,-4.7795,-4.87,-4.9786,-5.0934,-5.2167,-5.2787,-5.3213,-5.35,-5.35,-5.35,0.0,-5.0012,0.0,0.0,0.0,0.0,0.0,0.0,0.0,0.0,0.0,0.0,0.0,0.0,0.0,0.0,0.0,0.0,0.0,0.0,0.0,0.0,0.0,0.0,0.0,0.0,0.0,0.0,0.0,0.0,-5.001,-4.9469,-4.9125,-4.9125,-4.8548,-4.8257,-4.8172,-4.8172,-4.8172,-4.8172,-4.8172,-4.8172,-4.8172,-4.8172,-4.8172,-4.8172,-4.8172,-4.8172,-4.8172,-4.8172,-4.8172,-4.8172,-4.8172,-4.8172,-4.8172,-4.8172,-4.8172,-4.8172,-4.8172,-4.8172,-4.8114,-4.7821,-4.7349,-4.6695,-4.607,-4.5159,-4.4237,-4.3553,-4.2696,-4.1806,-4.1486,-4.0625,-3.9779,-3.9779,-3.9276,-3.9021,-3.9925,-4.0492,-4.071,-4.0332,-4.0593,-4.0954,-4.0882,-4.0882,-4.0882,-4.0954,-4.053,-4.0542,-4.1268,-4.1618,-4.2282,-4.3489,-4.4507,-4.5299,-4.577,-4.6145,-4.6301,-4.6301,-4.6301,-4.6301,-4.6301,-4.7172,-4.8088,-4.9072,-5.0517,-5.154,-5.2167,-5.2787,-5.3213,-5.35,-5.35,-5.35,-4.9017,-4.8994,0.0,0.0,0.0,0.0,0.0,0.0,0.0,0.0,0.0,0.0,0.0,0.0,0.0,0.0,0.0,0.0,0.0,0.0,0.0,0.0,0.0,0.0,0.0,0.0,0.0,0.0,0.0,0.0,-5.001,-4.9469,-4.9125,-4.9125,-4.8521,-4.8172,-4.8172,-4.8172,-4.8172,-4.8172,-4.8172,-4.8172,-4.8172,-4.8172,-4.8172,-4.8172,-4.8172,-4.8172,-4.8172,-4.8172,-4.8172,-4.8172,-4.8172,-4.8172,-4.8172,-4.8172,-4.8172,-4.8172,-4.8172,-4.8055,-4.7821,-4.7501,-4.667,-4.5707,-4.5037,-4.3864,-4.261,-4.2125,-4.1271,-4.0431,-4.0301,-3.9648,-3.8991,-3.8747,-3.857,-3.8454,-3.8787,-3.9452,-3.9924,-3.9785,-4.0158,-4.0468,-4.0468,-4.0696,-4.0779,-4.051,-4.0323,-4.0326,-4.0774,-4.1053,-4.175,-4.3309,-4.4152,-4.4911,-4.5721,-4.612,-4.6301,-4.6301,-4.6301,-4.6361,-4.6626,-4.729,-4.8204,-4.9358,-5.0628,-5.1704,-5.2519,-5.3107,-5.3424,-5.35,-5.35,-5.35,-4.8296,-4.7999,0.0,0.0,0.0,0.0,0.0,0.0,0.0,0.0,0.0,0.0,0.0,0.0,0.0,0.0,0.0,0.0,0.0,0.0,0.0,0.0,0.0,0.0,0.0,0.0,0.0,0.0,0.0,0.0,-5.001,-4.9469,-4.901,-4.8837,-4.8405,-4.8172,-4.8172,-4.8172,-4.8172,-4.8172,-4.8172,-4.8172,-4.8172,-4.8172,-4.8172,-4.8172,-4.8172,-4.8172,-4.8172,-4.8172,-4.8172,-4.8172,-4.8172,-4.8172,-4.8172,-4.8172,-4.8114,-4.8055,-4.8055,-4.7762,-4.7349,-4.6849,-4.5949,-4.4792,-4.4051,-4.2673,-4.1421,-4.1057,-4.0192,-3.9386,-3.9386,-3.8946,-3.8503,-3.8258,-3.8191,-3.8191,-3.8191,-3.8771,-3.9241,-3.9241,-3.9612,-3.9992,-3.9992,-4.0241,-4.0323,-4.0034,-3.9798,-3.9848,-4.0308,-4.0645,-4.1503,-4.3096,-4.3992,-4.4792,-4.5696,-4.612,-4.6301,-4.6301,-4.6301,-4.6481,-4.69,-4.7645,-4.8584,-4.9786,-5.0962,-5.2004,-5.2841,-5.3266,-5.35,-5.35,-5.35,-5.35,0.0,0.0,0.0,0.0,0.0,0.0,0.0,0.0,0.0,0.0,0.0,0.0,0.0,0.0,0.0,0.0,0.0,0.0,0.0,0.0,0.0,0.0,0.0,0.0,0.0,0.0,0.0,0.0,0.0,-5.001,-5.001,-4.9412,-4.8837,-4.823,-4.8172,-4.8172,-4.8172,-4.8172,-4.8172,-4.8172,-4.8172,-4.8172,-4.8172,-4.8172,-4.8172,-4.8172,-4.8172,-4.8172,-4.8172,-4.8172,-4.8172,-4.8172,-4.8172,-4.8172,-4.8172,-4.8172,-4.7997,-4.7703,-4.7703,-4.729,-4.6695,-4.5949,-4.5037,-4.4051,-4.3075,-4.1806,-4.0712,-4.0344,-3.9473,-3.8681,-3.8681,-3.8437,-3.8191,-3.8191,-3.8191,-3.8191,-3.8191,-3.8523,-3.8765,-3.8765,-3.9137,-3.9447,-3.9447,-3.9468,-3.9468,-3.9447,-3.9075,-3.9104,-3.9778,-4.041,-4.1335,-4.2713,-4.4027,-4.5061,-4.5757,-4.612,-4.6301,-4.6301,-4.6301,-4.6601,-4.7205,-4.812,-4.9217,-5.0405,-5.1595,-5.2519,-5.3107,-5.3372,-5.35,-5.35,-5.35,-5.35,-4.7495,0.0,0.0,0.0,0.0,0.0,0.0,0.0,0.0,0.0,0.0,0.0,0.0,0.0,0.0,0.0,0.0,0.0,0.0,0.0,0.0,0.0,0.0,0.0,0.0,0.0,0.0,0.0,0.0,-4.9897,-4.9727,-4.9125,-4.8606,-4.8172,-4.8172,-4.8172,-4.8172,-4.8172,-4.8172,-4.8172,-4.8172,-4.8172,-4.8172,-4.8172,-4.8172,-4.8172,-4.8172,-4.8172,-4.8172,-4.8172,-4.8172,-4.8172,-4.8172,-4.8172,-4.8172,-4.7938,-4.7762,-4.756,-4.6909,-4.6431,-4.5889,-4.473,-4.3678,-4.2673,-4.1655,-4.0582,-3.9538,-3.921,-3.8769,-3.8304,-3.8304,-3.8237,-3.8191,-3.8191,-3.8191,-3.8191,-3.8191,-3.8274,-3.8378,-3.8378,-3.873,-3.8972,-3.8972,-3.9261,-3.9364,-3.9013,-3.914,-3.9382,-3.9687,-4.0605,-4.1806,-4.3365,-4.4299,-4.5159,-4.6059,-4.624,-4.6301,-4.6301,-4.6566,-4.6959,-4.7527,-4.8495,-4.9529,-5.0712,-5.1732,-5.2519,-5.3107,-5.3372,-5.35,-5.35,-5.35,-5.35,-4.7452,-4.6931,-4.6446,-4.6102,0.0,0.0,0.0,-4.6339,0.0,0.0,0.0,0.0,0.0,0.0,0.0,0.0,0.0,0.0,0.0,0.0,0.0,0.0,0.0,0.0,0.0,0.0,0.0,0.0,-4.9277,-4.911,-4.8718,-4.8236,-4.781,-4.7466,-4.7466,-4.7466,-4.7466,-4.7466,-4.7466,-4.7466,-4.7466,-4.7466,-4.7492,-4.7728,-4.7832,-4.7832,-4.8068,-4.8172,-4.8172,-4.8172,-4.8172,-4.8172,-4.8172,-4.8172,-4.8172,-4.7821,-4.7527,-4.7172,-4.619,-4.5464,-4.4792,-4.3553,-4.261,-4.1742,-4.0841,-3.9931,-3.9144,-3.8814,-3.8437,-3.8191,-3.8191,-3.8191,-3.8191,-3.8191,-3.8191,-3.8191,-3.8191,-3.8191,-3.8191,-3.8191,-3.8398,-3.8564,-3.8564,-3.8792,-3.8874,-3.8605,-3.89,-3.9242,-3.9625,-4.0884,-4.2229,-4.3615,-4.4669,-4.5489,-4.624,-4.6301,-4.6301,-4.6301,-4.6626,-4.7197,-4.8029,-4.9014,-5.0096,-5.1403,-5.2167,-5.2787,-5.3266,-5.3424,-5.35,-5.35,-5.35,-5.35,-4.7249,-4.7019,-4.68,-4.5882,0.0,0.0,-4.5789,-4.6429,0.0,0.0,0.0,0.0,0.0,0.0,0.0,0.0,0.0,0.0,0.0,0.0,0.0,0.0,0.0,0.0,0.0,0.0,0.0,-4.8192,-4.8137,-4.7918,-4.7449,-4.7033,-4.6754,-4.6529,-4.6473,-4.6473,-4.6473,-4.6473,-4.6473,-4.6473,-4.6473,-4.6473,-4.6499,-4.6996,-4.7174,-4.7257,-4.778,-4.7989,-4.7989,-4.7989,-4.8068,-4.8172,-4.8172,-4.8172,-4.8114,-4.7762,-4.729,-4.6636,-4.5525,-4.4546,-4.3553,-4.2483,-4.1742,-4.1057,-4.0409,-3.967,-3.9078,-3.8747,-3.8437,-3.8191,-3.8191,-3.8191,-3.8191,-3.8191,-3.8191,-3.8191,-3.8191,-3.8191,-3.8191,-3.8191,-3.8191,-3.8191,-3.8191,-3.8191,-3.8191,-3.8258,-3.8549,-3.9057,-3.9779,-4.1377,-4.2799,-4.3802,-4.5061,-4.5939,-4.624,-4.6301,-4.6301,-4.6301,-4.6686,-4.7409,-4.8526,-4.9559,-5.0767,-5.2167,-5.2841,-5.3266,-5.35,-5.35,-5.35,-5.35,-5.35,-5.35,-4.8091,-4.7752,-4.7366,-4.6959,0.0,0.0,-4.677,-4.6674,0.0,0.0,0.0,0.0,0.0,0.0,0.0,0.0,0.0,0.0,0.0,0.0,0.0,0.0,0.0,0.0,0.0,0.0,-4.8192,-4.8192,-4.7808,-4.7504,-4.7393,-4.6866,-4.6529,-4.6473,-4.6473,-4.6473,-4.6473,-4.6473,-4.6473,-4.6473,-4.6473,-4.6473,-4.6473,-4.6604,-4.6656,-4.6656,-4.6761,-4.6813,-4.6813,-4.6813,-4.7362,-4.8172,-4.8172,-4.8172,-4.8114,-4.7501,-4.7087,-4.6576,-4.473,-4.3802,-4.3114,-4.1591,-4.0841,-4.0344,-3.9604,-3.9144,-3.8747,-3.837,-3.8258,-3.8191,-3.8191,-3.8191,-3.8191,-3.8191,-3.8191,-3.8191,-3.8191,-3.8191,-3.8191,-3.8191,-3.8191,-3.8191,-3.8191,-3.8191,-3.8304,-3.8549,-3.9123,-3.9844,-4.0841,-4.2229,-4.349,-4.4484,-4.5306,-4.5939,-4.624,-4.6301,-4.6301,-4.6301,-4.7053,-4.7854,-4.8584,-4.9983,-5.1183,-5.2167,-5.2972,-5.3477,-5.35,-5.35,-5.35,-5.35,-5.35,-5.35,0.0,0.0,0.0,-4.7679,0.0,0.0,0.0,-4.7332,-4.734,0.0,0.0,0.0,0.0,0.0,0.0,0.0,0.0,0.0,0.0,0.0,0.0,0.0,0.0,0.0,0.0,0.0,-4.7297,-4.7136,-4.6759,-4.6433,-4.6324,-4.5886,-4.5611,-4.5611,-4.5611,-4.5611,-4.5611,-4.5611,-4.5611,-4.5611,-4.5611,-4.5611,-4.5611,-4.5924,-4.6055,-4.6081,-4.6342,-4.6473,-4.6473,-4.6473,-4.6813,-4.7336,-4.7336,-4.7519,-4.7638,-4.7056,-4.6679,-4.625,-4.4275,-4.324,-4.2546,-4.0841,-4.0149,-3.9888,-3.9144,-3.8681,-3.8437,-3.8258,-3.8191,-3.8191,-3.8191,-3.8191,-3.8191,-3.8191,-3.8191,-3.8191,-3.8191,-3.8191,-3.8191,-3.8191,-3.8191,-3.8191,-3.8191,-3.8191,-3.8304,-3.8681,-3.9254,-4.017,-4.1421,-4.2736,-4.3927,-4.4915,-4.5671,-4.612,-4.6301,-4.6301,-4.6361,-4.6566,-4.729,-4.8088,-4.8988,-5.0349,-5.1704,-5.3025,-5.35,-5.371,-5.371,-5.371,-5.3605,-5.35,-5.35,-5.35,0.0,0.0,0.0,0.0,0.0,-4.7709,0.0,0.0,0.0,-4.7895,0.0,0.0,0.0,0.0,0.0,0.0,0.0,0.0,0.0,0.0,0.0,0.0,0.0,0.0,0.0,0.0,-4.624,-4.5845,-4.5688,-4.5502,-4.518,-4.4884,-4.4668,-4.4668,-4.4668,-4.4668,-4.4668,-4.4668,-4.4668,-4.4668,-4.4668,-4.4668,-4.4748,-4.5164,-4.5454,-4.548,-4.595,-4.6133,-4.6133,-4.6133,-4.6133,-4.6159,-4.6395,-4.6761,-4.7064,-4.6489,-4.6104,-4.571,-4.3774,-4.2699,-4.1902,-4.0236,-3.9625,-3.9428,-3.8814,-3.8437,-3.8191,-3.8191,-3.8191,-3.8191,-3.8191,-3.8191,-3.8191,-3.8191,-3.8191,-3.8191,-3.8191,-3.8191,-3.8191,-3.8191,-3.8191,-3.8191,-3.8191,-3.8258,-3.8437,-3.8814,-3.9517,-4.0495,-4.1911,-4.3177,-4.436,-4.5281,-4.5939,-4.6301,-4.6301,-4.6301,-4.6446,-4.6806,-4.7468,-4.8379,-4.9586,-5.0962,-5.238,-5.3867,-5.3971,-5.3993,-5.3993,-5.3919,-5.3762,-5.35,-5.35,-5.35,0.0,0.0,0.0,0.0,-4.8355,0.0,0.0,0.0,-4.8013,-4.797,0.0,0.0,0.0,0.0,0.0,0.0,0.0,0.0,0.0,0.0,0.0,0.0,0.0,0.0,0.0,0.0,0.0,-4.5227,-4.5474,-4.5502,-4.518,-4.4884,-4.4668,-4.4668,-4.4668,-4.4668,-4.4668,-4.4668,-4.4668,-4.4668,-4.4668,-4.4668,-4.4668,-4.4746,-4.4826,-4.4826,-4.485,-4.4931,-4.4931,-4.4931,-4.4931,-4.5036,-4.6081,-4.6525,-4.6521,-4.5897,-4.5291,-4.4577,-4.3068,-4.2125,-4.1382,-4.0126,-3.9276,-3.8747,-3.837,-3.8258,-3.8191,-3.8191,-3.8191,-3.8191,-3.8191,-3.8191,-3.8191,-3.8191,-3.8191,-3.8191,-3.8191,-3.8191,-3.8191,-3.8191,-3.8191,-3.8191,-3.8191,-3.8437,-3.888,-3.9517,-4.0453,-4.1614,-4.2949,-4.4051,-4.4976,-4.5696,-4.6059,-4.6301,-4.6301,-4.6301,-4.6446,-4.6806,-4.7854,-4.893,-4.9899,-5.2056,-5.3448,-5.3919,-5.4149,-5.4252,-5.4252,-5.4023,-5.3762,-5.35,-5.35,-5.35,0.0,0.0,0.0,0.0,0.0,0.0,-4.8438,0.0,-4.8343,0.0,0.0,0.0,0.0,0.0,0.0,0.0,0.0,0.0,0.0,0.0,0.0,0.0,0.0,0.0,0.0,0.0,0.0,0.0,0.0,-4.423,-4.3966,-4.3808,-4.3676,-4.3676,-4.4068,-4.4225,-4.4225,-4.4565,-4.4668,-4.4668,-4.4668,-4.4668,-4.4668,-4.4668,-4.4668,-4.4668,-4.4668,-4.4668,-4.4668,-4.4668,-4.4668,-4.4774,-4.5271,-4.5689,-4.5921,-4.5304,-4.4999,-4.4669,-4.3156,-4.2202,-4.1415,-4.001,-3.9193,-3.8681,-3.8549,-3.837,-3.8191,-3.8191,-3.8191,-3.8191,-3.8191,-3.8191,-3.8191,-3.8191,-3.8191,-3.8191,-3.8191,-3.8191,-3.8237,-3.8437,-3.8503,-3.8615,-3.9012,-3.888,-3.9078,-4.017,-4.1035,-4.2125,-4.3678,-4.4607,-4.5367,-4.5999,-4.618,-4.6301,-4.6301,-4.6301,-4.6601,-4.7316,-4.8957,-5.0405,-5.1457,-5.2783,-5.3792,-5.4414,-5.4517,-5.4619,-5.4619,-5.4466,-5.423,-5.3942,-5.3815,-5.3506,-4.8604,0.0,0.0,0.0,0.0,0.0,0.0,0.0,0.0,0.0,0.0,0.0,0.0,0.0,-4.7709,-4.7495,0.0,0.0,0.0,0.0,0.0,0.0,0.0,0.0,0.0,0.0,0.0,0.0,-4.3565,0.0,-4.3023,-4.3023,-4.3023,-4.3023,-4.3415,-4.3624,-4.3624,-4.4042,-4.4198,-4.4198,-4.4198,-4.4198,-4.4198,-4.4198,-4.4198,-4.4198,-4.4198,-4.4356,-4.4487,-4.4487,-4.4591,-4.4668,-4.4668,-4.4929,-4.5155,-4.4682,-4.452,-4.4421,-4.3037,-4.2054,-4.1129,-3.9904,-3.9131,-3.8587,-3.8713,-3.8579,-3.827,-3.8482,-3.8437,-3.8437,-3.8437,-3.8437,-3.8437,-3.837,-3.8304,-3.8304,-3.8304,-3.8304,-3.8437,-3.888,-3.9012,-3.9188,-3.9975,-3.9648,-3.9735,-4.1013,-4.1847,-4.2862,-4.436,-4.5098,-4.5671,-4.624,-4.6301,-4.6301,-4.6301,-4.6361,-4.7019,-4.8262,-5.0181,-5.1704,-5.2783,-5.35,-5.4156,-5.4803,-5.4854,-5.4905,-5.4905,-5.4854,-5.4582,-5.4141,-5.3914,-5.3495,0.0,0.0,0.0,-4.8604,0.0,0.0,0.0,0.0,-4.8604,0.0,0.0,0.0,0.0,-4.8301,-4.8218,-4.8007,-4.7964,0.0,0.0,0.0,0.0,0.0,0.0,0.0,0.0,0.0,0.0,0.0,-4.3429,0.0,-4.3023,-4.3023,-4.3023,-4.3023,-4.3049,-4.3049,-4.3049,-4.3075,-4.3075,-4.3075,-4.3075,-4.3075,-4.3075,-4.3075,-4.3075,-4.3075,-4.3075,-4.3389,-4.3965,-4.3965,-4.4225,-4.4668,-4.4668,-4.4531,-4.4284,-4.4035,-4.3734,-4.3366,-4.2585,-4.1387,-4.0202,-3.9814,-3.9088,-3.8378,-3.8852,-3.8723,-3.857,-3.9016,-3.9144,-3.9144,-3.9144,-3.9144,-3.9078,-3.8747,-3.8681,-3.8681,-3.8681,-3.8681,-3.888,-3.9517,-3.9648,-3.9975,-4.1035,-4.0971,-4.1077,-4.2102,-4.3114,-4.4113,-4.5159,-4.555,-4.5939,-4.624,-4.6301,-4.6301,-4.6301,-4.6626,-4.7703,-4.9786,-5.1348,-5.257,-5.3395,-5.4311,-5.4751,-5.4803,-5.5027,-5.5209,-5.5209,-5.4955,-5.4446,-5.3793,-5.352,-5.3419,0.0,0.0,-4.8604,-4.8604,0.0,0.0,0.0,0.0,0.0,0.0,0.0,0.0,0.0,-4.851,-4.848,-4.8427,-4.8427,-4.8385,0.0,0.0,0.0,0.0,0.0,0.0,0.0,0.0,0.0,-4.3074,-4.2919,-4.2705,0.0,-4.2428,-4.2327,-4.2126,-4.252,-4.2679,-4.2448,-4.284,-4.3023,-4.3023,-4.3023,-4.3023,-4.3023,-4.3023,-4.3023,-4.3023,-4.3023,-4.3127,-4.331,-4.331,-4.331,-4.3307,-4.3307,-4.3353,-4.347,-4.3801,-4.3708,-4.3295,-4.2428,-4.1808,-4.1234,-4.0694,-4.0197,-3.9899,-3.9806,-3.9412,-3.8993,-3.9167,-3.9323,-3.939,-3.939,-3.9628,-3.9801,-3.9451,-3.9386,-3.9386,-3.9386,-3.9386,-3.9648,-4.0582,-4.0948,-4.1399,-4.2443,-4.2925,-4.3177,-4.3302,-4.3989,-4.473,-4.555,-4.5939,-4.618,-4.6301,-4.6301,-4.6386,-4.6626,-4.7821,-4.916,-5.0434,-5.1948,-5.3155,-5.3993,-5.4517,-5.4905,-5.5027,-5.5128,-5.5179,-5.5179,-5.466,-5.4281,-5.4013,-5.3049,-5.2486,-5.0051,-4.9528,0.0,0.0,-4.8789,0.0,-4.8604,0.0,0.0,0.0,0.0,0.0,0.0,-4.8604,-4.8604,-4.8604,-4.8604,-4.8521,0.0,-4.8301,0.0,0.0,0.0,0.0,0.0,0.0,-4.4059,-4.3566,-4.3136,-4.2776,0.0,0.0,-4.2338,-4.1993,-4.2392,-4.2378,-4.1999,-4.2366,-4.2524,-4.2422,-4.2422,-4.2422,-4.2422,-4.2422,-4.2422,-4.2422,-4.2422,-4.2475,-4.258,-4.258,-4.2528,-4.2473,-4.2473,-4.2494,-4.2636,-4.3223,-4.3365,-4.3184,-4.2457,-4.2111,-4.1885,-4.1338,-4.0928,-4.0694,-4.0638,-4.0236,-3.9853,-3.991,-4.0016,-4.0119,-4.017,-4.0459,-4.0598,-4.0452,-4.0431,-4.0431,-4.0431,-4.056,-4.0884,-4.1806,-4.2316,-4.2799,-4.3678,-4.4299,-4.4607,-4.436,-4.4792,-4.5367,-4.5878,-4.618,-4.6301,-4.6301,-4.6301,-4.6541,-4.7197,-4.8784,-5.0125,-5.121,-5.2594,-5.371,-5.4436,-5.4773,-5.5027,-5.5179,-5.497,-5.485,-5.485,-5.4162,-5.3713,-5.3473,-5.2606,-5.1972]},{"header":{"parameterUnit":"m.s-1","parameterCategory":1,"la1":30.6,"la2":29.2853,"lo1":-89.7004,"lo2":-87.6739,"dy":0.0162,"dx":0.0183,"nx":112,"ny":82,"refTime":"2023-06-11T12:00:00:Z","depth":0,"parameterNumber":3,"parameterNumberName":"V-component_of_WINDS"},"data":[0.0,0.0,0.0,0.0,0.0,0.0,0.0,0.0,0.0,0.0,0.0,0.0,0.0,0.0,0.0,0.0,0.0,0.0,0.0,0.0,0.0,0.0,0.0,0.0,0.0,0.0,0.0,0.0,0.0,0.0,0.0,0.0,0.0,0.0,0.0,0.0,0.0,0.0,0.0,0.0,0.0,0.0,0.0,0.0,0.0,0.0,0.0,0.0,0.0,0.0,0.0,0.0,0.0,0.0,0.0,0.0,0.0,0.0,0.0,0.0,0.0,0.0,0.0,0.0,0.0,0.0,0.0,0.0,0.0,0.0,0.0,0.0,0.0,0.0,0.0,0.0,0.0,0.0,0.0,0.0,0.0,0.0,0.0,0.0,0.0,0.0,0.0,0.0,0.0,0.0,0.0,-3.1783,-3.1761,-3.1812,-3.1812,-3.1539,-3.1396,-3.1716,0.0,0.0,0.0,0.0,0.0,0.0,0.0,0.0,0.0,0.0,0.0,0.0,0.0,0.0,0.0,0.0,0.0,0.0,0.0,0.0,0.0,0.0,0.0,0.0,0.0,0.0,0.0,0.0,0.0,0.0,0.0,0.0,0.0,0.0,0.0,0.0,0.0,0.0,0.0,0.0,0.0,0.0,0.0,0.0,0.0,0.0,0.0,0.0,0.0,0.0,0.0,0.0,0.0,0.0,0.0,0.0,0.0,0.0,0.0,0.0,0.0,0.0,0.0,0.0,0.0,0.0,0.0,0.0,0.0,0.0,0.0,0.0,0.0,0.0,0.0,0.0,0.0,0.0,0.0,0.0,0.0,0.0,0.0,0.0,0.0,0.0,0.0,0.0,0.0,0.0,0.0,0.0,0.0,0.0,0.0,0.0,0.0,0.0,0.0,0.0,0.0,0.0,0.0,0.0,-3.2823,-3.2672,-3.2622,-3.27,-3.2951,-3.3082,-3.3284,-3.3581,0.0,0.0,0.0,0.0,0.0,0.0,0.0,0.0,0.0,0.0,0.0,0.0,0.0,0.0,0.0,0.0,0.0,0.0,0.0,0.0,0.0,0.0,0.0,0.0,0.0,0.0,0.0,0.0,0.0,0.0,0.0,0.0,0.0,0.0,0.0,0.0,0.0,0.0,0.0,0.0,0.0,0.0,0.0,0.0,0.0,0.0,0.0,0.0,0.0,0.0,0.0,0.0,0.0,0.0,0.0,0.0,0.0,0.0,0.0,0.0,0.0,0.0,0.0,0.0,0.0,0.0,0.0,0.0,0.0,0.0,0.0,0.0,0.0,0.0,0.0,0.0,0.0,0.0,0.0,0.0,0.0,0.0,0.0,0.0,0.0,0.0,0.0,0.0,0.0,0.0,0.0,0.0,0.0,0.0,0.0,0.0,0.0,0.0,0.0,0.0,0.0,0.0,0.0,-3.4819,-3.4738,-3.4764,-3.4503,-3.4385,-3.4483,-3.4629,-3.4727,-3.4872,-3.415,0.0,0.0,0.0,0.0,0.0,0.0,0.0,0.0,0.0,0.0,0.0,0.0,0.0,0.0,0.0,0.0,0.0,0.0,0.0,0.0,0.0,0.0,0.0,0.0,0.0,0.0,0.0,0.0,0.0,0.0,0.0,0.0,0.0,0.0,0.0,0.0,0.0,0.0,0.0,0.0,0.0,0.0,0.0,0.0,0.0,0.0,0.0,0.0,0.0,0.0,0.0,0.0,0.0,0.0,0.0,0.0,0.0,0.0,0.0,0.0,0.0,0.0,0.0,0.0,0.0,0.0,0.0,0.0,0.0,0.0,0.0,0.0,0.0,0.0,0.0,0.0,0.0,0.0,0.0,0.0,0.0,0.0,0.0,0.0,0.0,0.0,0.0,0.0,0.0,0.0,0.0,0.0,0.0,0.0,0.0,0.0,0.0,0.0,0.0,0.0,0.0,0.0,-3.6676,-3.6555,-3.6776,-3.6378,-3.6056,-3.6056,-3.598,-3.5953,-3.5953,-3.6143,0.0,0.0,0.0,0.0,0.0,0.0,0.0,0.0,0.0,0.0,0.0,0.0,0.0,0.0,0.0,0.0,0.0,0.0,0.0,0.0,0.0,0.0,0.0,0.0,0.0,0.0,0.0,0.0,0.0,0.0,0.0,0.0,0.0,0.0,0.0,0.0,0.0,0.0,0.0,0.0,0.0,0.0,0.0,0.0,0.0,0.0,0.0,0.0,0.0,0.0,0.0,0.0,0.0,0.0,0.0,0.0,0.0,0.0,0.0,0.0,0.0,0.0,0.0,0.0,0.0,0.0,0.0,0.0,0.0,0.0,0.0,0.0,0.0,0.0,0.0,0.0,0.0,0.0,0.0,0.0,0.0,0.0,0.0,0.0,0.0,0.0,0.0,0.0,0.0,0.0,0.0,0.0,0.0,0.0,0.0,0.0,0.0,0.0,0.0,0.0,0.0,0.0,-3.7965,-3.7939,-3.7989,-3.7657,-3.7473,-3.7473,-3.718,-3.7015,-3.7015,-3.7015,0.0,0.0,0.0,0.0,0.0,0.0,0.0,0.0,0.0,0.0,0.0,0.0,0.0,0.0,0.0,0.0,0.0,0.0,0.0,0.0,0.0,0.0,0.0,0.0,0.0,0.0,0.0,0.0,0.0,0.0,0.0,0.0,0.0,0.0,0.0,0.0,0.0,0.0,0.0,0.0,0.0,0.0,0.0,0.0,0.0,0.0,0.0,0.0,0.0,0.0,0.0,0.0,0.0,0.0,0.0,0.0,0.0,0.0,0.0,0.0,0.0,0.0,0.0,0.0,0.0,0.0,0.0,0.0,0.0,0.0,0.0,0.0,0.0,0.0,0.0,0.0,0.0,0.0,0.0,0.0,0.0,0.0,0.0,0.0,0.0,0.0,0.0,0.0,0.0,0.0,0.0,0.0,0.0,0.0,0.0,0.0,0.0,0.0,0.0,0.0,0.0,0.0,-3.9543,-3.9362,0.0,-3.9117,-3.8855,-3.8855,-3.8744,-3.8506,-3.8117,0.0,0.0,0.0,0.0,0.0,0.0,0.0,0.0,0.0,0.0,0.0,0.0,0.0,0.0,0.0,0.0,0.0,0.0,0.0,0.0,0.0,0.0,0.0,0.0,0.0,0.0,0.0,0.0,0.0,0.0,0.0,0.0,0.0,0.0,0.0,0.0,0.0,0.0,0.0,0.0,0.0,0.0,0.0,0.0,0.0,0.0,0.0,0.0,0.0,0.0,0.0,0.0,0.0,0.0,0.0,0.0,0.0,0.0,0.0,0.0,0.0,0.0,0.0,0.0,0.0,0.0,0.0,0.0,0.0,0.0,0.0,0.0,0.0,0.0,0.0,0.0,0.0,0.0,0.0,0.0,0.0,0.0,0.0,0.0,0.0,0.0,0.0,0.0,0.0,0.0,0.0,0.0,0.0,0.0,0.0,0.0,0.0,0.0,0.0,0.0,0.0,0.0,-4.0997,-4.0659,-4.0475,0.0,-4.02,-3.986,-3.986,-3.9703,-3.9442,-3.9024,0.0,0.0,0.0,0.0,0.0,0.0,0.0,0.0,0.0,0.0,0.0,0.0,0.0,0.0,0.0,0.0,0.0,0.0,0.0,0.0,0.0,0.0,0.0,0.0,0.0,0.0,0.0,0.0,0.0,0.0,0.0,0.0,0.0,0.0,0.0,0.0,0.0,0.0,0.0,0.0,0.0,0.0,0.0,0.0,0.0,0.0,0.0,0.0,0.0,0.0,0.0,0.0,0.0,0.0,0.0,0.0,0.0,0.0,0.0,0.0,0.0,0.0,0.0,0.0,0.0,0.0,0.0,0.0,0.0,0.0,0.0,0.0,0.0,0.0,0.0,0.0,0.0,0.0,0.0,0.0,0.0,0.0,0.0,0.0,0.0,0.0,0.0,0.0,0.0,0.0,0.0,0.0,0.0,0.0,0.0,0.0,0.0,0.0,0.0,0.0,0.0,0.0,-4.1274,-4.1324,-4.1324,-4.1324,-4.0775,-4.0435,-4.0435,-3.9939,-3.9625,0.0,0.0,0.0,0.0,0.0,0.0,0.0,0.0,0.0,0.0,0.0,0.0,0.0,0.0,0.0,0.0,0.0,0.0,0.0,0.0,0.0,0.0,0.0,0.0,0.0,0.0,0.0,0.0,0.0,0.0,0.0,0.0,0.0,0.0,0.0,0.0,0.0,0.0,0.0,0.0,0.0,0.0,0.0,0.0,0.0,0.0,0.0,0.0,0.0,0.0,0.0,0.0,0.0,0.0,0.0,0.0,0.0,0.0,0.0,0.0,0.0,0.0,0.0,0.0,0.0,0.0,0.0,0.0,0.0,0.0,0.0,0.0,0.0,0.0,0.0,0.0,0.0,0.0,0.0,0.0,0.0,0.0,0.0,0.0,0.0,0.0,0.0,0.0,0.0,0.0,0.0,0.0,0.0,0.0,0.0,0.0,0.0,0.0,0.0,0.0,0.0,0.0,0.0,-4.1274,-4.1324,-4.1324,-4.1324,-4.1167,-4.1063,-4.1063,-4.0906,-4.0644,-4.02,0.0,0.0,0.0,0.0,0.0,0.0,0.0,0.0,0.0,0.0,0.0,0.0,0.0,0.0,0.0,0.0,0.0,0.0,0.0,0.0,0.0,0.0,0.0,0.0,0.0,0.0,0.0,0.0,0.0,0.0,0.0,0.0,0.0,0.0,0.0,0.0,0.0,0.0,0.0,0.0,0.0,0.0,0.0,0.0,0.0,0.0,0.0,0.0,0.0,0.0,0.0,0.0,0.0,0.0,0.0,0.0,0.0,0.0,0.0,0.0,0.0,0.0,0.0,0.0,0.0,0.0,0.0,0.0,0.0,0.0,0.0,0.0,0.0,0.0,0.0,0.0,0.0,0.0,0.0,0.0,0.0,0.0,0.0,0.0,0.0,0.0,0.0,0.0,0.0,0.0,0.0,0.0,0.0,0.0,0.0,0.0,0.0,0.0,0.0,0.0,0.0,0.0,-4.2359,-4.2257,-4.2156,-4.2156,-4.1845,-4.1664,-4.1664,-4.1455,-4.1167,-4.0801,0.0,0.0,0.0,0.0,0.0,0.0,0.0,0.0,0.0,0.0,0.0,0.0,0.0,0.0,0.0,0.0,0.0,0.0,0.0,0.0,0.0,0.0,0.0,0.0,0.0,0.0,0.0,0.0,0.0,0.0,0.0,0.0,0.0,0.0,0.0,0.0,0.0,0.0,0.0,0.0,0.0,0.0,0.0,0.0,0.0,0.0,0.0,0.0,0.0,0.0,0.0,0.0,0.0,0.0,0.0,0.0,0.0,0.0,0.0,0.0,0.0,0.0,0.0,0.0,0.0,0.0,0.0,0.0,0.0,0.0,0.0,0.0,0.0,0.0,0.0,0.0,0.0,0.0,0.0,0.0,0.0,0.0,0.0,0.0,0.0,0.0,0.0,0.0,0.0,0.0,0.0,0.0,0.0,0.0,0.0,0.0,0.0,0.0,0.0,0.0,0.0,0.0,-4.3953,-4.3774,-4.3568,-4.3568,-4.281,-4.2341,-4.2341,-4.1869,-4.1505,-4.1452,0.0,0.0,0.0,0.0,0.0,0.0,0.0,0.0,0.0,0.0,0.0,0.0,0.0,0.0,0.0,0.0,0.0,0.0,0.0,0.0,0.0,0.0,0.0,0.0,0.0,0.0,0.0,0.0,0.0,0.0,0.0,0.0,0.0,0.0,0.0,0.0,0.0,0.0,0.0,0.0,0.0,0.0,0.0,0.0,0.0,0.0,0.0,0.0,0.0,0.0,0.0,0.0,0.0,0.0,0.0,0.0,0.0,0.0,0.0,0.0,-2.8116,0.0,0.0,0.0,0.0,0.0,0.0,0.0,0.0,0.0,0.0,0.0,0.0,0.0,0.0,0.0,0.0,0.0,0.0,0.0,0.0,0.0,0.0,0.0,0.0,0.0,0.0,0.0,0.0,0.0,0.0,0.0,0.0,0.0,0.0,0.0,0.0,0.0,0.0,0.0,0.0,0.0,-4.4513,-4.431,-4.4106,-4.4106,-4.3795,-4.351,-4.351,-4.3404,-4.3037,-4.2359,-4.2332,0.0,0.0,0.0,0.0,0.0,0.0,0.0,0.0,0.0,0.0,0.0,0.0,0.0,0.0,0.0,0.0,0.0,0.0,0.0,0.0,0.0,0.0,0.0,0.0,0.0,0.0,0.0,0.0,0.0,0.0,0.0,0.0,0.0,0.0,0.0,0.0,0.0,0.0,0.0,0.0,0.0,0.0,0.0,0.0,0.0,0.0,0.0,0.0,0.0,0.0,0.0,0.0,0.0,0.0,0.0,0.0,0.0,0.0,0.0,0.0,-2.8719,0.0,0.0,0.0,0.0,0.0,0.0,0.0,0.0,0.0,0.0,0.0,0.0,0.0,0.0,0.0,0.0,0.0,0.0,0.0,0.0,0.0,0.0,0.0,0.0,0.0,0.0,0.0,0.0,0.0,0.0,0.0,0.0,0.0,0.0,0.0,0.0,0.0,0.0,0.0,0.0,-4.6472,-4.6243,-4.604,-4.5966,-4.5465,-4.502,-4.4918,-4.4648,-4.4148,-4.3448,-4.3131,0.0,0.0,0.0,0.0,0.0,0.0,0.0,0.0,0.0,0.0,0.0,0.0,0.0,0.0,0.0,0.0,0.0,0.0,0.0,0.0,0.0,0.0,0.0,0.0,0.0,0.0,0.0,0.0,0.0,0.0,0.0,0.0,0.0,0.0,0.0,0.0,0.0,0.0,0.0,0.0,0.0,0.0,0.0,0.0,0.0,0.0,0.0,0.0,0.0,0.0,0.0,0.0,0.0,0.0,0.0,-3.1543,-3.2023,-3.2358,-3.253,-3.1265,-3.0334,-2.9766,0.0,0.0,0.0,0.0,0.0,0.0,0.0,0.0,0.0,0.0,0.0,0.0,0.0,0.0,0.0,0.0,0.0,0.0,0.0,0.0,0.0,0.0,0.0,0.0,0.0,-4.4668,-4.4668,0.0,0.0,0.0,0.0,0.0,0.0,0.0,0.0,0.0,0.0,0.0,0.0,-4.8994,-4.8764,-4.8511,-4.8336,-4.7605,-4.7017,-4.6652,-4.6183,-4.5546,-4.4776,-4.4188,-4.3641,0.0,0.0,0.0,0.0,0.0,0.0,0.0,0.0,0.0,0.0,0.0,0.0,0.0,0.0,0.0,0.0,0.0,0.0,0.0,0.0,0.0,0.0,0.0,0.0,0.0,0.0,0.0,0.0,0.0,0.0,0.0,0.0,-2.3186,-2.3545,0.0,0.0,0.0,0.0,0.0,0.0,0.0,0.0,0.0,0.0,0.0,0.0,0.0,0.0,-2.822,-2.9068,-3.0044,-3.1049,-3.2199,-3.2922,-3.3318,-3.3888,-3.4134,-3.419,-3.3966,0.0,-3.1381,-3.082,0.0,0.0,0.0,0.0,0.0,0.0,0.0,0.0,0.0,0.0,0.0,0.0,0.0,0.0,0.0,0.0,0.0,0.0,0.0,0.0,0.0,0.0,-4.4313,-4.4613,-4.4668,-4.4668,0.0,-4.4668,-4.4668,-4.4668,0.0,0.0,0.0,0.0,0.0,0.0,0.0,0.0,-5.1121,-5.094,-5.0787,-5.0736,-5.0446,-4.9984,-4.9313,-4.8997,-4.8134,-4.6545,-4.6155,-4.5426,-4.4101,-4.3486,0.0,0.0,0.0,0.0,0.0,0.0,0.0,0.0,0.0,0.0,0.0,0.0,0.0,0.0,0.0,0.0,0.0,0.0,0.0,0.0,0.0,0.0,0.0,0.0,0.0,0.0,0.0,0.0,0.0,-2.334,-2.358,-2.3939,-2.3973,-2.4145,0.0,0.0,0.0,0.0,0.0,0.0,0.0,0.0,0.0,-2.6476,-2.7329,-2.8355,-2.9521,-3.0777,-3.1889,-3.2815,-3.3762,-3.4345,-3.4624,-3.4902,-3.5069,-3.5235,-3.5069,-3.4602,-3.3909,-3.2607,-3.192,-3.1612,0.0,0.0,0.0,0.0,0.0,0.0,-3.3275,0.0,0.0,0.0,0.0,0.0,0.0,0.0,0.0,0.0,0.0,0.0,0.0,0.0,0.0,-4.4668,-4.4668,-4.4772,-4.5111,-4.5245,-4.514,0.0,-4.539,-4.606,-4.7216,0.0,0.0,0.0,0.0,-5.1837,-5.2238,-5.2188,-5.2009,-5.1909,-5.1758,-5.154,-5.1099,-5.0919,-5.0213,-4.8773,-4.8154,-4.7203,-4.5788,-4.4984,-4.4094,0.0,0.0,0.0,0.0,0.0,0.0,0.0,0.0,0.0,0.0,0.0,0.0,0.0,0.0,0.0,0.0,0.0,0.0,0.0,0.0,0.0,0.0,0.0,0.0,0.0,0.0,0.0,0.0,-2.3836,-2.3973,-2.4279,-2.433,-2.4504,0.0,0.0,0.0,0.0,0.0,0.0,-2.5515,-2.5874,-2.6375,-2.7081,-2.8111,-2.9289,-3.0606,-3.217,-3.331,-3.4134,-3.4847,-3.5312,-3.5533,-3.5588,-3.573,-3.5918,-3.5834,-3.5934,-3.5967,-3.4255,-3.348,-3.3254,-3.2721,-3.2607,0.0,-3.314,-3.3445,-3.3727,-3.3952,-3.4302,-3.4712,-3.5294,0.0,-3.6556,-3.7385,0.0,0.0,0.0,0.0,-4.3048,-4.3819,0.0,-4.4774,-4.4877,-4.4903,-4.5114,-4.5715,-4.5846,-4.577,0.0,-4.6136,-4.6946,-4.8213,0.0,0.0,-5.2071,-5.2708,-5.3089,-5.3367,-5.3417,-5.3337,-5.3138,-5.3138,-5.295,-5.2573,-5.2523,-5.198,-5.0838,-5.0125,-4.913,-4.7756,-4.6839,-4.573,-4.428,0.0,0.0,0.0,0.0,0.0,0.0,0.0,0.0,0.0,0.0,0.0,0.0,0.0,0.0,0.0,0.0,0.0,0.0,0.0,0.0,0.0,0.0,0.0,0.0,0.0,0.0,0.0,0.0,0.0,-2.4744,-2.4795,0.0,0.0,0.0,0.0,-2.54,-2.5703,-2.585,-2.585,-2.6251,-2.6769,-2.7434,-2.8659,-2.9982,-3.1227,-3.2778,-3.3875,-3.4457,-3.5345,-3.5785,-3.5808,-3.6114,-3.6277,-3.63,-3.6727,-3.6933,-3.6855,-3.5435,-3.4869,-3.4869,-3.4491,-3.4357,-3.4435,-3.4736,-3.4869,-3.4924,-3.5202,-3.5312,-3.5513,-3.6474,-3.7493,-3.8455,-3.9344,-4.0106,0.0,0.0,-4.3073,-4.3903,-4.4203,-4.4476,-4.4824,-4.5399,-4.5529,-4.5741,-4.6316,-4.6421,-4.6533,0.0,-4.726,-4.8273,-4.999,0.0,-5.2167,-5.3892,-5.445,-5.4786,-5.5039,-5.5089,-5.5089,-5.5039,-5.5039,-5.48,-5.4142,-5.3833,-5.3287,-5.2358,-5.2021,-5.13,-5.009,-4.9259,-4.8162,-4.6668,-4.5563,0.0,0.0,0.0,0.0,0.0,0.0,0.0,0.0,0.0,0.0,0.0,0.0,0.0,0.0,0.0,0.0,0.0,0.0,0.0,0.0,0.0,0.0,0.0,0.0,0.0,0.0,0.0,0.0,-2.4812,-2.5035,0.0,0.0,-2.5515,-2.5737,-2.5737,-2.608,-2.6285,-2.6285,-2.6662,-2.7167,-2.7807,-2.9043,-3.0353,-3.1632,-3.3346,-3.4644,-3.5613,-3.6284,-3.6777,-3.7074,-3.7186,-3.7242,-3.7265,-3.7448,-3.7517,-3.7494,-3.6996,-3.6703,-3.6534,-3.6171,-3.6036,-3.6036,-3.6171,-3.6228,-3.6228,-3.6341,-3.6341,-3.6453,-3.7126,-3.8114,-3.9072,-3.9638,-4.0629,-4.1777,-4.2544,-4.3462,-4.4281,-4.4999,-4.5213,-4.5454,-4.6029,-4.6186,-4.6342,-4.6891,-4.7193,-4.7581,-4.8462,-4.8671,-4.9146,-5.0722,-5.1995,-5.3262,-5.4458,-5.4875,-5.5108,-5.5209,-5.5179,-5.5179,-5.5179,-5.5179,-5.5089,-5.485,-5.477,-5.4401,-5.3645,-5.3307,-5.2712,-5.1637,-5.0776,-4.9742,-4.841,-4.7468,-4.6308,0.0,0.0,0.0,0.0,0.0,0.0,0.0,0.0,0.0,0.0,0.0,0.0,0.0,0.0,0.0,0.0,0.0,0.0,0.0,0.0,0.0,0.0,0.0,0.0,0.0,0.0,-2.4975,-2.4984,-2.5223,-2.5429,-2.5549,-2.5908,-2.6131,-2.6131,-2.6473,-2.6679,-2.6679,-2.6936,-2.7435,-2.814,-2.9443,-3.08,-3.2142,-3.4012,-3.5486,-3.6465,-3.7007,-3.7471,-3.7793,-3.7793,-3.7793,-3.7793,-3.7976,-3.8045,-3.8068,-3.8229,-3.8183,-3.7987,-3.7393,-3.72,-3.72,-3.72,-3.72,-3.72,-3.72,-3.7313,-3.7517,-3.795,-3.8755,-3.972,-4.0397,-4.1556,-4.2818,-4.3518,-4.4339,-4.5207,-4.5764,-4.5924,-4.6055,-4.663,-4.6761,-4.6917,-4.7634,-4.7968,-4.8475,-4.9646,-4.9769,-5.0161,-5.1623,-5.2867,-5.3942,-5.4773,-5.5108,-5.5179,-5.5179,-5.5179,-5.5179,-5.5179,-5.5179,-5.5179,-5.5179,-5.5179,-5.4999,-5.4581,-5.4371,-5.3923,-5.304,-5.2378,-5.1473,-5.0377,-4.9026,-4.7693,-4.6357,0.0,0.0,0.0,0.0,0.0,0.0,0.0,0.0,0.0,0.0,0.0,0.0,0.0,0.0,0.0,0.0,0.0,0.0,0.0,0.0,0.0,0.0,0.0,-2.5459,-2.5238,-2.5284,-2.54,-2.5451,-2.5549,-2.5867,-2.6285,-2.6508,-2.6508,-2.6867,-2.7073,-2.709,-2.709,-2.7574,-2.8517,-2.9901,-3.1365,-3.2881,-3.4859,-3.6244,-3.6924,-3.7554,-3.7839,-3.7862,-3.7862,-3.7885,-3.7907,-3.8436,-3.8665,-3.8688,-3.917,-3.9354,-3.9262,-3.8229,-3.7839,-3.7839,-3.7839,-3.7839,-3.7839,-3.7839,-3.8183,-3.8654,-3.9001,-3.9616,-4.0479,-4.1745,-4.2967,-4.4074,-4.4944,-4.5805,-4.6473,-4.6499,-4.6499,-4.6656,-4.7231,-4.7304,-4.7576,-4.85,-4.8721,-4.9068,-5.0181,-5.0712,-5.1375,-5.2755,-5.3524,-5.423,-5.5078,-5.5179,0.0,-5.5179,-5.5179,-5.5209,-5.5209,-5.5209,-5.5209,-5.5209,-5.5209,-5.5179,-5.5179,-5.5179,-5.491,-5.4281,-5.3943,-5.3366,-5.2437,-5.0188,-4.8496,-4.7299,0.0,0.0,0.0,0.0,0.0,0.0,0.0,0.0,0.0,0.0,0.0,0.0,0.0,0.0,0.0,0.0,0.0,0.0,0.0,0.0,0.0,0.0,-2.8273,-2.6196,-2.5937,-2.5852,-2.5795,-2.6011,-2.6217,-2.6336,-2.6679,-2.6919,-2.6919,-2.7004,-2.7193,-2.745,-2.7467,-2.7956,-2.8977,-3.0297,-3.1631,-3.3053,-3.4757,-3.6129,-3.7125,-3.8046,-3.8726,-3.909,-3.9694,-3.9997,-3.9997,-4.0135,-4.0203,-4.0226,-4.0341,-4.041,-4.0295,-3.9285,-3.8895,-3.8895,-3.8895,-3.8895,-3.8895,-3.8895,-3.9162,-3.9604,-4.0305,-4.1163,-4.2089,-4.3292,-4.4324,-4.5195,-4.5649,-4.6117,-4.6578,-4.6996,-4.71,-4.7231,-4.7806,-4.7937,-4.8105,-4.8579,-4.9068,-4.967,-5.0851,-5.1649,-5.2408,-5.3232,-5.4023,-5.4671,-5.5128,0.0,0.0,-5.5179,-5.5179,-5.5388,-5.5837,-5.5478,-5.5388,-5.5867,-5.5478,-5.5179,-5.5179,-5.5179,-5.5119,-5.494,-5.4411,-5.3645,-5.2714,-5.1415,-5.0164,0.0,0.0,0.0,0.0,0.0,0.0,0.0,0.0,0.0,0.0,0.0,0.0,0.0,0.0,0.0,0.0,0.0,0.0,0.0,0.0,0.0,0.0,-3.0003,-2.9383,-2.773,-2.6999,-2.6597,-2.6364,-2.6413,-2.6559,-2.6713,-2.7073,-2.7295,-2.7295,-2.745,-2.7638,-2.7843,-2.7843,-2.8383,-2.9609,-3.0978,-3.2451,-3.4105,-3.5794,-3.7166,-3.8116,-3.8987,-3.9583,-3.9901,-4.0502,-4.0823,0.0,-4.0823,-4.0823,-4.0823,-4.0823,-4.0823,0.0,0.0,0.0,0.0,0.0,-3.9951,-3.9928,-4.0061,-4.0383,-4.0809,-4.1709,-4.2535,-4.3407,-4.446,-4.5431,-4.6211,-4.6498,-4.6882,-4.7257,-4.7597,-4.7702,-4.778,-4.812,-4.8315,-4.8548,-4.901,-4.9556,-5.0402,-5.1958,0.0,0.0,-5.465,-5.5027,-5.5381,-5.5906,-5.5987,-5.5987,0.0,-5.5987,-5.6137,-5.6526,-5.6226,-5.6137,-5.6526,-5.5957,0.0,0.0,0.0,-5.5179,-5.5179,-5.482,0.0,0.0,0.0,-5.1935,0.0,0.0,0.0,0.0,-4.5428,-4.4327,0.0,0.0,0.0,0.0,0.0,0.0,0.0,0.0,0.0,0.0,0.0,0.0,0.0,0.0,0.0,0.0,-3.0802,-3.035,-2.9585,-2.8381,-2.7423,-2.7116,-2.6772,-2.6747,-2.7107,-2.7467,-2.7672,-2.7672,-2.7997,-2.8237,-2.8306,0.0,0.0,0.0,0.0,-3.3579,-3.55,-3.7317,-3.8564,-3.9192,-3.9921,-4.0276,-4.0276,-4.0715,-4.0861,-4.0923,-4.0923,-4.0923,-4.0984,-4.0984,-4.0984,-4.0984,-4.0869,-4.0823,-4.0823,-4.0823,-4.0885,0.0,0.0,0.0,0.0,-4.3169,-4.3912,-4.4602,-4.5547,-4.6392,-4.7094,-4.7325,-4.7806,-4.8172,-4.8172,-4.8172,-4.8172,-4.8257,-4.8489,-4.8895,-4.9556,-5.0206,-5.1211,-5.3288,-5.4219,-5.5153,-5.6598,-5.631,-5.6125,-5.6952,-5.7094,0.0,-5.7094,-5.7094,-5.7124,-5.7184,0.0,0.0,-5.7214,-5.6645,-5.6308,-5.6218,-5.5568,-5.5179,-5.5179,-5.5179,-5.491,-5.4341,-5.4022,-5.3545,-5.2951,-5.2131,-5.1208,-5.0212,-4.7681,-4.6014,0.0,0.0,0.0,0.0,0.0,0.0,0.0,0.0,0.0,0.0,0.0,0.0,0.0,0.0,0.0,-3.1787,-3.1645,-3.1317,-3.0626,-2.9683,-2.8685,-2.7554,-2.7392,-2.7415,-2.7501,-2.7843,-2.8083,-2.8083,-2.8152,-2.846,-2.9059,-2.9418,0.0,-3.1715,-3.3115,-3.4434,-3.5682,-3.7127,-3.8122,-3.8501,0.0,0.0,-4.0126,-4.0908,-4.1343,-4.1575,-4.1575,-4.1765,-4.1977,-4.1977,-4.1977,-4.1908,-4.1145,-4.0823,-4.0823,-4.0823,-4.1106,-4.1653,-4.169,-4.2413,-4.3497,-4.4363,-4.528,-4.6167,-4.7062,-4.7561,0.0,-4.8015,-4.8094,-4.8172,0.0,-4.8172,-4.8257,-4.8548,-4.8663,-4.901,-5.0039,-5.1126,-5.2407,-5.3971,-5.5187,-5.6362,-5.76,-5.7258,-5.6892,-5.7064,-5.7094,-5.7094,-5.7094,-5.7094,-5.7304,-5.7872,-5.7423,-5.7334,-5.7872,-5.7304,-5.6705,-5.6248,-5.5568,-5.5179,-5.5179,-5.5179,-5.5119,-5.4999,-5.4411,-5.4032,-5.3913,-5.3226,-5.2375,-5.1402,-4.8855,-4.6974,0.0,0.0,0.0,0.0,0.0,0.0,0.0,0.0,0.0,0.0,0.0,-3.1712,0.0,0.0,-3.2339,-3.2339,-3.2048,-3.1636,-3.1192,-3.0197,-2.9107,-2.8157,-2.7981,-2.7895,-2.7895,-2.8408,-2.8751,-2.8751,-2.9093,-2.947,-2.9847,-3.0397,-3.1305,-3.2588,-3.4042,-3.535,-3.6595,-3.7733,-3.8508,-3.9045,-3.9799,-4.0294,-4.0487,-4.1075,-4.1486,-4.1806,-4.1806,-4.1998,-4.2339,-4.2466,-4.2529,-4.2523,-4.2389,-4.2118,-4.1807,-4.1994,-4.2373,-4.2876,-4.3383,-4.411,-4.4903,-4.5834,-4.655,-4.714,-4.7802,-4.8055,-4.8172,-4.8172,-4.8172,-4.8172,-4.8172,-4.8315,-4.8489,-4.8663,-4.9396,-5.0273,-5.1125,-5.2575,-5.4109,-5.56,-5.649,-5.7333,-5.8447,-5.8321,-5.8112,-5.8112,-5.8112,-5.8112,-5.8112,-5.8112,-5.8231,-5.859,-5.8291,-5.8231,-5.859,-5.7992,-5.7184,-5.6278,-5.5867,-5.5538,-5.5209,-5.5179,-5.5179,-5.5179,-5.488,-5.47,-5.47,-5.4012,-5.3484,-5.293,-5.0973,-4.9001,0.0,0.0,0.0,0.0,0.0,0.0,0.0,0.0,-3.0946,-3.1402,-3.1857,-3.2112,-3.2112,-3.2421,-3.2669,-3.2669,-3.2272,-3.1816,-3.1524,-3.0498,-2.9494,-2.8897,-2.8494,-2.834,-2.8408,-2.9025,-2.9453,-2.9521,-3.0087,-3.0463,-3.06,-3.1349,-3.2331,-3.3412,-3.4892,-3.6203,-3.7525,-3.8294,-3.8946,-3.9494,-3.9888,-4.0257,-4.0582,-4.0841,-4.1229,-4.1614,-4.1783,-4.2125,-4.2529,-4.2822,-4.3012,-4.3137,-4.374,-4.3678,-4.3326,-4.3514,-4.382,-4.4299,-4.5184,-4.5768,-4.6301,-4.7034,-4.7496,-4.788,-4.8114,-4.8172,-4.8172,-4.8172,-4.8172,-4.8257,-4.8315,-4.8568,-4.8906,-4.9169,-5.0462,-5.1842,-5.2659,-5.4168,-5.5736,-5.7134,-5.7719,-5.8202,-5.8955,-5.9099,-5.9099,-5.9099,-5.9099,-5.9099,-5.9099,-5.9099,-5.9099,-5.9099,-5.9099,-5.9099,-5.9099,-5.8501,-5.7663,-5.6615,-5.6368,-5.5927,-5.5418,-5.5269,-5.5179,-5.5179,-5.5179,-5.5179,-5.5179,-5.467,-5.4341,-5.4142,-5.288,-5.1041,-2.9208,-2.9559,-2.9932,-2.9973,-2.9994,-3.0118,0.0,0.0,-3.1422,-3.1878,-3.2277,-3.2607,-3.2607,-3.2628,-3.2669,-3.2669,-3.2458,-3.2155,-3.1563,-3.0926,-3.0311,-2.976,-2.9131,-2.8837,-2.9162,-2.9573,-2.9967,-3.0275,-3.0378,-3.072,-3.1409,-3.2182,-3.3216,-3.4664,-3.5811,-3.6796,-3.7601,-3.8329,-3.8747,-3.8814,-3.9144,-3.9473,-3.9822,-3.9888,-4.0257,-4.0971,-4.1847,-4.261,-4.32,-4.3553,-4.3864,-4.4175,-4.4546,-4.4853,-4.4976,-4.473,-4.5061,-4.5638,-4.6024,-4.678,-4.7486,-4.7619,-4.7854,-4.8114,-4.8172,-4.8172,-4.8172,-4.8172,-4.8172,-4.8257,-4.8548,-4.9033,-4.9696,-5.0854,-5.1864,-5.2963,-5.4394,-5.571,-5.6807,-5.7547,-5.8375,-5.8955,-5.9099,-5.9099,-5.9099,-5.9099,-5.9099,-5.9099,-5.9099,-5.9099,-5.9099,-5.9099,-5.9099,-5.9099,-5.9099,-5.8501,-5.8052,-5.7932,-5.6825,-5.6188,-5.6128,-5.5508,-5.5179,-5.5179,-5.5179,-5.5179,-5.5179,-5.5119,-5.479,-5.4192,-5.3532,-5.1932,-2.9622,-2.9849,-2.9994,0.0,-3.0201,-3.0512,-3.0988,-3.1443,-3.1899,-3.2297,-3.2545,-3.2669,-3.2669,-3.2669,-3.2809,0.0,-3.272,-3.2375,-3.2229,-3.1527,-3.0892,-3.0479,-2.9986,-2.971,-2.9658,-3.0189,-3.0617,-3.0754,-3.0977,-3.1305,-3.1879,-3.2782,-3.389,-3.5139,-3.6248,-3.7213,-3.7971,-3.8237,-3.8503,-3.8681,-3.8814,-3.9078,-3.9428,-3.9625,-4.0214,-4.1164,-4.2125,-4.3012,-4.3615,-4.436,-4.4853,-4.522,-4.5768,-4.607,-4.613,-4.5768,-4.5939,-4.6436,-4.6934,-4.7357,-4.7743,-4.7912,-4.8055,-4.8172,-4.8172,-4.8172,-4.8172,-4.8172,-4.8373,-4.8626,-4.9059,-4.9907,-5.0844,-5.1919,-5.3386,-5.4883,-5.5829,-5.7013,-5.8031,-5.8411,-5.8865,-5.9099,-5.9099,-5.9099,-5.9099,-5.9099,-5.9099,-5.9099,-5.9099,-5.9099,-5.9099,-5.9099,-5.9099,-5.9099,-5.9099,-5.886,-5.853,-5.8141,-5.7603,-5.6974,-5.6248,-5.5897,-5.5598,-5.5209,-5.5179,-5.5179,-5.5179,-5.5179,-5.5059,-5.479,-5.4175,-5.2961,-2.9911,0.0,0.0,-3.016,-3.0429,-3.0843,-3.1422,-3.1816,-3.2112,-3.2587,-3.2669,-3.2669,-3.2669,-3.283,-3.3016,-3.3327,-3.3067,-3.2795,-3.2676,-3.1978,-3.1346,-3.0959,-3.0698,-3.048,-3.0241,-3.0703,-3.1063,-3.1165,-3.1546,-3.1912,-3.2386,-3.3451,-3.4609,-3.5685,-3.6722,-3.7569,-3.8191,-3.8191,-3.8304,-3.8549,-3.8549,-3.8747,-3.9078,-3.9494,-4.0279,-4.138,-4.2443,-4.3428,-4.4299,-4.5281,-4.5889,-4.625,-4.6789,-4.7053,-4.7053,-4.6849,-4.6934,-4.7112,-4.7645,-4.7802,-4.7867,-4.8146,-4.8172,-4.8172,-4.8172,-4.8172,-4.823,-4.8315,-4.8489,-4.8912,-4.9818,-5.0871,-5.2063,-5.33,-5.5054,-5.6636,-5.7214,-5.8119,-5.8882,-5.9045,-5.9099,-5.9099,-5.9099,-5.9099,-5.9099,-5.9099,-5.9099,-5.9099,-5.9099,-5.9153,-5.9207,-5.9207,-5.9261,-5.9315,-5.9207,-5.9207,-5.8943,-5.8411,-5.8231,-5.7693,-5.6735,-5.6376,-5.5957,-5.5478,-5.5269,-5.5179,-5.5179,-5.5179,-5.5179,-5.5179,-5.4692,-5.3707,0.0,0.0,-3.0098,-3.0553,-3.0677,-3.0926,-3.176,-3.1967,-3.2112,-3.2587,-3.2669,-3.2669,-3.2669,-3.3078,-3.3368,-3.3368,-3.3596,-3.3494,-3.2773,-3.2222,-3.1636,-3.0994,-3.0941,-3.0994,0.0,-3.0994,-3.1165,-3.1525,-3.1894,-3.2386,-3.3103,-3.4264,-3.5344,-3.6451,-3.7213,-3.777,-3.8191,-3.8191,-3.8191,-3.8258,-3.8258,-3.837,-3.8747,-3.9428,-4.0279,-4.1357,-4.2713,-4.4027,-4.5342,-4.6336,-4.6909,-4.7205,-4.756,-4.7677,-4.7703,-4.7997,-4.7957,-4.7741,-4.8049,-4.8172,-4.8172,-4.8172,-4.8172,-4.8172,-4.8172,-4.8172,-4.8257,-4.8606,-4.8721,-4.9116,-5.0887,-5.1976,-5.3186,-5.5392,-5.681,-5.7833,-5.847,-5.8882,-5.9099,-5.9099,-5.9099,-5.9099,-5.9099,-5.9099,-5.9099,-5.9099,-5.9099,-5.9099,-5.9099,-5.9315,-5.9476,-5.9476,-5.9773,-5.9827,-5.9529,-5.9476,-5.9369,-5.9069,-5.8471,-5.8112,-5.8052,-5.6855,-5.6218,-5.6188,-5.5508,-5.5179,-5.5179,-5.5179,-5.5179,-5.5179,-5.4905,-5.4126,-2.9994,0.0,-3.0491,-3.0657,-3.1133,-3.1671,-3.1905,-3.2215,-3.2483,-3.2649,-3.2669,-3.2669,-3.2669,-3.3078,-3.3472,-3.3782,-3.38,-3.3733,-3.3598,-3.2805,-3.2144,-3.1741,-3.1548,0.0,0.0,0.0,0.0,-3.1894,-3.2246,-3.2945,-3.3918,-3.4727,-3.5753,-3.6876,-3.7348,-3.777,-3.8191,-3.8191,-3.8191,-3.8191,-3.8481,-3.9062,-3.9943,-4.0094,-4.0979,-4.2476,-4.3506,-4.4706,-4.601,-4.6968,-4.7586,-4.788,-4.7997,-4.8055,-4.8055,-4.8172,-4.814,-4.8049,-4.814,-4.8172,-4.8172,-4.8172,-4.8172,-4.8172,-4.8172,-4.8172,-4.8257,-4.8606,-4.9276,-5.0255,-5.1861,-5.3385,-5.4998,-5.6698,-5.7772,-5.85,-5.8882,-5.9045,-5.9099,-5.9099,-5.9099,-5.9099,-5.9099,-5.9099,-5.9099,-5.9099,-5.9099,-5.9099,-5.9099,-5.9499,-5.9766,-5.9766,-6.0061,-6.0114,-5.9819,-5.9606,-5.9369,-5.9099,-5.889,-5.859,-5.8141,-5.7693,-5.7064,-5.6248,-5.6008,-5.5628,-5.5179,-5.5179,-5.5179,-5.5179,-5.4955,-5.4259,-3.0201,-3.047,-3.076,-3.1091,-3.1609,-3.2029,-3.2194,-3.2463,-3.2669,-3.2669,-3.2669,-3.2768,-3.2934,-3.3327,-3.3782,-3.4297,-3.4411,-3.4381,-3.4241,-3.3501,-3.2746,-3.2337,-3.1879,0.0,0.0,0.0,0.0,-3.2316,-3.2806,-3.3554,-3.4659,-3.5549,-3.6384,-3.728,-3.7636,-3.7971,-3.8191,-3.8336,-3.8502,-3.8667,-3.9093,-3.9657,-4.0409,-4.0902,-4.1883,-4.3345,-4.4681,-4.581,-4.6854,-4.7777,-4.8205,-4.8172,-4.8172,-4.8172,-4.8172,-4.8172,-4.8172,-4.8172,-4.8172,-4.8172,-4.8172,-4.8172,-4.8172,-4.8172,-4.8172,-4.8289,-4.8463,-4.8895,-4.9902,-5.1189,-5.2964,-5.4573,-5.6185,-5.7716,-5.8445,-5.8882,-5.9045,-5.9099,-5.9099,-5.9099,-5.9099,-5.9099,-5.9099,-5.9099,-5.9099,-5.9099,-5.9099,-5.9099,-5.9099,-5.9583,-5.9955,-5.9955,-6.0324,-6.0377,-5.9978,-5.9796,-5.9476,-5.9099,-5.9099,-5.8919,-5.8501,-5.8261,-5.7723,-5.6885,-5.6406,-5.5957,-5.5538,-5.5299,-5.5179,-5.5179,-5.4955,-5.4311,-3.0574,-3.0719,-3.0967,-3.176,-3.2008,-3.2132,-3.2566,-3.2669,-3.2669,-3.2669,-3.2669,-3.2851,0.0,0.0,-3.4277,-3.4733,-3.5273,-3.5362,-3.4744,-3.4079,-3.3447,0.0,0.0,0.0,0.0,0.0,0.0,-3.2806,0.0,-3.4314,-3.5412,-3.6519,-3.728,-3.7616,-3.7991,-3.8212,-3.8212,-3.8667,-3.9055,-3.9578,-3.9971,-4.0198,-4.0356,-4.1743,-4.2971,-4.4048,-4.6093,-4.7209,-4.7739,-4.8695,-4.8799,-4.8277,-4.8277,-4.8277,-4.8277,-4.825,-4.8224,-4.8257,-4.8198,-4.8172,-4.8172,-4.8172,-4.8172,-4.8172,-4.823,-4.8463,-4.8868,-4.9469,-5.056,-5.1987,-5.4172,-5.5608,-5.691,-5.8352,-5.8882,-5.9099,-5.9099,-5.9099,-5.9129,-5.9159,-5.9189,-5.9189,-5.9159,-5.9189,-5.9189,-5.9129,-5.9129,-5.9129,-5.9099,-5.9613,-5.9986,-5.9986,-6.046,-6.0564,-6.0039,-5.9986,-5.972,-5.9153,-5.9099,-5.9099,-5.9099,-5.8501,-5.8171,-5.8112,-5.6915,-5.6308,-5.6218,-5.5538,-5.5209,-5.5179,-5.4955,-5.4311,-3.0657,-3.1011,-3.14,-3.1625,-3.1763,-3.1933,-3.2342,-3.2363,-3.244,-3.2669,-3.2669,-3.2851,0.0,0.0,0.0,-3.4733,-3.5273,0.0,-3.5077,-3.445,0.0,-3.3131,0.0,-3.1965,-3.1965,-3.2316,0.0,0.0,-3.4521,-3.507,-3.618,-3.6991,-3.7616,-3.8037,-3.8435,-3.8688,-3.8688,-3.9075,-3.9737,-4.0473,-4.0591,-4.1385,-4.2795,-4.3331,-4.4426,-4.5919,-4.6861,-4.7745,-4.8595,-4.9083,-4.9369,-4.9453,-4.9453,-4.9453,-4.9401,-4.9008,-4.8872,-4.8811,-4.8367,-4.8172,-4.8172,-4.8172,-4.8172,-4.8257,-4.8489,-4.8606,-4.9032,-5.0553,-5.1785,-5.3219,-5.5357,-5.6828,-5.7934,-5.8798,-5.9045,-5.9099,-5.9099,-5.9099,-5.9249,-5.9727,-6.0266,-6.0446,-5.9907,-6.0266,-6.0266,-5.9249,-5.9518,-5.9668,-5.9159,-5.9553,-5.9925,-5.9925,-6.0272,-6.0377,-5.9978,-5.9743,-5.9476,-5.9099,-5.9099,-5.9099,-5.9099,-5.8949,-5.862,-5.8141,-5.7782,-5.7154,-5.6218,-5.6068,-5.5658,-5.5179,-5.4955,-5.4178,-3.0764,-3.1209,-3.1615,-3.1649,-3.1721,-3.1845,-3.2018,-3.219,-3.2363,-3.2498,-3.2612,0.0,-3.3555,0.0,0.0,0.0,0.0,0.0,-3.5711,-3.5281,-3.4755,0.0,-3.3363,0.0,-3.2824,-3.3363,-3.4038,0.0,-3.5295,-3.584,-3.6924,-3.7549,-3.8053,-3.8481,-3.8641,-3.8972,-3.9385,-3.9841,-4.0424,-4.1095,-4.1775,-4.2718,-4.3907,-4.4867,-4.5959,-4.7254,0.0,-4.8636,-4.9095,-4.9615,-4.9767,-4.9716,-4.9837,-4.9897,-4.9845,-4.9557,-4.9442,-4.9377,-4.9042,-4.893,-4.8852,-4.8355,-4.8472,-4.8799,-4.8975,-4.9626,-5.0532,-5.1832,-5.3273,-5.4826,-5.6369,-5.7614,-5.8614,-5.9349,-5.9548,-5.9608,-5.9907,-5.9997,-6.0086,-6.0475,-6.0835,-6.0984,-6.0595,-6.0864,-6.0864,-6.0086,-6.0296,-6.0296,-5.9608,-5.9627,-5.9713,-5.9713,-6.0008,-6.0061,-5.9766,-5.9583,-5.9369,-5.9099,-5.9099,-5.9099,-5.9099,-5.9099,-5.8919,-5.856,-5.8261,-5.7603,-5.6585,-5.6368,-5.5888,-5.5179,-5.4671,-5.3919,-3.097,-3.1309,-3.1645,-3.1687,-3.173,-3.1672,-3.173,-3.196,-3.219,-3.2305,0.0,-3.2938,-3.3906,-3.4132,-3.4362,-3.5273,0.0,-3.6676,-3.6354,-3.6183,-3.5976,-3.5549,-3.4609,-3.4006,-3.4006,-3.4609,-3.5226,-3.5617,-3.5976,-3.6586,-3.7549,-3.8032,-3.8502,-3.8931,-3.8972,-3.9454,-4.0373,-4.0745,-4.1215,-4.1827,-4.3119,-4.4068,-4.4595,-4.6315,-4.7473,-4.8174,0.0,0.0,-4.9368,-5.0058,-5.0049,-4.9645,-5.0011,-5.0106,-5.0106,-5.0028,-5.0002,-5.0002,-4.9923,-4.9958,-4.9774,-4.8806,-4.8983,-4.9673,-4.9849,-5.1049,-5.2526,-5.3377,-5.4828,-5.6348,-5.7261,-5.8199,-5.9126,-5.9912,-6.0146,-6.0386,-6.0984,-6.1194,-6.1253,-6.1253,-6.1313,-6.1343,-6.1253,-6.1313,-6.1313,-6.1134,-6.1194,-6.0954,-6.0176,-5.9795,-5.9566,-5.9476,-5.972,-5.9773,-5.9476,-5.9476,-5.9369,-5.9099,-5.9099,-5.9099,-5.9099,-5.9099,-5.9099,-5.9099,-5.853,-5.7872,-5.7094,-5.6555,-5.5927,-5.5158,-5.4282,-5.3524,-3.1441,-3.1609,-3.1687,-3.1421,-3.1228,-3.1112,-3.1325,-3.1441,0.0,0.0,-3.2363,-3.2707,-3.3906,-3.4132,-3.4362,-3.5273,-3.6204,-3.6676,0.0,0.0,-3.6674,0.0,0.0,0.0,0.0,0.0,0.0,0.0,0.0,0.0,-3.7616,-3.8321,-3.9102,-3.993,-3.9972,-4.0381,-4.1276,-4.1368,-4.2003,-4.3328,-4.3861,-4.4937,-4.6449,-4.7383,-4.8199,-4.8942,0.0,0.0,-4.9977,-5.0397,-5.0661,-5.0835,-5.1184,-5.1309,-5.1256,-5.0812,-5.0629,-5.0551,-5.0054,-5.0078,-5.0292,-5.0108,-5.0108,-5.04,-5.1521,-5.2188,-5.3014,-5.4969,-5.6095,-5.6958,-5.8149,-5.9155,-5.9882,-6.0057,-6.0505,-6.0954,-6.1074,-6.1553,-6.1942,-6.1942,-6.2361,-6.257,-6.2032,-6.2391,-6.2361,-6.1283,-6.1583,-6.1463,-6.0236,-6.0052,-5.9752,-5.9213,-5.9207,-5.9207,-5.9153,-5.9153,-5.9153,-5.9099,-5.9099,-5.9099,-5.9099,-5.9099,-5.9099,-5.9099,-5.9009,-5.8321,-5.7094,-5.6974,-5.6243,-5.4854,-5.4178,-5.3366,-3.1059,-3.1274,-3.1441,-3.117,-3.0995,-3.0937,-3.1054,0.0,0.0,0.0,-3.219,-3.2649,-3.3906,-3.4132,0.0,-3.5273,-3.6204,0.0,0.0,0.0,0.0,0.0,0.0,0.0,0.0,0.0,0.0,0.0,0.0,0.0,0.0,-3.8697,-3.9447,-4.0179,-4.0659,-4.1121,-4.1473,-4.2229,-4.3119,-4.3999,-4.5096,-4.6248,-4.7515,-4.8264,-4.8853,-4.9396,0.0,0.0,0.0,-5.0232,-5.055,-5.0867,-5.1246,-5.1471,-5.157,-5.1309,-5.1204,-5.124,-5.1075,-5.1154,-5.1398,-5.2064,-5.209,-5.1998,-5.2736,-5.3886,-5.5168,-5.6532,-5.7316,-5.801,-5.9135,-5.9767,-6.0266,-6.0954,-6.1642,-6.2121,-6.2121,-6.2391,-6.26,-6.26,-6.2869,-6.2989,-6.266,-6.2869,-6.2869,-6.2241,-6.2121,-6.1732,-6.0745,-6.0296,-5.9817,-5.9189,-5.9099,-5.9099,-5.9099,-5.9099,-5.9099,-5.9099,-5.9099,-5.9099,-5.9099,-5.9099,-5.9099,-5.9099,-5.9099,-5.8441,-5.7094,-5.7094,-5.6281,-5.4803,-5.3838,-5.2861,-3.0633,-3.1009,-3.1208,-3.0879,-3.0762,-3.0762,-3.0704,-3.0937,0.0,0.0,-3.1903,-3.2571,-3.3788,-3.4072,-3.4362,0.0,-3.6204,-3.6804,0.0,0.0,0.0,0.0,0.0,0.0,0.0,0.0,0.0,0.0,0.0,0.0,0.0,-3.9247,-3.9889,-4.0435,-4.1142,-4.1615,-4.1969,-4.3189,-4.4137,-4.4801,-4.6382,-4.7515,-4.824,-4.8918,-4.9332,-4.959,0.0,0.0,0.0,-4.9976,-5.0295,-5.0652,-5.0994,-5.1309,-5.1596,-5.1659,-5.1721,-5.1783,-5.2183,-5.243,-5.2711,-5.3839,-5.3897,-5.3602,-5.4102,-5.5623,-5.7163,-5.773,-5.8313,-5.9006,-5.9832,-6.0211,-6.0655,-6.2002,-6.269,-6.3079,-6.3079,-6.3079,-6.3079,-6.3079,-6.3079,-6.3079,-6.3079,-6.3079,-6.3019,-6.2899,-6.2421,-6.1822,-6.0984,-6.0416,-5.9817,-5.9189,-5.9099,-5.9099,-5.9099,-5.9099,-5.9099,-5.9099,-5.9099,-5.9099,-5.9099,-5.9099,-5.9099,-5.9099,-5.9099,-5.8441,-5.7094,-5.7094,-5.6229,-5.4568,-5.3524,-5.2487,-3.0722,-3.1053,-3.115,-3.0567,-3.045,-3.0392,-3.0039,0.0,0.0,-3.0918,-3.1441,-3.2223,-3.3432,-3.3893,-3.4362,-3.5273,-3.6204,-3.6804,0.0,0.0,0.0,0.0,0.0,0.0,0.0,0.0,0.0,0.0,0.0,0.0,0.0,-3.9889,-4.0526,-4.1339,-4.1452,-4.2159,-4.3467,-4.393,-4.5005,-4.6674,-4.7515,-4.833,-4.9007,-4.9396,-4.959,-4.959,0.0,0.0,0.0,-4.9976,-5.0295,-5.0652,-5.0994,-5.1309,-5.1659,-5.1934,-5.2059,-5.2121,-5.2799,-5.3383,-5.3959,-5.4675,-5.4647,-5.4651,-5.6136,-5.7076,-5.7751,-5.8419,-5.8857,-5.9194,-5.9937,-6.0565,-6.1343,-6.266,-6.3019,-6.3079,-6.3079,-6.3079,-6.3079,-6.3079,-6.3079,-6.3079,-6.3079,-6.3079,-6.2869,-6.2271,-6.2121,-6.1642,-6.0356,-6.0116,-5.9817,-5.9189,-5.9099,-5.9099,-5.9099,-5.9099,-5.9099,-5.9099,-5.9099,-5.9099,-5.9099,-5.9099,-5.9099,-5.9099,-5.9099,-5.8441,-5.7094,-5.7094,-5.6043,-5.3971,-5.3285,-5.2272,-2.9789,-3.0079,-3.0079,-2.9844,-2.9962,-3.0039,-2.9667,0.0,-3.0509,-3.084,-3.1208,-3.1933,-3.3372,-3.3515,-3.3881,-3.4902,-3.5888,0.0,0.0,0.0,0.0,0.0,0.0,0.0,0.0,0.0,0.0,0.0,0.0,0.0,0.0,0.0,-4.085,-4.1473,-4.237,-4.3189,-4.3999,-4.521,-4.6382,-4.7581,-4.833,-4.8918,-4.9396,-4.9525,-4.959,0.0,0.0,0.0,0.0,-4.9719,-5.0104,-5.0652,-5.0994,-5.1408,-5.2006,-5.2465,-5.2685,-5.2788,-5.3658,-5.4199,-5.4793,-5.5817,-5.6251,-5.6566,-5.7162,-5.7807,-5.839,-5.8828,-5.8991,-5.9368,-6.0416,-6.1493,-6.2421,-6.2959,-6.3079,-6.3079,-6.3079,-6.3079,-6.3079,-6.3079,-6.275,-6.248,-6.248,-6.2151,-6.1822,-6.1553,-6.1164,-6.0685,-6.0146,-5.9727,-5.9398,-5.9129,-5.9099,-5.9099,-5.9099,-5.9099,-5.9099,-5.9099,-5.9099,-5.9099,-5.9099,-5.9099,-5.9099,-5.9099,-5.9099,-5.8441,-5.7094,-5.6937,-5.5864,-5.3919,-5.2914,-5.1839,-2.8628,-2.8879,-2.8938,-2.8879,-2.9016,-2.9135,0.0,0.0,-2.9962,-3.0372,-3.0859,-3.1641,-3.3074,-3.3235,-3.3458,-3.4593,-3.5634,-3.6289,-3.6289,0.0,0.0,0.0,0.0,0.0,0.0,0.0,0.0,0.0,0.0,0.0,0.0,0.0,-4.1689,-4.2159,-4.3397,-4.4343,-4.5005,-4.6516,-4.7606,-4.833,-4.8918,-4.9396,-4.959,-4.959,-4.959,0.0,0.0,0.0,0.0,-4.9719,-5.0168,-5.0804,-5.1246,-5.1783,-5.25,-5.3261,-5.3571,-5.379,-5.4765,-5.5323,-5.5847,-5.6908,-5.7584,-5.8029,-5.8085,-5.8415,-5.8828,-5.9045,-5.9398,-5.9907,-6.0864,-6.2091,-6.3079,-6.3079,-6.3079,-6.3019,-6.2839,-6.278,-6.272,-6.254,-6.2121,-6.1792,-6.1792,-6.1433,-6.1044,-6.0835,-6.0386,-6.0027,-5.9817,-5.9398,-5.9099,-5.9099,-5.9099,-5.9099,-5.9099,-5.9099,-5.9099,-5.9099,-5.9099,-5.9099,-5.9099,-5.9099,-5.9099,-5.9099,-5.9099,-5.8441,-5.7094,-5.6832,-5.5624,-5.3629,-5.2541,-5.1293,-2.7444,-2.7744,-2.7924,-2.7581,-2.7521,-2.7521,0.0,-2.8062,-2.8719,-2.9313,-3.0197,-3.1289,-3.2494,-3.2935,-3.3397,-3.4282,-3.5506,0.0,0.0,0.0,0.0,0.0,0.0,0.0,0.0,0.0,0.0,0.0,0.0,0.0,0.0,0.0,0.0,-4.3653,-4.4412,-4.5437,-4.6874,-4.7581,-4.8396,-4.9072,-4.9461,-4.959,-4.959,-4.959,0.0,0.0,0.0,0.0,0.0,-4.9976,-5.0487,-5.1183,-5.181,-5.2492,-5.3166,-5.4166,-5.4675,-5.5088,-5.6049,-5.6794,-5.736,-5.7974,-5.839,-5.8748,-5.8991,-5.9099,-5.9099,-5.9099,-6.0057,-6.1104,-6.1104,-6.2091,-6.3079,-6.3079,-6.3079,-6.2899,-6.2241,-6.2121,-6.1912,-6.1253,-6.1134,-6.1134,-6.1134,-6.1104,-6.0894,-6.0206,-6.0086,-5.9847,-5.9189,-5.9099,-5.9099,-5.9099,-5.9099,-5.9099,-5.9099,-5.9099,-5.9099,-5.9099,-5.9099,-5.9099,-5.9099,-5.9099,-5.9099,-5.9099,-5.9099,-5.8441,-5.7094,-5.6832,-5.5413,-5.2967,-5.211,-5.0656,-2.6432,-2.6796,-2.6978,-2.6614,-2.6857,-2.7177,-2.7237,-2.79,-2.8659,-2.9313,-3.002,-3.0996,-3.2434,-3.2592,-3.2808,-3.3908,-3.4912,0.0,0.0,0.0,0.0,0.0,0.0,0.0,0.0,0.0,0.0,0.0,0.0,0.0,0.0,0.0,0.0,-4.4436,-4.564,-4.6717,-4.7648,-4.8396,-4.8983,-4.9461,-4.9525,-4.959,-4.959,0.0,0.0,0.0,0.0,0.0,0.0,-5.0295,-5.0994,-5.1872,-5.2746,-5.3477,-5.4226,-5.5409,-5.5875,-5.6106,-5.7021,-5.7584,-5.7974,-5.839,-5.8719,-5.8991,-5.9045,-5.9099,-5.9099,-5.9099,-6.0086,-6.1104,-6.1104,-6.2091,-6.2959,-6.251,-6.2421,-6.2241,-6.1553,-6.1433,-6.1373,-6.1164,-6.0745,-6.0416,-6.0416,-6.0027,-5.9668,-5.9458,-5.9428,-5.9338,-5.9129,-5.9099,-5.9099,-5.9099,-5.9099,-5.9099,-5.9099,-5.9099,-5.9099,-5.9099,-5.9099,-5.9099,-5.9099,-5.9099,-5.9099,-5.9099,-5.9099,-5.8441,-5.7094,-5.6651,-5.4827,-5.1839,-5.0767,-4.9727,0.0,-2.5717,-2.5778,-2.5394,-2.57,0.0,-2.6466,-2.7237,-2.8182,-2.9076,-2.9917,-3.0894,-3.2273,-3.2468,-3.2698,-3.3552,-3.4611,0.0,0.0,0.0,0.0,0.0,0.0,0.0,0.0,0.0,0.0,0.0,0.0,0.0,0.0,0.0,0.0,0.0,-4.6669,-4.761,-4.8396,-4.9007,-4.9396,-4.959,-4.959,-4.959,0.0,0.0,0.0,0.0,0.0,0.0,0.0,-5.1157,-5.1908,-5.2895,-5.3707,-5.452,-5.5323,-5.6394,-5.6908,-5.7191,-5.7892,-5.8335,-5.8555,-5.8773,-5.8936,-5.9099,-5.9099,-5.9099,-5.9099,-5.9099,-5.9877,-6.0715,-6.0715,-6.1523,-6.2241,-6.1822,-6.1732,-6.1553,-6.0864,-6.0715,-6.0655,-6.0416,-6.0027,-5.9727,-5.9727,-5.9368,-5.9099,-5.9099,-5.9099,-5.9099,-5.9099,-5.9099,-5.9099,-5.9099,-5.9099,-5.9099,-5.9099,-5.9099,-5.9099,-5.9099,-5.9099,-5.9099,-5.9099,-5.9099,-5.9099,-5.9099,-5.886,-5.8201,-5.7094,-5.5589,-5.3582,-5.1155,-4.9953,-4.9125,0.0,-2.461,-2.4487,-2.4177,0.0,0.0,-2.5426,-2.6327,0.0,-2.8773,-2.9864,-3.094,-3.2068,-3.2539,-3.2949,-3.3398,-3.4502,0.0,0.0,0.0,0.0,0.0,0.0,0.0,0.0,0.0,0.0,0.0,0.0,0.0,0.0,0.0,0.0,0.0,0.0,-4.8105,-4.9063,-4.9411,-4.9565,-4.959,-4.959,-4.9654,0.0,0.0,0.0,0.0,0.0,0.0,0.0,-5.2404,-5.3234,-5.4052,-5.4745,-5.555,-5.6394,-5.6989,-5.7549,-5.8132,-5.8461,-5.8763,-5.8949,-5.8949,-5.8949,-5.8949,-5.8949,-5.9039,-5.9099,-5.9099,-5.9578,-6.0086,-6.0086,-6.0595,-6.1104,-6.1044,-6.1044,-6.0864,-6.0146,-6.0027,-5.9847,-5.9219,-5.9099,-5.9099,-5.9099,-5.9099,-5.9099,-5.9099,-5.9099,-5.9099,-5.9099,-5.9099,-5.9099,-5.9099,-5.9099,-5.9099,-5.9099,-5.9099,-5.9099,-5.9099,-5.9099,-5.9099,-5.9099,-5.9099,-5.9099,-5.9099,-5.8411,-5.767,-5.693,-5.3999,-5.1976,-5.085,-4.9613,-4.8779,-2.4487,0.0,-2.4487,-2.3852,-2.4177,-2.4795,0.0,-2.6327,-2.7505,-2.9119,-3.005,-3.1016,-3.2377,-3.2734,-3.3047,-3.3789,-3.442,0.0,0.0,0.0,0.0,0.0,0.0,0.0,0.0,0.0,0.0,0.0,0.0,0.0,0.0,0.0,0.0,0.0,0.0,0.0,-4.8899,-4.8962,-4.9163,-4.959,-4.9847,0.0,0.0,0.0,0.0,0.0,0.0,0.0,0.0,-5.3295,-5.3805,-5.4127,-5.4994,-5.5338,-5.544,-5.6234,-5.6613,-5.6828,-5.7309,-5.752,-5.7573,-5.7573,-5.7573,-5.7573,-5.7573,-5.8291,-5.9099,-5.9099,-5.9578,-6.0086,-6.0086,-6.0595,-6.0984,-6.0446,-6.0326,-6.0146,-5.9488,-5.9338,-5.9279,-5.9129,-5.9099,-5.9099,-5.9099,-5.9099,-5.9099,-5.9099,-5.9099,-5.9099,-5.9099,-5.9099,-5.9099,-5.9099,-5.9099,-5.9099,-5.9099,-5.9099,-5.9099,-5.9099,-5.9099,-5.9099,-5.9099,-5.9099,-5.9099,-5.9099,-5.7932,-5.669,-5.5407,-5.353,-5.1868,-5.0461,-4.9556,-4.8779,-2.4548,-2.4363,-2.4239,-2.3728,-2.3976,-2.461,-2.5594,0.0,0.0,0.0,0.0,0.0,0.0,0.0,0.0,0.0,-3.4609,0.0,0.0,0.0,0.0,0.0,0.0,0.0,0.0,0.0,0.0,0.0,0.0,0.0,0.0,0.0,0.0,0.0,0.0,0.0,0.0,-4.8573,-4.885,-4.928,-4.9594,0.0,0.0,0.0,0.0,0.0,0.0,0.0,-5.2902,-5.3668,-5.417,-5.4516,-5.5022,-5.5403,-5.5688,-5.6131,-5.6479,-5.6674,-5.6989,-5.7094,-5.7094,-5.7094,-5.7094,-5.7094,-5.7094,-5.7603,-5.8261,-5.856,-5.9129,-5.9638,-5.9638,-5.9907,-6.0086,-5.9727,-5.9638,-5.9548,-5.9189,-5.9099,-5.9099,-5.9099,-5.9099,-5.9099,-5.9099,-5.9099,-5.9099,-5.9099,-5.9099,-5.9099,-5.9099,-5.9099,-5.9099,-5.9099,-5.9099,-5.9099,-5.9099,-5.9099,-5.9099,-5.9099,-5.9099,-5.9099,-5.9099,-5.9099,-5.88,-5.8201,-5.7378,-5.6094,-5.4416,-5.3062,-5.1731,-5.0405,-4.9499,-4.8779,-2.4672,-2.4456,-2.4239,-2.3867,-2.4022,-2.4673,-2.5966,0.0,0.0,0.0,0.0,0.0,0.0,0.0,0.0,0.0,0.0,0.0,0.0,0.0,0.0,0.0,0.0,0.0,0.0,0.0,0.0,0.0,0.0,0.0,0.0,0.0,0.0,0.0,0.0,0.0,0.0,0.0,-4.8574,-4.9045,-4.9412,-5.0193,0.0,0.0,0.0,0.0,0.0,0.0,-5.3273,-5.3895,-5.4425,-5.4835,-5.4883,-5.5342,-5.5901,-5.59,-5.6221,-5.6691,-5.6795,-5.6795,-5.6795,-5.6795,-5.6795,-5.6795,-5.6795,-5.6885,-5.7094,-5.7782,-5.8441,-5.8979,-5.9069,-5.9099,-5.9099,-5.9099,-5.9099,-5.9099,-5.9099,-5.9099,-5.9099,-5.9099,-5.9099,-5.9099,-5.9099,-5.9099,-5.9099,-5.9099,-5.9099,-5.9099,-5.9099,-5.9099,-5.9099,-5.9099,-5.9099,-5.9099,-5.9099,-5.9099,-5.9099,-5.9099,-5.9099,-5.9099,-5.9099,-5.9009,-5.8351,-5.7124,-5.6743,-5.5617,-5.3733,-5.2677,-5.1457,-5.0237,-4.9442,-4.8721,-2.4672,-2.4999,-2.5281,-2.4611,-2.4953,-2.572,-2.6777,-2.8058,0.0,0.0,0.0,0.0,0.0,0.0,0.0,0.0,0.0,0.0,0.0,0.0,0.0,0.0,0.0,0.0,0.0,0.0,0.0,0.0,0.0,0.0,0.0,0.0,0.0,0.0,0.0,0.0,0.0,0.0,0.0,-4.9663,-5.0319,-5.0943,-5.1588,-5.2116,0.0,0.0,0.0,0.0,-5.3895,-5.4593,-5.4553,-5.4172,-5.4442,-5.4284,-5.3949,-5.4205,-5.4465,-5.4805,-5.5296,-5.5478,-5.5478,-5.5478,-5.5478,-5.5478,-5.5478,-5.5867,-5.6436,-5.7064,-5.7752,-5.8411,-5.8949,-5.9099,-5.9099,-5.9099,-5.9099,-5.9099,-5.9099,-5.9099,-5.9099,-5.9099,-5.9099,-5.9099,-5.9099,-5.9099,-5.9099,-5.9099,-5.9099,-5.9099,-5.9099,-5.9099,-5.9099,-5.9099,-5.9099,-5.9099,-5.9099,-5.9099,-5.9099,-5.9099,-5.9099,-5.9099,-5.9099,-5.856,-5.7902,-5.7124,-5.6296,-5.4966,-5.3126,-5.2218,-5.11,-4.9727,-4.9068,-4.8548,-2.5326,-2.5859,-2.63,-2.6707,-2.6777,-2.7081,-2.8286,-2.9502,0.0,0.0,0.0,0.0,0.0,0.0,0.0,0.0,0.0,0.0,0.0,0.0,0.0,0.0,0.0,0.0,0.0,0.0,0.0,0.0,0.0,0.0,0.0,0.0,0.0,0.0,0.0,0.0,0.0,0.0,0.0,-5.0135,-5.0624,-5.1418,-5.2404,-5.2743,-5.3051,0.0,0.0,-5.3823,-5.3537,-5.4025,-5.4013,-5.3724,-5.3912,-5.3896,-5.3762,-5.3993,-5.42,-5.4355,-5.4824,-5.5006,-5.5006,-5.5128,-5.5179,-5.5179,-5.5179,-5.5418,-5.5777,-5.6406,-5.7334,-5.8261,-5.8949,-5.9099,-5.9099,-5.9099,-5.9099,-5.9099,-5.9099,-5.9099,-5.9099,-5.9099,-5.9099,-5.9099,-5.9099,-5.9099,-5.9099,-5.9099,-5.9099,-5.9099,-5.9099,-5.9099,-5.9099,-5.9099,-5.9099,-5.9099,-5.9099,-5.9099,-5.9099,-5.9099,-5.9099,-5.9099,-5.9099,-5.8471,-5.7812,-5.7094,-5.605,-5.4638,-5.302,-5.2002,-5.0823,-4.9556,-4.8952,-4.8548,-2.6032,-2.674,-2.7515,-2.8769,-2.8668,-2.8587,-2.9797,-3.0877,0.0,0.0,0.0,0.0,0.0,0.0,0.0,0.0,0.0,0.0,0.0,0.0,0.0,0.0,0.0,0.0,0.0,0.0,0.0,0.0,0.0,0.0,0.0,0.0,0.0,0.0,0.0,0.0,0.0,0.0,0.0,-5.0628,-5.0989,-5.1847,-5.312,-5.312,-5.3257,-5.3611,-5.3798,-5.3646,-5.3213,-5.3424,-5.35,-5.35,-5.35,-5.3605,-5.3867,-5.4097,-5.4252,-5.4355,-5.4671,-5.4854,-5.4955,-5.5128,-5.5179,-5.5179,-5.5179,-5.5179,-5.5329,-5.5987,-5.6885,-5.7842,-5.868,-5.8979,-5.9099,-5.9099,-5.9099,-5.9099,-5.9099,-5.9099,-5.9099,-5.9099,-5.9099,-5.9099,-5.9099,-5.9099,-5.9099,-5.9099,-5.9099,-5.9099,-5.9099,-5.9099,-5.9099,-5.9099,-5.9099,-5.9099,-5.9099,-5.9099,-5.9099,-5.9099,-5.9099,-5.9039,-5.889,-5.8231,-5.7573,-5.6885,-5.5604,-5.4282,-5.2914,-5.1676,-5.0544,-4.9469,-4.8837,-4.8431,-2.6484,-2.7565,-2.885,-2.9932,-3.0149,-3.0275,-3.105,-3.1746,0.0,-3.3328,0.0,0.0,0.0,0.0,0.0,0.0,0.0,0.0,0.0,0.0,0.0,0.0,0.0,0.0,0.0,0.0,0.0,0.0,0.0,0.0,0.0,0.0,0.0,0.0,0.0,0.0,0.0,0.0,0.0,-5.1238,-5.1841,-5.2494,-5.3087,-5.3087,-5.3218,-5.3535,-5.3535,-5.3506,-5.3448,-5.35,-5.35,-5.35,-5.35,-5.35,-5.3553,-5.3815,-5.4097,-5.4355,-5.4671,-5.4955,-5.5179,-5.5179,-5.5179,-5.5179,-5.5179,-5.5179,-5.5329,-5.5987,-5.6308,-5.6585,-5.7872,-5.865,-5.9099,-5.9099,-5.9099,-5.9099,-5.9099,-5.9099,-5.9099,-5.9099,-5.9099,-5.9099,-5.9099,-5.9099,-5.9099,-5.9099,-5.9099,-5.9099,-5.9099,-5.9099,-5.9099,-5.9099,-5.9099,-5.9099,-5.9099,-5.9099,-5.9099,-5.9099,-5.9099,-5.883,-5.8231,-5.7543,-5.6885,-5.6308,-5.4768,-5.353,-5.2623,-5.1183,-5.0039,-4.9125,-4.8548,-4.823,-2.7968,-2.91,-3.0248,-3.1365,-3.1903,-3.2296,0.0,-3.3136,-3.3624,-3.418,-3.4622,0.0,0.0,0.0,0.0,0.0,0.0,0.0,0.0,0.0,0.0,0.0,0.0,0.0,0.0,0.0,0.0,0.0,0.0,0.0,0.0,0.0,0.0,0.0,0.0,0.0,0.0,0.0,-5.268,-5.2437,-5.268,-5.2947,-5.3372,-5.3372,-5.3424,-5.35,-5.35,-5.35,-5.35,-5.35,-5.35,-5.35,-5.35,-5.35,-5.35,-5.3605,-5.3815,-5.4097,-5.4385,-5.4722,-5.5006,-5.5158,-5.5179,-5.5179,-5.5179,-5.5179,-5.5239,-5.5508,-5.5867,-5.6466,-5.7782,-5.8321,-5.859,-5.9009,-5.9099,-5.9099,-5.9099,-5.9099,-5.9099,-5.9099,-5.9099,-5.9099,-5.9099,-5.9099,-5.9099,-5.9099,-5.9099,-5.9099,-5.9099,-5.9099,-5.9099,-5.9099,-5.9099,-5.9099,-5.9099,-5.9099,-5.9099,-5.9099,-5.9099,-5.88,-5.8141,-5.7453,-5.6795,-5.6248,-5.4657,-5.3471,-5.2623,-5.1127,-4.9983,-4.9068,-4.8489,-4.8172,-2.9173,-3.0317,-3.1351,-3.2435,-3.3281,0.0,-3.4244,-3.416,-3.4238,-3.4805,-3.534,0.0,0.0,0.0,0.0,0.0,0.0,0.0,0.0,0.0,0.0,0.0,0.0,0.0,0.0,0.0,0.0,0.0,0.0,0.0,0.0,0.0,0.0,0.0,0.0,0.0,0.0,0.0,-5.3213,-5.3213,-5.3213,-5.3319,-5.35,-5.35,-5.35,-5.35,-5.35,-5.35,-5.35,-5.35,-5.35,-5.35,-5.35,-5.35,-5.35,-5.35,-5.371,-5.4045,-5.4252,-5.459,-5.4955,-5.5128,-5.5179,-5.5179,-5.5179,-5.5179,-5.5179,-5.5179,-5.5508,-5.6107,-5.7214,-5.7812,-5.8291,-5.8949,-5.9099,-5.9099,-5.9099,-5.9099,-5.9099,-5.9099,-5.9099,-5.9099,-5.9099,-5.9099,-5.9099,-5.9099,-5.9099,-5.9099,-5.9099,-5.9099,-5.9099,-5.9099,-5.9099,-5.9099,-5.9099,-5.9099,-5.9009,-5.88,-5.88,-5.8501,-5.7812,-5.7154,-5.6496,-5.5765,-5.4465,-5.3314,-5.2462,-5.0962,-4.987,-4.9068,-4.8489,-4.8172,-2.9934,-3.1022,-3.206,0.0,0.0,0.0,-3.567,-3.4978,-3.4401,-3.5215,0.0,0.0,0.0,0.0,0.0,0.0,0.0,0.0,0.0,0.0,0.0,0.0,0.0,0.0,0.0,0.0,0.0,0.0,0.0,0.0,0.0,0.0,0.0,0.0,0.0,0.0,0.0,0.0,-5.35,-5.35,-5.35,-5.35,-5.35,-5.35,-5.35,-5.35,-5.35,-5.35,-5.35,-5.35,-5.35,-5.35,-5.35,-5.35,-5.35,-5.35,-5.3867,-5.4304,-5.4304,-5.4692,-5.5179,-5.5179,-5.5179,-5.5179,-5.5179,-5.5179,-5.5179,-5.5179,-5.5179,-5.5329,-5.6068,-5.7124,-5.8291,-5.8949,-5.9099,-5.9099,-5.9099,-5.9099,-5.9099,-5.9099,-5.9099,-5.9099,-5.9099,-5.9099,-5.9099,-5.9099,-5.9099,-5.9099,-5.9099,-5.9099,-5.9099,-5.9099,-5.9099,-5.9099,-5.9099,-5.9099,-5.883,-5.8171,-5.8112,-5.7812,-5.7124,-5.6496,-5.5765,-5.4803,-5.3948,-5.3078,-5.2193,-5.0712,-4.967,-4.9068,-4.8489,-4.8172,-3.1379,-3.2614,0.0,0.0,0.0,0.0,0.0,-3.6282,0.0,0.0,0.0,0.0,0.0,0.0,0.0,0.0,0.0,0.0,0.0,0.0,0.0,0.0,0.0,0.0,0.0,0.0,0.0,0.0,0.0,0.0,0.0,0.0,0.0,0.0,0.0,0.0,0.0,0.0,0.0,-5.35,-5.35,-5.35,-5.35,-5.35,-5.35,-5.35,-5.35,-5.35,-5.35,-5.35,-5.35,-5.35,-5.35,-5.35,-5.35,-5.35,-5.371,-5.4045,-5.4252,-5.459,-5.4955,-5.5158,-5.5179,-5.5179,-5.5179,-5.5179,-5.5179,-5.5179,-5.5179,-5.5329,-5.6068,-5.6795,-5.7573,-5.8261,-5.877,-5.9099,-5.9099,-5.9099,-5.9099,-5.9099,-5.9099,-5.9153,-5.9369,-5.9369,-5.9476,-5.972,-5.9529,-5.9315,-5.9099,-5.9099,-5.9099,-5.9099,-5.9099,-5.9099,-5.9099,-5.868,-5.8321,-5.8141,-5.7274,-5.6645,-5.6466,-5.6308,-5.5765,-5.4803,-5.3948,-5.3078,-5.2193,-5.0712,-4.967,-4.9068,-4.8489,-4.8172,-3.2754,0.0,0.0,0.0,0.0,0.0,0.0,0.0,0.0,0.0,0.0,0.0,0.0,0.0,0.0,0.0,0.0,0.0,0.0,0.0,0.0,0.0,0.0,0.0,0.0,0.0,0.0,0.0,0.0,0.0,0.0,0.0,0.0,0.0,0.0,0.0,0.0,0.0,0.0,0.0,-5.35,-5.35,-5.35,-5.35,-5.35,-5.35,-5.35,-5.35,-5.35,-5.35,-5.35,-5.35,-5.35,-5.35,-5.35,-5.35,-5.3658,-5.389,-5.4097,-5.4436,-5.4854,-5.5006,-5.5078,-5.5179,-5.5179,-5.5179,-5.5179,-5.5179,-5.5179,-5.5269,-5.5688,-5.6256,-5.6974,-5.7902,-5.862,-5.9099,-5.9099,-5.9099,-5.9153,-5.9261,-5.9261,-5.9369,-5.9796,-5.9849,-6.0008,-6.0377,-6.0219,-5.9849,-5.9315,-5.9261,-5.9207,-5.9099,-5.9099,-5.9009,-5.874,-5.8351,-5.7902,-5.7393,-5.6615,-5.6098,-5.5777,-5.5777,-5.5445,-5.4619,-5.3762,-5.2837,-5.1839,-5.0488,-4.9499,-4.8952,-4.8431,-4.8172,-3.3992,0.0,0.0,0.0,0.0,0.0,0.0,0.0,0.0,0.0,0.0,0.0,0.0,0.0,0.0,0.0,0.0,0.0,0.0,0.0,0.0,0.0,0.0,0.0,0.0,0.0,0.0,0.0,0.0,0.0,0.0,0.0,0.0,0.0,0.0,0.0,0.0,0.0,0.0,0.0,0.0,-5.35,-5.35,-5.35,-5.35,-5.35,-5.35,-5.35,-5.35,-5.35,-5.35,-5.35,-5.35,-5.35,-5.35,-5.35,-5.3658,-5.3867,-5.3919,-5.423,-5.4751,-5.4803,-5.4926,-5.5179,-5.5179,-5.5179,-5.5179,-5.5179,-5.5179,-5.5179,-5.5179,-5.5688,-5.6517,-5.7663,-5.8501,-5.9039,-5.9153,-5.9153,-5.9261,-5.9529,-5.9636,-5.9849,-6.0429,-6.0534,-6.0742,-6.1175,-6.1052,-6.0586,-5.9743,-5.9583,-5.9422,-5.9153,-5.9099,-5.883,-5.8171,-5.8052,-5.7513,-5.6308,-5.6158,-5.5807,-5.5209,-5.5179,-5.4926,-5.4304,-5.3442,-5.2434,-5.1293,-5.0152,-4.9297,-4.869,-4.8373,-4.8172,0.0,-3.6491,0.0,0.0,0.0,0.0,0.0,0.0,0.0,0.0,0.0,0.0,0.0,0.0,0.0,0.0,0.0,0.0,0.0,0.0,0.0,0.0,0.0,0.0,0.0,0.0,0.0,0.0,0.0,0.0,0.0,0.0,0.0,0.0,0.0,0.0,0.0,0.0,0.0,0.0,-5.35,-5.35,-5.35,-5.35,-5.35,-5.35,-5.35,-5.35,-5.35,-5.35,-5.35,-5.35,-5.35,-5.35,-5.35,-5.35,-5.3553,-5.3605,-5.3815,-5.3971,-5.4178,-5.4619,-5.4854,-5.4955,-5.5158,-5.5179,-5.5179,-5.5179,-5.5179,-5.5179,-5.5179,-5.5688,-5.6359,-5.6835,-5.7641,-5.8524,-5.9248,-5.9553,-5.9819,-6.0167,-6.0555,-6.0918,-6.1277,-6.1512,-6.1714,-6.1815,-6.1582,-6.1206,-6.0586,-6.0084,-5.9713,-5.9422,-5.9207,-5.883,-5.8171,-5.7633,-5.7004,-5.6278,-5.5688,-5.5329,-5.5209,-5.5179,-5.4926,-5.4304,-5.3442,-5.2434,-5.1293,-5.0152,-4.9297,-4.869,-4.8373,-4.8172,0.0,0.0,0.0,0.0,0.0,0.0,0.0,0.0,0.0,0.0,0.0,0.0,0.0,0.0,0.0,0.0,0.0,0.0,0.0,0.0,0.0,0.0,0.0,0.0,0.0,0.0,0.0,0.0,0.0,0.0,0.0,0.0,0.0,0.0,0.0,0.0,-5.35,-5.35,-5.35,-5.35,-5.35,-5.35,-5.35,-5.35,-5.35,-5.35,-5.35,-5.35,-5.35,-5.35,-5.35,-5.35,-5.35,-5.35,-5.35,-5.35,-5.35,-5.353,-5.3658,-5.3815,-5.3971,-5.4282,-5.4568,-5.4854,-5.4955,-5.5108,-5.5179,-5.5179,-5.5179,-5.5229,-5.533,-5.5722,-5.6204,-5.6809,-5.7777,-5.8678,-5.9304,-6.0028,-6.0576,-6.0918,-6.1348,-6.1853,-6.2284,-6.2776,-6.2971,-6.2629,-6.2531,-6.2184,-6.1277,-6.0815,-6.0316,-5.9766,-5.9205,-5.8541,-5.7693,-5.7034,-5.6376,-5.5748,-5.5388,-5.5179,-5.5179,-5.5108,-5.4722,-5.4097,-5.3232,-5.2164,-5.0851,-4.9813,-4.9068,-4.8489,-4.8315,-4.8172,0.0,0.0,0.0,0.0,0.0,0.0,0.0,0.0,0.0,0.0,0.0,0.0,0.0,0.0,0.0,0.0,0.0,0.0,0.0,0.0,0.0,0.0,0.0,0.0,0.0,0.0,0.0,0.0,0.0,0.0,0.0,0.0,0.0,0.0,0.0,0.0,-5.35,-5.35,-5.35,-5.35,-5.35,-5.35,-5.35,-5.35,-5.35,-5.35,-5.35,-5.35,-5.35,-5.35,-5.35,-5.35,-5.35,-5.35,-5.35,-5.35,-5.35,-5.35,-5.35,-5.3658,-5.3867,-5.3919,-5.4282,-5.4722,-5.4803,-5.5006,-5.5179,-5.5229,-5.528,-5.5381,-5.5681,-5.5899,-5.6286,-5.7162,-5.8235,-5.9165,-5.9512,-6.0577,-6.1531,-6.1834,-6.2302,-6.2841,-6.3357,-6.3973,-6.4161,-6.3548,-6.3548,-6.3228,-6.2085,-6.1633,-6.101,-6.0006,-5.913,-5.8211,-5.7056,-5.6466,-5.5897,-5.5239,-5.5179,-5.5179,-5.5179,-5.4955,-5.4466,-5.3733,-5.2943,-5.1839,-5.0405,-4.9556,-4.8779,-4.8172,-4.8172,-4.8172,0.0,0.0,0.0,0.0,0.0,0.0,0.0,0.0,0.0,0.0,0.0,0.0,0.0,0.0,0.0,0.0,0.0,0.0,0.0,0.0,0.0,0.0,0.0,0.0,0.0,0.0,0.0,0.0,0.0,0.0,0.0,0.0,0.0,0.0,0.0,0.0,-5.35,-5.35,-5.35,-5.35,-5.35,-5.35,-5.35,-5.35,-5.35,-5.35,-5.35,-5.35,-5.35,-5.35,-5.35,-5.35,-5.35,-5.35,-5.35,-5.35,-5.35,-5.35,-5.35,-5.35,-5.3605,-5.3815,-5.4097,-5.4406,-5.4722,-5.5006,-5.5229,-5.5481,-5.5651,-5.5869,-5.6115,-5.6554,-5.7019,-5.7399,-5.8515,-5.968,-6.0241,-6.1501,-6.2597,-6.2922,-6.3548,-6.4114,-6.4472,-6.461,-6.461,-6.4485,-6.43,-6.3973,-6.3324,-6.2678,-6.1584,-5.9983,-5.9295,-5.8261,-5.6457,-5.6278,-5.5897,-5.5239,-5.5179,-5.5179,-5.5179,-5.4955,-5.4282,-5.3126,-5.2541,-5.1621,-5.0405,-4.9556,-4.8779,-4.8172,-4.8172,-4.8172,-3.8626,0.0,0.0,0.0,0.0,0.0,0.0,0.0,0.0,0.0,0.0,0.0,0.0,0.0,0.0,0.0,0.0,0.0,0.0,0.0,0.0,0.0,0.0,0.0,0.0,0.0,0.0,0.0,0.0,0.0,0.0,-5.2059,-5.2358,-5.268,-5.2947,0.0,-5.35,-5.35,-5.35,-5.35,-5.35,-5.35,-5.35,-5.35,-5.35,-5.35,-5.35,-5.35,-5.35,-5.35,-5.35,-5.35,-5.35,-5.35,-5.35,-5.35,-5.35,-5.35,-5.35,-5.35,-5.353,-5.3658,-5.3971,-5.4355,-5.4641,-5.5149,-5.5651,-5.5948,-5.6262,-5.6651,-5.6892,-5.7464,-5.798,-5.8289,-5.9393,-6.0522,-6.0764,-6.1976,-6.3253,-6.4096,-6.4518,-6.4793,-6.5066,-6.5111,-6.5066,-6.4963,-6.4793,-6.4518,-6.3832,-6.286,-6.1705,-6.0384,-5.8949,-5.7669,-5.6534,-5.5939,-5.5508,-5.5209,-5.5179,-5.5179,-5.5179,-5.4773,-5.4045,-5.302,-5.2272,-5.1238,-4.9926,-4.924,-4.8663,-4.8172,-4.8172,-4.8172,0.0,0.0,0.0,0.0,0.0,0.0,0.0,0.0,0.0,0.0,0.0,0.0,0.0,0.0,0.0,0.0,0.0,0.0,0.0,0.0,0.0,0.0,0.0,0.0,0.0,0.0,0.0,0.0,0.0,0.0,0.0,-5.2113,-5.2465,-5.268,-5.3001,-5.3319,-5.35,-5.35,-5.35,-5.35,-5.35,-5.35,-5.35,-5.35,-5.35,-5.35,-5.35,-5.35,-5.35,-5.35,-5.35,-5.35,-5.35,-5.35,-5.35,-5.35,-5.35,-5.35,-5.35,-5.35,-5.35,-5.3553,-5.3971,-5.4458,-5.4794,-5.5471,-5.6164,-5.6506,-5.7036,-5.7559,-5.7825,-5.8395,-5.8985,-5.9197,-6.0149,-6.1077,-6.1513,-6.2558,-6.3694,-6.4704,-6.5057,-6.5234,-6.5381,-6.5425,-6.5336,-6.5189,-6.5024,-6.47,-6.398,-6.2819,-6.1519,-6.0299,-5.856,-5.719,-5.6436,-5.563,-5.5179,-5.5179,-5.5179,-5.5179,-5.5179,-5.459,-5.3785,-5.2914,-5.1894,-5.0823,-4.9613,-4.901,-4.8548,-4.8172,-4.8172,-4.8172,0.0,-4.0409,0.0,0.0,0.0,0.0,0.0,0.0,0.0,0.0,0.0,0.0,0.0,0.0,0.0,0.0,0.0,0.0,0.0,0.0,0.0,0.0,0.0,0.0,0.0,0.0,0.0,0.0,0.0,0.0,-5.1787,-5.2358,-5.268,-5.268,-5.3213,-5.3477,-5.35,-5.35,-5.35,-5.35,-5.35,-5.35,-5.35,-5.35,-5.35,-5.35,-5.35,-5.35,-5.35,-5.35,-5.35,-5.35,-5.35,-5.35,-5.35,-5.35,-5.35,-5.35,-5.35,-5.35,-5.3553,-5.3815,-5.423,-5.4794,-5.527,-5.6017,-5.6748,-5.7275,-5.7965,-5.861,-5.8837,-5.9387,-5.9957,-5.9957,-6.0335,-6.1103,-6.2519,-6.3408,-6.4056,-6.4388,-6.4962,-6.5381,-6.5425,-6.5425,-6.5425,-6.5381,-6.4862,-6.4255,-6.3699,-6.2581,-6.1092,-5.9176,-5.8266,-5.7205,-5.5771,-5.536,-5.5179,-5.5179,-5.5179,-5.5179,-5.5179,-5.4385,-5.3524,-5.2623,-5.1183,-5.0208,-4.9613,-4.901,-4.8548,-4.8172,-4.8172,-4.8172,-3.934,-4.0298,0.0,0.0,0.0,0.0,0.0,0.0,0.0,0.0,0.0,0.0,0.0,0.0,0.0,0.0,0.0,0.0,0.0,0.0,0.0,0.0,0.0,0.0,0.0,0.0,0.0,0.0,0.0,0.0,-5.1787,-5.2358,-5.268,-5.268,-5.3184,-5.35,-5.35,-5.35,-5.35,-5.35,-5.35,-5.35,-5.35,-5.35,-5.35,-5.35,-5.35,-5.35,-5.35,-5.35,-5.35,-5.35,-5.35,-5.35,-5.35,-5.35,-5.35,-5.35,-5.35,-5.3605,-5.3815,-5.4045,-5.4764,-5.5571,-5.6115,-5.7036,-5.798,-5.8381,-5.894,-5.952,-5.9608,-6.0044,-6.0473,-6.0675,-6.0835,-6.1093,-6.1622,-6.268,-6.3583,-6.367,-6.4266,-6.4763,-6.4763,-6.5127,-6.526,-6.4829,-6.4531,-6.4068,-6.3088,-6.1878,-6.0605,-5.9066,-5.78,-5.6715,-5.5711,-5.533,-5.5179,-5.5179,-5.5179,-5.5128,-5.4955,-5.4282,-5.3419,-5.2355,-5.1072,-5.0039,-4.9297,-4.8663,-4.8315,-4.8172,-4.8172,-4.8172,-3.9547,-4.0455,0.0,0.0,0.0,0.0,0.0,0.0,0.0,0.0,0.0,0.0,0.0,0.0,0.0,0.0,0.0,0.0,0.0,0.0,0.0,0.0,0.0,0.0,0.0,0.0,0.0,0.0,0.0,0.0,-5.1787,-5.2358,-5.2787,-5.2947,-5.329,-5.35,-5.35,-5.35,-5.35,-5.35,-5.35,-5.35,-5.35,-5.35,-5.35,-5.35,-5.35,-5.35,-5.35,-5.35,-5.35,-5.35,-5.35,-5.35,-5.35,-5.35,-5.3553,-5.3605,-5.3605,-5.3867,-5.423,-5.4611,-5.5371,-5.6311,-5.6892,-5.7933,-5.8882,-5.9184,-5.9728,-6.0216,-6.0216,-6.0548,-6.0877,-6.1077,-6.1119,-6.1119,-6.1119,-6.2047,-6.2951,-6.2951,-6.3547,-6.4001,-6.4001,-6.4399,-6.4531,-6.4067,-6.3846,-6.3308,-6.2366,-6.1117,-5.9826,-5.8641,-5.7332,-5.6311,-5.5681,-5.533,-5.5179,-5.5179,-5.5179,-5.5027,-5.4671,-5.3971,-5.302,-5.1894,-5.074,-4.9783,-4.8952,-4.8489,-4.8172,-4.8172,-4.8172,-4.8172,0.0,0.0,0.0,0.0,0.0,0.0,0.0,0.0,0.0,0.0,0.0,0.0,0.0,0.0,0.0,0.0,0.0,0.0,0.0,0.0,0.0,0.0,0.0,0.0,0.0,0.0,0.0,0.0,0.0,-5.1787,-5.1787,-5.2411,-5.2947,-5.3448,-5.35,-5.35,-5.35,-5.35,-5.35,-5.35,-5.35,-5.35,-5.35,-5.35,-5.35,-5.35,-5.35,-5.35,-5.35,-5.35,-5.35,-5.35,-5.35,-5.35,-5.35,-5.35,-5.3658,-5.3919,-5.3919,-5.4282,-5.4794,-5.5371,-5.6115,-5.6892,-5.7684,-5.861,-5.9375,-5.9673,-6.0206,-6.0717,-6.0717,-6.0919,-6.1119,-6.1119,-6.1119,-6.1119,-6.1119,-6.1649,-6.2188,-6.2188,-6.2785,-6.3282,-6.3282,-6.3315,-6.3315,-6.3282,-6.2685,-6.1976,-6.1546,-6.0193,-5.8895,-5.7855,-5.6862,-5.6145,-5.5631,-5.533,-5.5179,-5.5179,-5.5179,-5.4926,-5.4304,-5.3442,-5.2434,-5.1293,-5.0152,-4.9297,-4.8663,-4.8373,-4.8172,-4.8172,-4.8172,-4.8172,-3.9413,0.0,0.0,0.0,0.0,0.0,0.0,0.0,0.0,0.0,0.0,0.0,0.0,0.0,0.0,0.0,0.0,0.0,0.0,0.0,0.0,0.0,0.0,0.0,0.0,0.0,0.0,0.0,0.0,-5.1896,-5.2059,-5.268,-5.316,-5.35,-5.35,-5.35,-5.35,-5.35,-5.35,-5.35,-5.35,-5.35,-5.35,-5.35,-5.35,-5.35,-5.35,-5.35,-5.35,-5.35,-5.35,-5.35,-5.35,-5.35,-5.35,-5.371,-5.3867,-5.3993,-5.456,-5.4968,-5.5421,-5.636,-5.718,-5.7933,-5.8669,-5.9464,-6.0163,-6.0378,-6.0708,-6.1002,-6.1002,-6.1044,-6.1119,-6.1119,-6.1119,-6.1119,-6.1119,-6.1251,-6.1417,-6.1417,-6.198,-6.252,-6.252,-6.2984,-6.315,-6.2586,-6.2184,-6.1521,-6.0533,-5.9637,-5.861,-5.7417,-5.67,-5.6017,-5.5381,-5.5229,-5.5179,-5.5179,-5.5006,-5.4619,-5.4075,-5.3155,-5.2193,-5.1045,-5.0066,-4.9297,-4.8663,-4.8373,-4.8172,-4.8172,-4.8172,-4.8172,-3.9465,-4.0083,-4.0822,-4.1968,0.0,0.0,0.0,-4.5637,0.0,0.0,0.0,0.0,0.0,0.0,0.0,0.0,0.0,0.0,0.0,0.0,0.0,0.0,0.0,0.0,0.0,0.0,0.0,0.0,-5.1028,-5.1189,-5.1563,-5.2067,-5.2405,-5.2717,-5.2717,-5.2717,-5.2717,-5.2717,-5.2717,-5.2717,-5.2717,-5.2717,-5.2746,-5.3007,-5.3123,-5.3123,-5.3384,-5.35,-5.35,-5.35,-5.35,-5.35,-5.35,-5.35,-5.35,-5.3815,-5.4075,-5.4385,-5.517,-5.5769,-5.6311,-5.7275,-5.798,-5.8655,-5.9286,-5.9903,-6.042,-6.0633,-6.0919,-6.1119,-6.1119,-6.1119,-6.1119,-6.1119,-6.1119,-6.1119,-6.1119,-6.1119,-6.1119,-6.1119,-6.145,-6.1715,-6.1715,-6.208,-6.2212,-6.1781,-6.1504,-6.1008,-6.0152,-5.9209,-5.8257,-5.7227,-5.6409,-5.58,-5.5229,-5.5179,-5.5179,-5.5179,-5.4955,-5.4414,-5.3576,-5.2677,-5.1649,-5.0404,-4.9613,-4.901,-4.8489,-4.8315,-4.8172,-4.8172,-4.8172,-4.8172,-3.9647,-3.9981,-4.0236,-4.1222,0.0,0.0,-4.3168,-4.4253,0.0,0.0,0.0,0.0,0.0,0.0,0.0,0.0,0.0,0.0,0.0,0.0,0.0,0.0,0.0,0.0,0.0,0.0,0.0,-5.0013,-5.0065,-5.0275,-5.0772,-5.1104,-5.1359,-5.1563,-5.1614,-5.1614,-5.1614,-5.1614,-5.1614,-5.1614,-5.1614,-5.1614,-5.1643,-5.2194,-5.2507,-5.2484,-5.3065,-5.3297,-5.3297,-5.3297,-5.3384,-5.35,-5.35,-5.35,-5.3553,-5.3867,-5.4282,-5.4845,-5.572,-5.6506,-5.7275,-5.8072,-5.8655,-5.9184,-5.9628,-6.0076,-6.0463,-6.0675,-6.0919,-6.1119,-6.1119,-6.1119,-6.1119,-6.1119,-6.1119,-6.1119,-6.1119,-6.1119,-6.1119,-6.1119,-6.1119,-6.1119,-6.1119,-6.1119,-6.1119,-6.1077,-6.0802,-6.043,-5.9957,-5.8818,-5.784,-5.7084,-5.6145,-5.5481,-5.5229,-5.5179,-5.5179,-5.5179,-5.4905,-5.4178,-5.3073,-5.211,-5.0989,-4.9613,-4.8952,-4.8489,-4.8172,-4.8172,-4.8172,-4.8172,-4.8172,-4.8172,-3.8684,-3.9102,-3.9569,-3.993,0.0,0.0,-4.1928,-4.2675,0.0,0.0,0.0,0.0,0.0,0.0,0.0,0.0,0.0,0.0,0.0,0.0,0.0,0.0,0.0,0.0,0.0,0.0,-5.0013,-5.0013,-5.0379,-5.072,-5.0823,-5.1257,-5.1563,-5.1614,-5.1614,-5.1614,-5.1614,-5.1614,-5.1614,-5.1614,-5.1614,-5.1614,-5.1614,-5.1759,-5.1817,-5.1817,-5.1933,-5.1991,-5.1991,-5.1991,-5.2601,-5.35,-5.35,-5.35,-5.3553,-5.4045,-5.4406,-5.4896,-5.636,-5.7084,-5.7606,-5.8714,-5.9286,-5.9673,-6.012,-6.042,-6.0675,-6.0961,-6.1077,-6.1119,-6.1119,-6.1119,-6.1119,-6.1119,-6.1119,-6.1119,-6.1119,-6.1119,-6.1119,-6.1119,-6.1119,-6.1119,-6.1119,-6.1119,-6.1002,-6.0802,-6.0388,-5.9914,-5.9286,-5.8257,-5.7322,-5.6554,-5.5948,-5.5481,-5.5229,-5.5179,-5.5179,-5.5179,-5.4487,-5.3733,-5.302,-5.1759,-5.0628,-4.9613,-4.8753,-4.8257,-4.8172,-4.8172,-4.8172,-4.8172,-4.8172,-4.8172,0.0,0.0,0.0,-3.9129,0.0,0.0,0.0,-4.1054,-4.1699,0.0,0.0,0.0,0.0,0.0,0.0,0.0,0.0,0.0,0.0,0.0,0.0,0.0,0.0,0.0,0.0,0.0,-4.9085,-4.9239,-4.9598,-4.9903,-5.0004,-5.0406,-5.0656,-5.0656,-5.0656,-5.0656,-5.0656,-5.0656,-5.0656,-5.0656,-5.0656,-5.0656,-5.0656,-5.1004,-5.1149,-5.1178,-5.1468,-5.1614,-5.1614,-5.1614,-5.1991,-5.2572,-5.2572,-5.2775,-5.314,-5.3657,-5.4294,-5.5119,-5.6669,-5.7511,-5.8026,-5.9286,-5.9804,-5.9979,-6.042,-6.0717,-6.0919,-6.1077,-6.1119,-6.1119,-6.1119,-6.1119,-6.1119,-6.1119,-6.1119,-6.1119,-6.1119,-6.1119,-6.1119,-6.1119,-6.1119,-6.1119,-6.1119,-6.1119,-6.1002,-6.0717,-6.0302,-5.9696,-5.8882,-5.7887,-5.6988,-5.6213,-5.5651,-5.533,-5.5179,-5.5179,-5.5128,-5.5006,-5.4282,-5.3524,-5.2648,-5.1348,-5.0039,-4.8695,-4.8172,-4.7938,-4.7938,-4.7938,-4.8055,-4.8172,-4.8172,-4.8172,0.0,0.0,0.0,0.0,0.0,-3.9154,0.0,0.0,0.0,-4.0457,0.0,0.0,0.0,0.0,0.0,0.0,0.0,0.0,0.0,0.0,0.0,0.0,0.0,0.0,0.0,0.0,-4.7988,-4.8311,-4.8674,-4.9009,-4.9305,-4.9522,-4.9717,-4.9717,-4.9717,-4.9717,-4.9717,-4.9717,-4.9717,-4.9717,-4.9717,-4.9717,-4.9698,-5.027,-5.0481,-5.0511,-5.1033,-5.1236,-5.1236,-5.1236,-5.1236,-5.1265,-5.1527,-5.1933,-5.25,-5.301,-5.3861,-5.496,-5.6662,-5.7574,-5.8205,-5.9652,-6.0152,-6.0282,-6.0633,-6.0919,-6.1119,-6.1119,-6.1119,-6.1119,-6.1119,-6.1119,-6.1119,-6.1119,-6.1119,-6.1119,-6.1119,-6.1119,-6.1119,-6.1119,-6.1119,-6.1119,-6.1119,-6.1077,-6.0919,-6.0633,-6.013,-5.9476,-5.8487,-5.7559,-5.6651,-5.5918,-5.5481,-5.5179,-5.5179,-5.5179,-5.5108,-5.4803,-5.4126,-5.3261,-5.2139,-5.074,-4.9274,-4.7762,-4.7645,-4.756,-4.756,-4.7703,-4.788,-4.8172,-4.8172,-4.8172,0.0,0.0,0.0,0.0,-3.8291,0.0,0.0,0.0,-3.8967,-3.9019,0.0,0.0,0.0,0.0,0.0,0.0,0.0,0.0,0.0,0.0,0.0,0.0,0.0,0.0,0.0,0.0,0.0,-4.7659,-4.8446,-4.9009,-4.9305,-4.9522,-4.9717,-4.9717,-4.9717,-4.9717,-4.9717,-4.9717,-4.9717,-4.9717,-4.9717,-4.9717,-4.9717,-4.9805,-4.9785,-4.9785,-4.9921,-4.9901,-4.9901,-4.9901,-4.9901,-5.0017,-5.1178,-5.1672,-5.1781,-5.2335,-5.2912,-5.3717,-5.5875,-5.6929,-5.7616,-5.949,-6.0335,-6.0675,-6.0961,-6.1077,-6.1119,-6.1119,-6.1119,-6.1119,-6.1119,-6.1119,-6.1119,-6.1119,-6.1119,-6.1119,-6.1119,-6.1119,-6.1119,-6.1119,-6.1119,-6.1119,-6.1119,-6.0919,-6.0591,-6.013,-5.9552,-5.8746,-5.7778,-5.6892,-5.6164,-5.5681,-5.5381,-5.5179,-5.5179,-5.5179,-5.5108,-5.4803,-5.3733,-5.2701,-5.1785,-4.9616,-4.823,-4.7703,-4.7383,-4.7265,-4.7265,-4.7586,-4.788,-4.8172,-4.8172,-4.8172,0.0,0.0,0.0,0.0,0.0,0.0,-3.8185,0.0,-3.8368,0.0,0.0,0.0,0.0,0.0,0.0,0.0,0.0,0.0,0.0,0.0,0.0,0.0,0.0,0.0,0.0,0.0,0.0,0.0,0.0,-4.8163,-4.8403,-4.8547,-4.8613,-4.8613,-4.8943,-4.9117,-4.9117,-4.9494,-4.9717,-4.9717,-4.9717,-4.9717,-4.9717,-4.9717,-4.9717,-4.9717,-4.9717,-4.9717,-4.9717,-4.9717,-4.9717,-4.9727,-5.0278,-5.0743,-5.1112,-5.1659,-5.2339,-5.3234,-5.4866,-5.575,-5.6482,-5.8625,-5.9922,-6.0717,-6.0802,-6.0961,-6.1119,-6.1119,-6.1119,-6.1119,-6.1119,-6.1119,-6.1119,-6.1119,-6.1119,-6.1119,-6.1119,-6.1119,-6.1044,-6.0919,-6.0877,-6.076,-6.0506,-6.0591,-6.0463,-5.9696,-5.9152,-5.8381,-5.718,-5.6457,-5.5899,-5.5431,-5.528,-5.5179,-5.5179,-5.5179,-5.4926,-5.4311,-5.273,-5.1293,-5.0237,-4.8899,-4.7906,-4.7197,-4.7078,-4.6959,-4.6959,-4.7138,-4.7349,-4.7619,-4.7821,-4.7756,-3.7974,0.0,0.0,0.0,0.0,0.0,0.0,0.0,0.0,0.0,0.0,0.0,0.0,0.0,-3.9154,-3.9413,0.0,0.0,0.0,0.0,0.0,0.0,0.0,0.0,0.0,0.0,0.0,0.0,-4.7128,0.0,-4.7782,-4.7782,-4.7782,-4.7782,-4.8217,-4.8449,-4.8449,-4.8914,-4.9194,-4.9194,-4.9194,-4.9194,-4.9194,-4.9194,-4.9194,-4.9194,-4.9194,-4.9262,-4.9407,-4.9407,-4.9524,-4.9717,-4.9717,-5.0008,-5.0592,-5.1062,-5.1668,-5.2472,-5.3863,-5.493,-5.5965,-5.7655,-5.8981,-5.999,-6.0187,-6.0412,-6.0654,-6.0844,-6.0919,-6.0919,-6.0919,-6.0919,-6.0919,-6.0961,-6.1002,-6.1002,-6.1002,-6.1002,-6.0919,-6.0591,-6.0506,-6.0345,-5.9827,-6.0044,-6.0033,-5.912,-5.8532,-5.7793,-5.6651,-5.6066,-5.5651,-5.5229,-5.5179,-5.5179,-5.5179,-5.5128,-5.4568,-5.3366,-5.1512,-5.0039,-4.8899,-4.8172,-4.7493,-4.6806,-4.6746,-4.6686,-4.6686,-4.6746,-4.6824,-4.6857,-4.7177,-4.7121,0.0,0.0,0.0,-3.7974,0.0,0.0,0.0,0.0,-3.7974,0.0,0.0,0.0,0.0,-3.8421,-3.8526,-3.8788,-3.8841,0.0,0.0,0.0,0.0,0.0,0.0,0.0,0.0,0.0,0.0,0.0,-4.6776,0.0,-4.7782,-4.7782,-4.7782,-4.7782,-4.7811,-4.7811,-4.7811,-4.784,-4.784,-4.784,-4.784,-4.784,-4.784,-4.784,-4.784,-4.784,-4.784,-4.8188,-4.8721,-4.8721,-4.9117,-4.9717,-4.9717,-4.9892,-5.0164,-5.0434,-5.0644,-5.1113,-5.2823,-5.4799,-5.6491,-5.6861,-5.7409,-5.8121,-5.8838,-5.9203,-5.9535,-6.0224,-6.042,-6.042,-6.042,-6.042,-6.0463,-6.0675,-6.0717,-6.0717,-6.0717,-6.0717,-6.0591,-6.013,-6.0044,-5.9827,-5.9152,-5.9197,-5.9075,-5.8349,-5.7606,-5.6844,-5.6017,-5.575,-5.5481,-5.5229,-5.5179,-5.5179,-5.5179,-5.4955,-5.3919,-5.1894,-5.0349,-4.9129,-4.8289,-4.7316,-4.6866,-4.6806,-4.6481,-4.6326,-4.6326,-4.6626,-4.6501,-4.5943,-4.632,-4.6437,0.0,0.0,-3.7974,-3.7974,0.0,0.0,0.0,0.0,0.0,0.0,0.0,0.0,0.0,-3.8157,-3.8133,-3.8262,-3.8262,-3.8315,0.0,0.0,0.0,0.0,0.0,0.0,0.0,0.0,0.0,-4.48,-4.5326,-4.5795,0.0,-4.5999,-4.6091,-4.6275,-4.6709,-4.6986,-4.7143,-4.7579,-4.7782,-4.7782,-4.7782,-4.7782,-4.7782,-4.7782,-4.7782,-4.7782,-4.7782,-4.7898,-4.8101,-4.8101,-4.8312,-4.8628,-4.8628,-4.911,-4.9787,-5.0276,-5.0614,-5.0917,-5.2045,-5.3391,-5.4719,-5.5121,-5.5966,-5.6849,-5.7247,-5.7614,-5.7946,-5.8205,-5.8712,-5.9231,-5.9231,-5.9589,-5.999,-6.0173,-6.0216,-6.0216,-6.0216,-6.0216,-6.0044,-5.9464,-5.9165,-5.885,-5.815,-5.7746,-5.7559,-5.7464,-5.694,-5.636,-5.575,-5.5481,-5.528,-5.5179,-5.5179,-5.5158,-5.4955,-5.3815,-5.2487,-5.121,-4.9729,-4.8495,-4.756,-4.7078,-4.6686,-4.6481,-4.6361,-4.6301,-4.6301,-4.6069,-4.5851,-4.5624,-4.5009,-4.4827,-3.9104,-3.8695,0.0,0.0,-3.8118,0.0,-3.7974,0.0,0.0,0.0,0.0,0.0,0.0,-3.7974,-3.7974,-3.7974,-3.7974,-3.808,0.0,-3.8421,0.0,0.0,0.0,0.0,0.0,0.0,-4.3108,-4.3662,-4.4087,-4.449,0.0,0.0,-4.4908,-4.523,-4.5659,-4.6045,-4.6338,-4.6743,-4.7021,-4.7114,-4.7114,-4.7114,-4.7114,-4.7114,-4.7114,-4.7114,-4.7114,-4.7277,-4.7602,-4.7602,-4.7858,-4.8219,-4.8219,-4.8669,-4.9373,-5.0053,-5.055,-5.1011,-5.1618,-5.2352,-5.3131,-5.3509,-5.4313,-5.5121,-5.555,-5.5891,-5.626,-5.6602,-5.7149,-5.7696,-5.804,-5.8458,-5.8932,-5.9411,-5.952,-5.952,-5.952,-5.9431,-5.9209,-5.861,-5.8243,-5.784,-5.718,-5.67,-5.6457,-5.6651,-5.6311,-5.5899,-5.5531,-5.528,-5.5179,-5.5179,-5.5179,-5.4976,-5.4414,-5.289,-5.1567,-5.0434,-4.9045,-4.7938,-4.7112,-4.678,-4.6481,-4.6301,-4.6125,-4.6024,-4.6024,-4.5447,-4.507,-4.4869,-4.4141,-4.3803]}]]